<?xml version="1.0" encoding="UTF-8" standalone="no" ?>
<gpx xmlns="http://www.topografix.com/GPX/1/1" xmlns:xsi="http://www.w3.org/2001/XMLSchema-instance" xsi:schemaLocation="http://www.topografix.com/GPX/1/1 http://www.topografix.com/GPX/1/1/gpx.xsd" version="1.1" creator="VisuGPX - https://www.visugpx.com">
  <metadata>
    <name>SALIGNAC ST SYMPHORIEN SOURRIBE</name>
  </metadata>
  <trk>
    <name><![CDATA[SALIGNAC ST SYMPHORIEN SOURRIBE_1]]></name>
    <trkseg>
      <trkpt lat="44.15273" lon="5.97237">
        <ele>590.916</ele>
        <time>2019-11-01T06:38:33Z</time>
      </trkpt>
      <trkpt lat="44.15273" lon="5.97237">
        <ele>590.777</ele>
        <time>2019-11-01T06:38:38Z</time>
      </trkpt>
      <trkpt lat="44.15273" lon="5.97237">
        <ele>590.674</ele>
        <time>2019-11-01T06:38:43Z</time>
      </trkpt>
      <trkpt lat="44.15273" lon="5.97237">
        <ele>588.91</ele>
        <time>2019-11-01T06:38:49Z</time>
      </trkpt>
      <trkpt lat="44.15273" lon="5.97237">
        <ele>587.576</ele>
        <time>2019-11-01T06:38:54Z</time>
      </trkpt>
      <trkpt lat="44.15273" lon="5.97237">
        <ele>586.369</ele>
        <time>2019-11-01T06:38:59Z</time>
      </trkpt>
      <trkpt lat="44.15273" lon="5.97237">
        <ele>585.105</ele>
        <time>2019-11-01T06:39:05Z</time>
      </trkpt>
      <trkpt lat="44.15286" lon="5.97249">
        <ele>584.51</ele>
        <time>2019-11-01T06:39:10Z</time>
      </trkpt>
      <trkpt lat="44.15286" lon="5.97249">
        <ele>583.97</ele>
        <time>2019-11-01T06:39:16Z</time>
      </trkpt>
      <trkpt lat="44.15286" lon="5.97249">
        <ele>583.188</ele>
        <time>2019-11-01T06:39:22Z</time>
      </trkpt>
      <trkpt lat="44.15286" lon="5.97249">
        <ele>582.37</ele>
        <time>2019-11-01T06:39:28Z</time>
      </trkpt>
      <trkpt lat="44.15286" lon="5.97249">
        <ele>582.226</ele>
        <time>2019-11-01T06:39:34Z</time>
      </trkpt>
      <trkpt lat="44.15286" lon="5.97249">
        <ele>582.111</ele>
        <time>2019-11-01T06:39:39Z</time>
      </trkpt>
      <trkpt lat="44.15286" lon="5.97249">
        <ele>581.977</ele>
        <time>2019-11-01T06:39:45Z</time>
      </trkpt>
      <trkpt lat="44.15286" lon="5.97249">
        <ele>581.854</ele>
        <time>2019-11-01T06:39:51Z</time>
      </trkpt>
      <trkpt lat="44.15287" lon="5.97249">
        <ele>581.685</ele>
        <time>2019-11-01T06:39:57Z</time>
      </trkpt>
      <trkpt lat="44.15287" lon="5.97248">
        <ele>581.409</ele>
        <time>2019-11-01T06:40:02Z</time>
      </trkpt>
      <trkpt lat="44.15286" lon="5.97248">
        <ele>581.324</ele>
        <time>2019-11-01T06:40:07Z</time>
      </trkpt>
      <trkpt lat="44.15286" lon="5.97246">
        <ele>581.178</ele>
        <time>2019-11-01T06:40:13Z</time>
      </trkpt>
      <trkpt lat="44.15287" lon="5.97248">
        <ele>580.571</ele>
        <time>2019-11-01T06:40:18Z</time>
      </trkpt>
      <trkpt lat="44.15288" lon="5.97249">
        <ele>580.066</ele>
        <time>2019-11-01T06:40:24Z</time>
      </trkpt>
      <trkpt lat="44.15288" lon="5.97247">
        <ele>579.825</ele>
        <time>2019-11-01T06:40:29Z</time>
      </trkpt>
      <trkpt lat="44.15289" lon="5.97247">
        <ele>579.37</ele>
        <time>2019-11-01T06:40:34Z</time>
      </trkpt>
      <trkpt lat="44.15285" lon="5.97238">
        <ele>578.426</ele>
        <time>2019-11-01T06:40:40Z</time>
      </trkpt>
      <trkpt lat="44.15278" lon="5.97221">
        <ele>577.732</ele>
        <time>2019-11-01T06:40:45Z</time>
      </trkpt>
      <trkpt lat="44.1527" lon="5.972">
        <ele>576.964</ele>
        <time>2019-11-01T06:40:51Z</time>
      </trkpt>
      <trkpt lat="44.15265" lon="5.97184">
        <ele>576.463</ele>
        <time>2019-11-01T06:40:56Z</time>
      </trkpt>
      <trkpt lat="44.15257" lon="5.97176">
        <ele>576.012</ele>
        <time>2019-11-01T06:41:01Z</time>
      </trkpt>
      <trkpt lat="44.15309" lon="5.97475">
        <ele>565.278</ele>
        <time>2019-11-01T06:42:23Z</time>
      </trkpt>
      <trkpt lat="44.1531" lon="5.97476">
        <ele>563.999</ele>
        <time>2019-11-01T06:42:29Z</time>
      </trkpt>
      <trkpt lat="44.1531" lon="5.97476">
        <ele>571.912</ele>
        <time>2019-11-01T06:42:34Z</time>
      </trkpt>
      <trkpt lat="44.1531" lon="5.97476">
        <ele>573.357</ele>
        <time>2019-11-01T06:42:39Z</time>
      </trkpt>
      <trkpt lat="44.1531" lon="5.97476">
        <ele>573.407</ele>
        <time>2019-11-01T06:42:45Z</time>
      </trkpt>
      <trkpt lat="44.1531" lon="5.97476">
        <ele>573.001</ele>
        <time>2019-11-01T06:42:50Z</time>
      </trkpt>
      <trkpt lat="44.15317" lon="5.97477">
        <ele>572.889</ele>
        <time>2019-11-01T06:42:55Z</time>
      </trkpt>
      <trkpt lat="44.15322" lon="5.97487">
        <ele>572.732</ele>
        <time>2019-11-01T06:43:01Z</time>
      </trkpt>
      <trkpt lat="44.1533" lon="5.9751">
        <ele>572.246</ele>
        <time>2019-11-01T06:43:07Z</time>
      </trkpt>
      <trkpt lat="44.1534" lon="5.97537">
        <ele>570.991</ele>
        <time>2019-11-01T06:43:12Z</time>
      </trkpt>
      <trkpt lat="44.1535" lon="5.97563">
        <ele>570.612</ele>
        <time>2019-11-01T06:43:17Z</time>
      </trkpt>
      <trkpt lat="44.1536" lon="5.97592">
        <ele>570.531</ele>
        <time>2019-11-01T06:43:22Z</time>
      </trkpt>
      <trkpt lat="44.15372" lon="5.97629">
        <ele>570.35</ele>
        <time>2019-11-01T06:43:28Z</time>
      </trkpt>
      <trkpt lat="44.15386" lon="5.97668">
        <ele>570.011</ele>
        <time>2019-11-01T06:43:34Z</time>
      </trkpt>
      <trkpt lat="44.15401" lon="5.9771">
        <ele>569.586</ele>
        <time>2019-11-01T06:43:40Z</time>
      </trkpt>
      <trkpt lat="44.15415" lon="5.97751">
        <ele>569.422</ele>
        <time>2019-11-01T06:43:46Z</time>
      </trkpt>
      <trkpt lat="44.15428" lon="5.97791">
        <ele>570.517</ele>
        <time>2019-11-01T06:43:52Z</time>
      </trkpt>
      <trkpt lat="44.15437" lon="5.97834">
        <ele>570.669</ele>
        <time>2019-11-01T06:43:58Z</time>
      </trkpt>
      <trkpt lat="44.15446" lon="5.97873">
        <ele>571.405</ele>
        <time>2019-11-01T06:44:04Z</time>
      </trkpt>
      <trkpt lat="44.15454" lon="5.9791">
        <ele>572.609</ele>
        <time>2019-11-01T06:44:10Z</time>
      </trkpt>
      <trkpt lat="44.15462" lon="5.97936">
        <ele>573.654</ele>
        <time>2019-11-01T06:44:15Z</time>
      </trkpt>
      <trkpt lat="44.15475" lon="5.97966">
        <ele>572.918</ele>
        <time>2019-11-01T06:44:21Z</time>
      </trkpt>
      <trkpt lat="44.15488" lon="5.97993">
        <ele>572.819</ele>
        <time>2019-11-01T06:44:27Z</time>
      </trkpt>
      <trkpt lat="44.15506" lon="5.98">
        <ele>571.311</ele>
        <time>2019-11-01T06:44:32Z</time>
      </trkpt>
      <trkpt lat="44.15536" lon="5.97977">
        <ele>568.254</ele>
        <time>2019-11-01T06:44:38Z</time>
      </trkpt>
      <trkpt lat="44.15561" lon="5.97959">
        <ele>568.681</ele>
        <time>2019-11-01T06:44:43Z</time>
      </trkpt>
      <trkpt lat="44.15584" lon="5.97941">
        <ele>569.312</ele>
        <time>2019-11-01T06:44:48Z</time>
      </trkpt>
      <trkpt lat="44.15609" lon="5.97922">
        <ele>568.841</ele>
        <time>2019-11-01T06:44:54Z</time>
      </trkpt>
      <trkpt lat="44.15629" lon="5.97908">
        <ele>571.284</ele>
        <time>2019-11-01T06:45:00Z</time>
      </trkpt>
      <trkpt lat="44.1565" lon="5.97902">
        <ele>569.264</ele>
        <time>2019-11-01T06:45:05Z</time>
      </trkpt>
      <trkpt lat="44.1567" lon="5.97892">
        <ele>567.758</ele>
        <time>2019-11-01T06:45:10Z</time>
      </trkpt>
      <trkpt lat="44.15691" lon="5.97877">
        <ele>567.918</ele>
        <time>2019-11-01T06:45:16Z</time>
      </trkpt>
      <trkpt lat="44.15709" lon="5.97855">
        <ele>569.076</ele>
        <time>2019-11-01T06:45:22Z</time>
      </trkpt>
      <trkpt lat="44.15723" lon="5.97838">
        <ele>569.17</ele>
        <time>2019-11-01T06:45:27Z</time>
      </trkpt>
      <trkpt lat="44.15745" lon="5.97818">
        <ele>570.535</ele>
        <time>2019-11-01T06:45:33Z</time>
      </trkpt>
      <trkpt lat="44.15762" lon="5.97804">
        <ele>572.749</ele>
        <time>2019-11-01T06:45:38Z</time>
      </trkpt>
      <trkpt lat="44.1578" lon="5.97788">
        <ele>573.886</ele>
        <time>2019-11-01T06:45:44Z</time>
      </trkpt>
      <trkpt lat="44.15795" lon="5.97761">
        <ele>572.767</ele>
        <time>2019-11-01T06:45:50Z</time>
      </trkpt>
      <trkpt lat="44.1581" lon="5.97734">
        <ele>572.242</ele>
        <time>2019-11-01T06:45:56Z</time>
      </trkpt>
      <trkpt lat="44.15829" lon="5.97725">
        <ele>572.403</ele>
        <time>2019-11-01T06:46:02Z</time>
      </trkpt>
      <trkpt lat="44.15854" lon="5.97727">
        <ele>571.453</ele>
        <time>2019-11-01T06:46:08Z</time>
      </trkpt>
      <trkpt lat="44.15872" lon="5.97725">
        <ele>572.481</ele>
        <time>2019-11-01T06:46:13Z</time>
      </trkpt>
      <trkpt lat="44.15894" lon="5.97728">
        <ele>573.302</ele>
        <time>2019-11-01T06:46:19Z</time>
      </trkpt>
      <trkpt lat="44.15909" lon="5.97745">
        <ele>571.953</ele>
        <time>2019-11-01T06:46:24Z</time>
      </trkpt>
      <trkpt lat="44.15918" lon="5.97788">
        <ele>571.078</ele>
        <time>2019-11-01T06:46:30Z</time>
      </trkpt>
      <trkpt lat="44.15925" lon="5.97853">
        <ele>570.314</ele>
        <time>2019-11-01T06:46:36Z</time>
      </trkpt>
      <trkpt lat="44.15923" lon="5.97889">
        <ele>570.937</ele>
        <time>2019-11-01T06:46:41Z</time>
      </trkpt>
      <trkpt lat="44.15918" lon="5.9792">
        <ele>572.63</ele>
        <time>2019-11-01T06:46:46Z</time>
      </trkpt>
      <trkpt lat="44.15912" lon="5.97944">
        <ele>572.379</ele>
        <time>2019-11-01T06:46:51Z</time>
      </trkpt>
      <trkpt lat="44.15906" lon="5.97966">
        <ele>572.395</ele>
        <time>2019-11-01T06:46:57Z</time>
      </trkpt>
      <trkpt lat="44.15902" lon="5.97984">
        <ele>572.862</ele>
        <time>2019-11-01T06:47:03Z</time>
      </trkpt>
      <trkpt lat="44.15899" lon="5.98004">
        <ele>573.17</ele>
        <time>2019-11-01T06:47:09Z</time>
      </trkpt>
      <trkpt lat="44.15895" lon="5.98015">
        <ele>573.355</ele>
        <time>2019-11-01T06:47:15Z</time>
      </trkpt>
      <trkpt lat="44.15895" lon="5.98015">
        <ele>573.385</ele>
        <time>2019-11-01T06:47:20Z</time>
      </trkpt>
      <trkpt lat="44.15895" lon="5.98015">
        <ele>573.402</ele>
        <time>2019-11-01T06:47:25Z</time>
      </trkpt>
      <trkpt lat="44.15895" lon="5.98015">
        <ele>573.418</ele>
        <time>2019-11-01T06:47:31Z</time>
      </trkpt>
      <trkpt lat="44.15894" lon="5.98034">
        <ele>573.686</ele>
        <time>2019-11-01T06:47:37Z</time>
      </trkpt>
      <trkpt lat="44.15889" lon="5.98055">
        <ele>573.916</ele>
        <time>2019-11-01T06:47:43Z</time>
      </trkpt>
      <trkpt lat="44.15884" lon="5.98074">
        <ele>574.061</ele>
        <time>2019-11-01T06:47:48Z</time>
      </trkpt>
      <trkpt lat="44.15877" lon="5.98101">
        <ele>574.389</ele>
        <time>2019-11-01T06:47:54Z</time>
      </trkpt>
      <trkpt lat="44.15867" lon="5.98129">
        <ele>574.725</ele>
        <time>2019-11-01T06:48:00Z</time>
      </trkpt>
      <trkpt lat="44.15858" lon="5.98149">
        <ele>575.132</ele>
        <time>2019-11-01T06:48:05Z</time>
      </trkpt>
      <trkpt lat="44.15845" lon="5.98169">
        <ele>577.645</ele>
        <time>2019-11-01T06:48:10Z</time>
      </trkpt>
      <trkpt lat="44.15825" lon="5.98193">
        <ele>582.694</ele>
        <time>2019-11-01T06:48:16Z</time>
      </trkpt>
      <trkpt lat="44.15808" lon="5.98221">
        <ele>580.132</ele>
        <time>2019-11-01T06:48:22Z</time>
      </trkpt>
      <trkpt lat="44.15794" lon="5.98247">
        <ele>579.573</ele>
        <time>2019-11-01T06:48:27Z</time>
      </trkpt>
      <trkpt lat="44.15775" lon="5.98282">
        <ele>579.156</ele>
        <time>2019-11-01T06:48:33Z</time>
      </trkpt>
      <trkpt lat="44.1576" lon="5.98315">
        <ele>581.436</ele>
        <time>2019-11-01T06:48:38Z</time>
      </trkpt>
      <trkpt lat="44.15744" lon="5.98364">
        <ele>581.131</ele>
        <time>2019-11-01T06:48:44Z</time>
      </trkpt>
      <trkpt lat="44.15748" lon="5.98422">
        <ele>577.678</ele>
        <time>2019-11-01T06:48:49Z</time>
      </trkpt>
      <trkpt lat="44.15776" lon="5.98468">
        <ele>574.637</ele>
        <time>2019-11-01T06:48:55Z</time>
      </trkpt>
      <trkpt lat="44.15807" lon="5.9849">
        <ele>574.267</ele>
        <time>2019-11-01T06:49:01Z</time>
      </trkpt>
      <trkpt lat="44.15829" lon="5.98502">
        <ele>576.861</ele>
        <time>2019-11-01T06:49:06Z</time>
      </trkpt>
      <trkpt lat="44.15845" lon="5.98513">
        <ele>576.169</ele>
        <time>2019-11-01T06:49:11Z</time>
      </trkpt>
      <trkpt lat="44.15861" lon="5.98536">
        <ele>576.627</ele>
        <time>2019-11-01T06:49:17Z</time>
      </trkpt>
      <trkpt lat="44.15871" lon="5.98557">
        <ele>576.687</ele>
        <time>2019-11-01T06:49:22Z</time>
      </trkpt>
      <trkpt lat="44.15883" lon="5.98581">
        <ele>576.731</ele>
        <time>2019-11-01T06:49:28Z</time>
      </trkpt>
      <trkpt lat="44.15893" lon="5.98604">
        <ele>576.676</ele>
        <time>2019-11-01T06:49:34Z</time>
      </trkpt>
      <trkpt lat="44.15901" lon="5.98624">
        <ele>576.546</ele>
        <time>2019-11-01T06:49:39Z</time>
      </trkpt>
      <trkpt lat="44.1591" lon="5.98648">
        <ele>576.793</ele>
        <time>2019-11-01T06:49:45Z</time>
      </trkpt>
      <trkpt lat="44.15918" lon="5.9867">
        <ele>577.13</ele>
        <time>2019-11-01T06:49:51Z</time>
      </trkpt>
      <trkpt lat="44.15924" lon="5.98692">
        <ele>577.21</ele>
        <time>2019-11-01T06:49:57Z</time>
      </trkpt>
      <trkpt lat="44.15932" lon="5.98714">
        <ele>577.862</ele>
        <time>2019-11-01T06:50:03Z</time>
      </trkpt>
      <trkpt lat="44.15939" lon="5.98738">
        <ele>578.694</ele>
        <time>2019-11-01T06:50:09Z</time>
      </trkpt>
      <trkpt lat="44.15944" lon="5.98758">
        <ele>579.502</ele>
        <time>2019-11-01T06:50:14Z</time>
      </trkpt>
      <trkpt lat="44.15952" lon="5.98776">
        <ele>580.104</ele>
        <time>2019-11-01T06:50:19Z</time>
      </trkpt>
      <trkpt lat="44.15959" lon="5.98798">
        <ele>580.928</ele>
        <time>2019-11-01T06:50:25Z</time>
      </trkpt>
      <trkpt lat="44.15963" lon="5.98817">
        <ele>581.593</ele>
        <time>2019-11-01T06:50:30Z</time>
      </trkpt>
      <trkpt lat="44.15966" lon="5.98834">
        <ele>582.739</ele>
        <time>2019-11-01T06:50:36Z</time>
      </trkpt>
      <trkpt lat="44.15968" lon="5.98847">
        <ele>583.802</ele>
        <time>2019-11-01T06:50:41Z</time>
      </trkpt>
      <trkpt lat="44.15971" lon="5.98867">
        <ele>585.305</ele>
        <time>2019-11-01T06:50:46Z</time>
      </trkpt>
      <trkpt lat="44.15975" lon="5.98897">
        <ele>591.828</ele>
        <time>2019-11-01T06:50:52Z</time>
      </trkpt>
      <trkpt lat="44.1598" lon="5.98938">
        <ele>593.944</ele>
        <time>2019-11-01T06:50:57Z</time>
      </trkpt>
      <trkpt lat="44.15975" lon="5.99013">
        <ele>592.283</ele>
        <time>2019-11-01T06:51:03Z</time>
      </trkpt>
      <trkpt lat="44.15964" lon="5.99096">
        <ele>587.726</ele>
        <time>2019-11-01T06:51:09Z</time>
      </trkpt>
      <trkpt lat="44.15957" lon="5.99189">
        <ele>580.229</ele>
        <time>2019-11-01T06:51:15Z</time>
      </trkpt>
      <trkpt lat="44.15914" lon="5.99265">
        <ele>577.596</ele>
        <time>2019-11-01T06:51:21Z</time>
      </trkpt>
      <trkpt lat="44.15881" lon="5.99346">
        <ele>572.635</ele>
        <time>2019-11-01T06:51:27Z</time>
      </trkpt>
      <trkpt lat="44.15844" lon="5.99407">
        <ele>568.082</ele>
        <time>2019-11-01T06:51:32Z</time>
      </trkpt>
      <trkpt lat="44.15805" lon="5.99485">
        <ele>564.099</ele>
        <time>2019-11-01T06:51:38Z</time>
      </trkpt>
      <trkpt lat="44.15794" lon="5.99572">
        <ele>557.642</ele>
        <time>2019-11-01T06:51:44Z</time>
      </trkpt>
      <trkpt lat="44.1578" lon="5.99648">
        <ele>553.626</ele>
        <time>2019-11-01T06:51:50Z</time>
      </trkpt>
      <trkpt lat="44.15779" lon="5.997">
        <ele>551.913</ele>
        <time>2019-11-01T06:51:55Z</time>
      </trkpt>
      <trkpt lat="44.15748" lon="5.99745">
        <ele>549.436</ele>
        <time>2019-11-01T06:52:01Z</time>
      </trkpt>
      <trkpt lat="44.15754" lon="5.99801">
        <ele>547.444</ele>
        <time>2019-11-01T06:52:07Z</time>
      </trkpt>
      <trkpt lat="44.15777" lon="5.99834">
        <ele>546.622</ele>
        <time>2019-11-01T06:52:12Z</time>
      </trkpt>
      <trkpt lat="44.15802" lon="5.99878">
        <ele>547.002</ele>
        <time>2019-11-01T06:52:18Z</time>
      </trkpt>
      <trkpt lat="44.15814" lon="5.99935">
        <ele>545.102</ele>
        <time>2019-11-01T06:52:23Z</time>
      </trkpt>
      <trkpt lat="44.15816" lon="5.99995">
        <ele>543.481</ele>
        <time>2019-11-01T06:52:28Z</time>
      </trkpt>
      <trkpt lat="44.15819" lon="6.00045">
        <ele>542.436</ele>
        <time>2019-11-01T06:52:34Z</time>
      </trkpt>
      <trkpt lat="44.15829" lon="6.00066">
        <ele>541.692</ele>
        <time>2019-11-01T06:52:39Z</time>
      </trkpt>
      <trkpt lat="44.15839" lon="6.00084">
        <ele>541.421</ele>
        <time>2019-11-01T06:52:45Z</time>
      </trkpt>
      <trkpt lat="44.15847" lon="6.001">
        <ele>541.473</ele>
        <time>2019-11-01T06:52:50Z</time>
      </trkpt>
      <trkpt lat="44.15854" lon="6.00123">
        <ele>541.671</ele>
        <time>2019-11-01T06:52:56Z</time>
      </trkpt>
      <trkpt lat="44.15859" lon="6.00142">
        <ele>542.004</ele>
        <time>2019-11-01T06:53:01Z</time>
      </trkpt>
      <trkpt lat="44.15867" lon="6.00165">
        <ele>542.491</ele>
        <time>2019-11-01T06:53:07Z</time>
      </trkpt>
      <trkpt lat="44.15878" lon="6.00172">
        <ele>542.817</ele>
        <time>2019-11-01T06:53:12Z</time>
      </trkpt>
      <trkpt lat="44.15895" lon="6.00163">
        <ele>543.467</ele>
        <time>2019-11-01T06:53:18Z</time>
      </trkpt>
      <trkpt lat="44.15911" lon="6.00151">
        <ele>544.229</ele>
        <time>2019-11-01T06:53:24Z</time>
      </trkpt>
      <trkpt lat="44.15927" lon="6.00147">
        <ele>544.56</ele>
        <time>2019-11-01T06:53:29Z</time>
      </trkpt>
      <trkpt lat="44.15946" lon="6.00151">
        <ele>545.896</ele>
        <time>2019-11-01T06:53:35Z</time>
      </trkpt>
      <trkpt lat="44.15967" lon="6.00152">
        <ele>546.365</ele>
        <time>2019-11-01T06:53:40Z</time>
      </trkpt>
      <trkpt lat="44.1599" lon="6.00159">
        <ele>545.61</ele>
        <time>2019-11-01T06:53:46Z</time>
      </trkpt>
      <trkpt lat="44.1601" lon="6.00162">
        <ele>545.815</ele>
        <time>2019-11-01T06:53:52Z</time>
      </trkpt>
      <trkpt lat="44.16026" lon="6.00155">
        <ele>546.447</ele>
        <time>2019-11-01T06:53:57Z</time>
      </trkpt>
      <trkpt lat="44.16039" lon="6.00153">
        <ele>547.016</ele>
        <time>2019-11-01T06:54:02Z</time>
      </trkpt>
      <trkpt lat="44.16051" lon="6.00154">
        <ele>547.631</ele>
        <time>2019-11-01T06:54:07Z</time>
      </trkpt>
      <trkpt lat="44.16062" lon="6.00159">
        <ele>548.607</ele>
        <time>2019-11-01T06:54:13Z</time>
      </trkpt>
      <trkpt lat="44.16065" lon="6.00175">
        <ele>549.602</ele>
        <time>2019-11-01T06:54:19Z</time>
      </trkpt>
      <trkpt lat="44.16064" lon="6.00186">
        <ele>550.619</ele>
        <time>2019-11-01T06:54:25Z</time>
      </trkpt>
      <trkpt lat="44.16063" lon="6.00197">
        <ele>551.753</ele>
        <time>2019-11-01T06:54:31Z</time>
      </trkpt>
      <trkpt lat="44.16062" lon="6.0021">
        <ele>552.654</ele>
        <time>2019-11-01T06:54:36Z</time>
      </trkpt>
      <trkpt lat="44.1606" lon="6.00224">
        <ele>553.634</ele>
        <time>2019-11-01T06:54:41Z</time>
      </trkpt>
      <trkpt lat="44.1606" lon="6.0024">
        <ele>554.812</ele>
        <time>2019-11-01T06:54:47Z</time>
      </trkpt>
      <trkpt lat="44.1606" lon="6.00251">
        <ele>556.048</ele>
        <time>2019-11-01T06:54:52Z</time>
      </trkpt>
      <trkpt lat="44.16061" lon="6.00262">
        <ele>557.174</ele>
        <time>2019-11-01T06:54:57Z</time>
      </trkpt>
      <trkpt lat="44.16063" lon="6.00271">
        <ele>558.27</ele>
        <time>2019-11-01T06:55:02Z</time>
      </trkpt>
      <trkpt lat="44.16067" lon="6.00281">
        <ele>559.284</ele>
        <time>2019-11-01T06:55:07Z</time>
      </trkpt>
      <trkpt lat="44.16069" lon="6.00292">
        <ele>560.563</ele>
        <time>2019-11-01T06:55:13Z</time>
      </trkpt>
      <trkpt lat="44.16073" lon="6.00299">
        <ele>561.968</ele>
        <time>2019-11-01T06:55:18Z</time>
      </trkpt>
      <trkpt lat="44.16075" lon="6.00309">
        <ele>563.066</ele>
        <time>2019-11-01T06:55:23Z</time>
      </trkpt>
      <trkpt lat="44.16078" lon="6.00318">
        <ele>564.412</ele>
        <time>2019-11-01T06:55:29Z</time>
      </trkpt>
      <trkpt lat="44.16079" lon="6.00329">
        <ele>565.705</ele>
        <time>2019-11-01T06:55:35Z</time>
      </trkpt>
      <trkpt lat="44.16082" lon="6.00337">
        <ele>566.652</ele>
        <time>2019-11-01T06:55:40Z</time>
      </trkpt>
      <trkpt lat="44.16088" lon="6.00349">
        <ele>567.619</ele>
        <time>2019-11-01T06:55:46Z</time>
      </trkpt>
      <trkpt lat="44.16089" lon="6.00358">
        <ele>568.35</ele>
        <time>2019-11-01T06:55:51Z</time>
      </trkpt>
      <trkpt lat="44.16092" lon="6.00371">
        <ele>569.339</ele>
        <time>2019-11-01T06:55:57Z</time>
      </trkpt>
      <trkpt lat="44.16093" lon="6.00373">
        <ele>569.819</ele>
        <time>2019-11-01T06:56:02Z</time>
      </trkpt>
      <trkpt lat="44.16093" lon="6.00373">
        <ele>569.953</ele>
        <time>2019-11-01T06:56:07Z</time>
      </trkpt>
      <trkpt lat="44.16093" lon="6.00373">
        <ele>570.079</ele>
        <time>2019-11-01T06:56:12Z</time>
      </trkpt>
      <trkpt lat="44.16093" lon="6.00373">
        <ele>570.193</ele>
        <time>2019-11-01T06:56:17Z</time>
      </trkpt>
      <trkpt lat="44.16093" lon="6.00373">
        <ele>570.699</ele>
        <time>2019-11-01T06:56:22Z</time>
      </trkpt>
      <trkpt lat="44.16097" lon="6.00382">
        <ele>572.297</ele>
        <time>2019-11-01T06:56:28Z</time>
      </trkpt>
      <trkpt lat="44.16101" lon="6.00392">
        <ele>573.295</ele>
        <time>2019-11-01T06:56:33Z</time>
      </trkpt>
      <trkpt lat="44.16104" lon="6.00402">
        <ele>574.046</ele>
        <time>2019-11-01T06:56:38Z</time>
      </trkpt>
      <trkpt lat="44.16106" lon="6.0041">
        <ele>574.541</ele>
        <time>2019-11-01T06:56:43Z</time>
      </trkpt>
      <trkpt lat="44.16113" lon="6.0042">
        <ele>575.359</ele>
        <time>2019-11-01T06:56:49Z</time>
      </trkpt>
      <trkpt lat="44.16118" lon="6.00432">
        <ele>575.973</ele>
        <time>2019-11-01T06:56:54Z</time>
      </trkpt>
      <trkpt lat="44.16122" lon="6.00442">
        <ele>576.832</ele>
        <time>2019-11-01T06:56:59Z</time>
      </trkpt>
      <trkpt lat="44.16128" lon="6.00454">
        <ele>577.987</ele>
        <time>2019-11-01T06:57:05Z</time>
      </trkpt>
      <trkpt lat="44.16133" lon="6.00463">
        <ele>578.956</ele>
        <time>2019-11-01T06:57:11Z</time>
      </trkpt>
      <trkpt lat="44.16139" lon="6.00471">
        <ele>579.653</ele>
        <time>2019-11-01T06:57:16Z</time>
      </trkpt>
      <trkpt lat="44.16146" lon="6.00482">
        <ele>580.713</ele>
        <time>2019-11-01T06:57:22Z</time>
      </trkpt>
      <trkpt lat="44.16152" lon="6.00493">
        <ele>581.902</ele>
        <time>2019-11-01T06:57:28Z</time>
      </trkpt>
      <trkpt lat="44.16159" lon="6.00502">
        <ele>583.012</ele>
        <time>2019-11-01T06:57:34Z</time>
      </trkpt>
      <trkpt lat="44.16164" lon="6.0051">
        <ele>583.95</ele>
        <time>2019-11-01T06:57:39Z</time>
      </trkpt>
      <trkpt lat="44.16168" lon="6.0052">
        <ele>584.722</ele>
        <time>2019-11-01T06:57:44Z</time>
      </trkpt>
      <trkpt lat="44.16174" lon="6.0053">
        <ele>585.526</ele>
        <time>2019-11-01T06:57:50Z</time>
      </trkpt>
      <trkpt lat="44.1618" lon="6.00536">
        <ele>586.324</ele>
        <time>2019-11-01T06:57:55Z</time>
      </trkpt>
      <trkpt lat="44.16187" lon="6.00545">
        <ele>587.4</ele>
        <time>2019-11-01T06:58:01Z</time>
      </trkpt>
      <trkpt lat="44.16193" lon="6.00555">
        <ele>588.366</ele>
        <time>2019-11-01T06:58:07Z</time>
      </trkpt>
      <trkpt lat="44.16199" lon="6.00567">
        <ele>589.729</ele>
        <time>2019-11-01T06:58:13Z</time>
      </trkpt>
      <trkpt lat="44.16204" lon="6.00575">
        <ele>590.883</ele>
        <time>2019-11-01T06:58:18Z</time>
      </trkpt>
      <trkpt lat="44.1621" lon="6.00585">
        <ele>592.011</ele>
        <time>2019-11-01T06:58:24Z</time>
      </trkpt>
      <trkpt lat="44.16213" lon="6.00594">
        <ele>593.195</ele>
        <time>2019-11-01T06:58:30Z</time>
      </trkpt>
      <trkpt lat="44.16212" lon="6.00593">
        <ele>593.296</ele>
        <time>2019-11-01T06:58:36Z</time>
      </trkpt>
      <trkpt lat="44.16212" lon="6.00599">
        <ele>593.48</ele>
        <time>2019-11-01T06:58:41Z</time>
      </trkpt>
      <trkpt lat="44.16216" lon="6.00615">
        <ele>594.395</ele>
        <time>2019-11-01T06:58:47Z</time>
      </trkpt>
      <trkpt lat="44.16218" lon="6.00631">
        <ele>595.114</ele>
        <time>2019-11-01T06:58:52Z</time>
      </trkpt>
      <trkpt lat="44.1622" lon="6.00647">
        <ele>595.908</ele>
        <time>2019-11-01T06:58:57Z</time>
      </trkpt>
      <trkpt lat="44.16225" lon="6.00664">
        <ele>596.717</ele>
        <time>2019-11-01T06:59:03Z</time>
      </trkpt>
      <trkpt lat="44.16232" lon="6.00679">
        <ele>597.474</ele>
        <time>2019-11-01T06:59:08Z</time>
      </trkpt>
      <trkpt lat="44.16241" lon="6.00696">
        <ele>598.612</ele>
        <time>2019-11-01T06:59:14Z</time>
      </trkpt>
      <trkpt lat="44.16248" lon="6.0071">
        <ele>599.432</ele>
        <time>2019-11-01T06:59:19Z</time>
      </trkpt>
      <trkpt lat="44.16254" lon="6.00723">
        <ele>600.229</ele>
        <time>2019-11-01T06:59:24Z</time>
      </trkpt>
      <trkpt lat="44.16261" lon="6.00742">
        <ele>601.168</ele>
        <time>2019-11-01T06:59:30Z</time>
      </trkpt>
      <trkpt lat="44.16264" lon="6.00758">
        <ele>601.869</ele>
        <time>2019-11-01T06:59:35Z</time>
      </trkpt>
      <trkpt lat="44.16269" lon="6.00785">
        <ele>604.529</ele>
        <time>2019-11-01T06:59:41Z</time>
      </trkpt>
      <trkpt lat="44.16279" lon="6.00816">
        <ele>606.682</ele>
        <time>2019-11-01T06:59:47Z</time>
      </trkpt>
      <trkpt lat="44.16289" lon="6.00833">
        <ele>606.772</ele>
        <time>2019-11-01T06:59:52Z</time>
      </trkpt>
      <trkpt lat="44.16301" lon="6.00855">
        <ele>606.821</ele>
        <time>2019-11-01T06:59:58Z</time>
      </trkpt>
      <trkpt lat="44.16311" lon="6.0087">
        <ele>607.043</ele>
        <time>2019-11-01T07:00:03Z</time>
      </trkpt>
      <trkpt lat="44.1632" lon="6.00887">
        <ele>607.34</ele>
        <time>2019-11-01T07:00:09Z</time>
      </trkpt>
      <trkpt lat="44.16329" lon="6.00905">
        <ele>607.825</ele>
        <time>2019-11-01T07:00:15Z</time>
      </trkpt>
      <trkpt lat="44.16337" lon="6.00928">
        <ele>608.266</ele>
        <time>2019-11-01T07:00:21Z</time>
      </trkpt>
      <trkpt lat="44.1634" lon="6.00955">
        <ele>608.62</ele>
        <time>2019-11-01T07:00:27Z</time>
      </trkpt>
      <trkpt lat="44.16346" lon="6.00978">
        <ele>609.413</ele>
        <time>2019-11-01T07:00:33Z</time>
      </trkpt>
      <trkpt lat="44.16353" lon="6.01">
        <ele>609.929</ele>
        <time>2019-11-01T07:00:38Z</time>
      </trkpt>
      <trkpt lat="44.16359" lon="6.01021">
        <ele>610.304</ele>
        <time>2019-11-01T07:00:44Z</time>
      </trkpt>
      <trkpt lat="44.16366" lon="6.01039">
        <ele>610.615</ele>
        <time>2019-11-01T07:00:49Z</time>
      </trkpt>
      <trkpt lat="44.16373" lon="6.01055">
        <ele>610.959</ele>
        <time>2019-11-01T07:00:54Z</time>
      </trkpt>
      <trkpt lat="44.16376" lon="6.01074">
        <ele>611.361</ele>
        <time>2019-11-01T07:00:59Z</time>
      </trkpt>
      <trkpt lat="44.16382" lon="6.01097">
        <ele>612.143</ele>
        <time>2019-11-01T07:01:05Z</time>
      </trkpt>
      <trkpt lat="44.16384" lon="6.01118">
        <ele>612.901</ele>
        <time>2019-11-01T07:01:11Z</time>
      </trkpt>
      <trkpt lat="44.1639" lon="6.01137">
        <ele>613.558</ele>
        <time>2019-11-01T07:01:17Z</time>
      </trkpt>
      <trkpt lat="44.16398" lon="6.01153">
        <ele>614.387</ele>
        <time>2019-11-01T07:01:23Z</time>
      </trkpt>
      <trkpt lat="44.16403" lon="6.01168">
        <ele>614.856</ele>
        <time>2019-11-01T07:01:28Z</time>
      </trkpt>
      <trkpt lat="44.16405" lon="6.01183">
        <ele>615.595</ele>
        <time>2019-11-01T07:01:33Z</time>
      </trkpt>
      <trkpt lat="44.16409" lon="6.01203">
        <ele>616.557</ele>
        <time>2019-11-01T07:01:39Z</time>
      </trkpt>
      <trkpt lat="44.16412" lon="6.01223">
        <ele>617.624</ele>
        <time>2019-11-01T07:01:44Z</time>
      </trkpt>
      <trkpt lat="44.16415" lon="6.01246">
        <ele>618.791</ele>
        <time>2019-11-01T07:01:50Z</time>
      </trkpt>
      <trkpt lat="44.16417" lon="6.0127">
        <ele>619.759</ele>
        <time>2019-11-01T07:01:56Z</time>
      </trkpt>
      <trkpt lat="44.16424" lon="6.01279">
        <ele>620.549</ele>
        <time>2019-11-01T07:02:01Z</time>
      </trkpt>
      <trkpt lat="44.16434" lon="6.01288">
        <ele>621.335</ele>
        <time>2019-11-01T07:02:06Z</time>
      </trkpt>
      <trkpt lat="44.16446" lon="6.013">
        <ele>621.732</ele>
        <time>2019-11-01T07:02:11Z</time>
      </trkpt>
      <trkpt lat="44.16456" lon="6.01311">
        <ele>622.236</ele>
        <time>2019-11-01T07:02:16Z</time>
      </trkpt>
      <trkpt lat="44.16465" lon="6.01327">
        <ele>622.842</ele>
        <time>2019-11-01T07:02:22Z</time>
      </trkpt>
      <trkpt lat="44.16471" lon="6.01336">
        <ele>623.708</ele>
        <time>2019-11-01T07:02:27Z</time>
      </trkpt>
      <trkpt lat="44.1648" lon="6.01356">
        <ele>624.917</ele>
        <time>2019-11-01T07:02:33Z</time>
      </trkpt>
      <trkpt lat="44.16484" lon="6.01371">
        <ele>625.643</ele>
        <time>2019-11-01T07:02:38Z</time>
      </trkpt>
      <trkpt lat="44.16487" lon="6.01384">
        <ele>626.404</ele>
        <time>2019-11-01T07:02:44Z</time>
      </trkpt>
      <trkpt lat="44.16492" lon="6.01401">
        <ele>627.294</ele>
        <time>2019-11-01T07:02:49Z</time>
      </trkpt>
      <trkpt lat="44.16498" lon="6.01416">
        <ele>628.13</ele>
        <time>2019-11-01T07:02:55Z</time>
      </trkpt>
      <trkpt lat="44.16504" lon="6.01428">
        <ele>629.135</ele>
        <time>2019-11-01T07:03:01Z</time>
      </trkpt>
      <trkpt lat="44.1651" lon="6.01429">
        <ele>630.001</ele>
        <time>2019-11-01T07:03:06Z</time>
      </trkpt>
      <trkpt lat="44.16518" lon="6.0143">
        <ele>630.998</ele>
        <time>2019-11-01T07:03:12Z</time>
      </trkpt>
      <trkpt lat="44.16528" lon="6.01433">
        <ele>631.929</ele>
        <time>2019-11-01T07:03:18Z</time>
      </trkpt>
      <trkpt lat="44.16535" lon="6.01435">
        <ele>632.726</ele>
        <time>2019-11-01T07:03:23Z</time>
      </trkpt>
      <trkpt lat="44.16546" lon="6.01438">
        <ele>633.758</ele>
        <time>2019-11-01T07:03:29Z</time>
      </trkpt>
      <trkpt lat="44.16555" lon="6.0145">
        <ele>634.416</ele>
        <time>2019-11-01T07:03:34Z</time>
      </trkpt>
      <trkpt lat="44.16563" lon="6.01461">
        <ele>635.156</ele>
        <time>2019-11-01T07:03:40Z</time>
      </trkpt>
      <trkpt lat="44.16568" lon="6.01468">
        <ele>636.039</ele>
        <time>2019-11-01T07:03:45Z</time>
      </trkpt>
      <trkpt lat="44.16574" lon="6.01476">
        <ele>637.429</ele>
        <time>2019-11-01T07:03:51Z</time>
      </trkpt>
      <trkpt lat="44.1658" lon="6.01487">
        <ele>638.665</ele>
        <time>2019-11-01T07:03:57Z</time>
      </trkpt>
      <trkpt lat="44.16586" lon="6.01495">
        <ele>639.484</ele>
        <time>2019-11-01T07:04:02Z</time>
      </trkpt>
      <trkpt lat="44.16593" lon="6.015">
        <ele>640.495</ele>
        <time>2019-11-01T07:04:08Z</time>
      </trkpt>
      <trkpt lat="44.16598" lon="6.01504">
        <ele>641.491</ele>
        <time>2019-11-01T07:04:13Z</time>
      </trkpt>
      <trkpt lat="44.16607" lon="6.01514">
        <ele>642.572</ele>
        <time>2019-11-01T07:04:19Z</time>
      </trkpt>
      <trkpt lat="44.16614" lon="6.01521">
        <ele>643.436</ele>
        <time>2019-11-01T07:04:25Z</time>
      </trkpt>
      <trkpt lat="44.16621" lon="6.0153">
        <ele>644.709</ele>
        <time>2019-11-01T07:04:31Z</time>
      </trkpt>
      <trkpt lat="44.16628" lon="6.01536">
        <ele>645.648</ele>
        <time>2019-11-01T07:04:36Z</time>
      </trkpt>
      <trkpt lat="44.16635" lon="6.01544">
        <ele>646.724</ele>
        <time>2019-11-01T07:04:42Z</time>
      </trkpt>
      <trkpt lat="44.16641" lon="6.01551">
        <ele>647.631</ele>
        <time>2019-11-01T07:04:48Z</time>
      </trkpt>
      <trkpt lat="44.16644" lon="6.01556">
        <ele>648.528</ele>
        <time>2019-11-01T07:04:53Z</time>
      </trkpt>
      <trkpt lat="44.16647" lon="6.0156">
        <ele>649.114</ele>
        <time>2019-11-01T07:04:58Z</time>
      </trkpt>
      <trkpt lat="44.16651" lon="6.01563">
        <ele>649.633</ele>
        <time>2019-11-01T07:05:03Z</time>
      </trkpt>
      <trkpt lat="44.1666" lon="6.01579">
        <ele>650.158</ele>
        <time>2019-11-01T07:05:08Z</time>
      </trkpt>
      <trkpt lat="44.16673" lon="6.01601">
        <ele>650.741</ele>
        <time>2019-11-01T07:05:14Z</time>
      </trkpt>
      <trkpt lat="44.16685" lon="6.016">
        <ele>650.59</ele>
        <time>2019-11-01T07:05:19Z</time>
      </trkpt>
      <trkpt lat="44.16696" lon="6.01598">
        <ele>650.333</ele>
        <time>2019-11-01T07:05:24Z</time>
      </trkpt>
      <trkpt lat="44.16711" lon="6.01598">
        <ele>649.951</ele>
        <time>2019-11-01T07:05:30Z</time>
      </trkpt>
      <trkpt lat="44.16725" lon="6.01593">
        <ele>649.903</ele>
        <time>2019-11-01T07:05:36Z</time>
      </trkpt>
      <trkpt lat="44.16742" lon="6.01594">
        <ele>649.568</ele>
        <time>2019-11-01T07:05:41Z</time>
      </trkpt>
      <trkpt lat="44.16771" lon="6.01603">
        <ele>648.83</ele>
        <time>2019-11-01T07:05:47Z</time>
      </trkpt>
      <trkpt lat="44.16785" lon="6.01599">
        <ele>648.111</ele>
        <time>2019-11-01T07:05:52Z</time>
      </trkpt>
      <trkpt lat="44.16788" lon="6.01585">
        <ele>648.093</ele>
        <time>2019-11-01T07:05:58Z</time>
      </trkpt>
      <trkpt lat="44.16796" lon="6.01586">
        <ele>647.863</ele>
        <time>2019-11-01T07:06:03Z</time>
      </trkpt>
      <trkpt lat="44.16801" lon="6.0159">
        <ele>647.905</ele>
        <time>2019-11-01T07:06:09Z</time>
      </trkpt>
      <trkpt lat="44.16804" lon="6.01591">
        <ele>648.063</ele>
        <time>2019-11-01T07:06:15Z</time>
      </trkpt>
      <trkpt lat="44.1681" lon="6.01592">
        <ele>648.454</ele>
        <time>2019-11-01T07:06:20Z</time>
      </trkpt>
      <trkpt lat="44.16815" lon="6.01593">
        <ele>649.305</ele>
        <time>2019-11-01T07:06:26Z</time>
      </trkpt>
      <trkpt lat="44.16821" lon="6.01596">
        <ele>649.889</ele>
        <time>2019-11-01T07:06:31Z</time>
      </trkpt>
      <trkpt lat="44.16831" lon="6.01604">
        <ele>650.563</ele>
        <time>2019-11-01T07:06:36Z</time>
      </trkpt>
      <trkpt lat="44.16836" lon="6.01618">
        <ele>651.429</ele>
        <time>2019-11-01T07:06:42Z</time>
      </trkpt>
      <trkpt lat="44.16842" lon="6.01634">
        <ele>652.043</ele>
        <time>2019-11-01T07:06:48Z</time>
      </trkpt>
      <trkpt lat="44.16853" lon="6.01641">
        <ele>652.831</ele>
        <time>2019-11-01T07:06:54Z</time>
      </trkpt>
      <trkpt lat="44.16866" lon="6.0164">
        <ele>653.34</ele>
        <time>2019-11-01T07:06:59Z</time>
      </trkpt>
      <trkpt lat="44.16878" lon="6.01642">
        <ele>653.839</ele>
        <time>2019-11-01T07:07:04Z</time>
      </trkpt>
      <trkpt lat="44.16892" lon="6.01646">
        <ele>654.547</ele>
        <time>2019-11-01T07:07:10Z</time>
      </trkpt>
      <trkpt lat="44.16902" lon="6.01647">
        <ele>654.891</ele>
        <time>2019-11-01T07:07:15Z</time>
      </trkpt>
      <trkpt lat="44.16915" lon="6.01649">
        <ele>655.237</ele>
        <time>2019-11-01T07:07:20Z</time>
      </trkpt>
      <trkpt lat="44.16934" lon="6.01648">
        <ele>656.083</ele>
        <time>2019-11-01T07:07:26Z</time>
      </trkpt>
      <trkpt lat="44.16953" lon="6.01638">
        <ele>656.723</ele>
        <time>2019-11-01T07:07:32Z</time>
      </trkpt>
      <trkpt lat="44.16971" lon="6.01632">
        <ele>656.959</ele>
        <time>2019-11-01T07:07:37Z</time>
      </trkpt>
      <trkpt lat="44.16984" lon="6.01638">
        <ele>657.117</ele>
        <time>2019-11-01T07:07:43Z</time>
      </trkpt>
      <trkpt lat="44.17" lon="6.01646">
        <ele>657.256</ele>
        <time>2019-11-01T07:07:49Z</time>
      </trkpt>
      <trkpt lat="44.17017" lon="6.01662">
        <ele>657.006</ele>
        <time>2019-11-01T07:07:54Z</time>
      </trkpt>
      <trkpt lat="44.17034" lon="6.01668">
        <ele>656.843</ele>
        <time>2019-11-01T07:07:59Z</time>
      </trkpt>
      <trkpt lat="44.17058" lon="6.01674">
        <ele>657.799</ele>
        <time>2019-11-01T07:08:05Z</time>
      </trkpt>
      <trkpt lat="44.17077" lon="6.01693">
        <ele>657.816</ele>
        <time>2019-11-01T07:08:10Z</time>
      </trkpt>
      <trkpt lat="44.17087" lon="6.01712">
        <ele>657.792</ele>
        <time>2019-11-01T07:08:16Z</time>
      </trkpt>
      <trkpt lat="44.17101" lon="6.01733">
        <ele>657.404</ele>
        <time>2019-11-01T07:08:21Z</time>
      </trkpt>
      <trkpt lat="44.17107" lon="6.01756">
        <ele>657.25</ele>
        <time>2019-11-01T07:08:27Z</time>
      </trkpt>
      <trkpt lat="44.17113" lon="6.01764">
        <ele>657.39</ele>
        <time>2019-11-01T07:08:32Z</time>
      </trkpt>
      <trkpt lat="44.17122" lon="6.01778">
        <ele>657.115</ele>
        <time>2019-11-01T07:08:38Z</time>
      </trkpt>
      <trkpt lat="44.1713" lon="6.0179">
        <ele>657.061</ele>
        <time>2019-11-01T07:08:43Z</time>
      </trkpt>
      <trkpt lat="44.17137" lon="6.01806">
        <ele>657.029</ele>
        <time>2019-11-01T07:08:48Z</time>
      </trkpt>
      <trkpt lat="44.17143" lon="6.0182">
        <ele>657.08</ele>
        <time>2019-11-01T07:08:53Z</time>
      </trkpt>
      <trkpt lat="44.1715" lon="6.01836">
        <ele>657.306</ele>
        <time>2019-11-01T07:08:59Z</time>
      </trkpt>
      <trkpt lat="44.17159" lon="6.01845">
        <ele>657.682</ele>
        <time>2019-11-01T07:09:04Z</time>
      </trkpt>
      <trkpt lat="44.17166" lon="6.0185">
        <ele>657.844</ele>
        <time>2019-11-01T07:09:10Z</time>
      </trkpt>
      <trkpt lat="44.17172" lon="6.01856">
        <ele>658.251</ele>
        <time>2019-11-01T07:09:16Z</time>
      </trkpt>
      <trkpt lat="44.17176" lon="6.01858">
        <ele>658.666</ele>
        <time>2019-11-01T07:09:22Z</time>
      </trkpt>
      <trkpt lat="44.17185" lon="6.01859">
        <ele>659.22</ele>
        <time>2019-11-01T07:09:27Z</time>
      </trkpt>
      <trkpt lat="44.172" lon="6.0185">
        <ele>659.71</ele>
        <time>2019-11-01T07:09:33Z</time>
      </trkpt>
      <trkpt lat="44.17215" lon="6.0184">
        <ele>660.062</ele>
        <time>2019-11-01T07:09:39Z</time>
      </trkpt>
      <trkpt lat="44.17231" lon="6.01839">
        <ele>660.255</ele>
        <time>2019-11-01T07:09:45Z</time>
      </trkpt>
      <trkpt lat="44.17247" lon="6.01844">
        <ele>660.309</ele>
        <time>2019-11-01T07:09:50Z</time>
      </trkpt>
      <trkpt lat="44.17263" lon="6.01847">
        <ele>660.461</ele>
        <time>2019-11-01T07:09:55Z</time>
      </trkpt>
      <trkpt lat="44.17282" lon="6.01857">
        <ele>660.591</ele>
        <time>2019-11-01T07:10:01Z</time>
      </trkpt>
      <trkpt lat="44.173" lon="6.01868">
        <ele>660.711</ele>
        <time>2019-11-01T07:10:07Z</time>
      </trkpt>
      <trkpt lat="44.17315" lon="6.01879">
        <ele>660.692</ele>
        <time>2019-11-01T07:10:12Z</time>
      </trkpt>
      <trkpt lat="44.17328" lon="6.01892">
        <ele>660.671</ele>
        <time>2019-11-01T07:10:18Z</time>
      </trkpt>
      <trkpt lat="44.17346" lon="6.01904">
        <ele>660.717</ele>
        <time>2019-11-01T07:10:24Z</time>
      </trkpt>
      <trkpt lat="44.17367" lon="6.01916">
        <ele>662.596</ele>
        <time>2019-11-01T07:10:29Z</time>
      </trkpt>
      <trkpt lat="44.17391" lon="6.0194">
        <ele>661.622</ele>
        <time>2019-11-01T07:10:34Z</time>
      </trkpt>
      <trkpt lat="44.17413" lon="6.01963">
        <ele>660.596</ele>
        <time>2019-11-01T07:10:40Z</time>
      </trkpt>
      <trkpt lat="44.17421" lon="6.01972">
        <ele>661.018</ele>
        <time>2019-11-01T07:10:46Z</time>
      </trkpt>
      <trkpt lat="44.1743" lon="6.01974">
        <ele>661.808</ele>
        <time>2019-11-01T07:10:51Z</time>
      </trkpt>
      <trkpt lat="44.17439" lon="6.01977">
        <ele>662.728</ele>
        <time>2019-11-01T07:10:56Z</time>
      </trkpt>
      <trkpt lat="44.17451" lon="6.01982">
        <ele>663.931</ele>
        <time>2019-11-01T07:11:02Z</time>
      </trkpt>
      <trkpt lat="44.17464" lon="6.01988">
        <ele>664.95</ele>
        <time>2019-11-01T07:11:08Z</time>
      </trkpt>
      <trkpt lat="44.17475" lon="6.01993">
        <ele>665.756</ele>
        <time>2019-11-01T07:11:13Z</time>
      </trkpt>
      <trkpt lat="44.17486" lon="6.02003">
        <ele>666.43</ele>
        <time>2019-11-01T07:11:18Z</time>
      </trkpt>
      <trkpt lat="44.17497" lon="6.02017">
        <ele>667.059</ele>
        <time>2019-11-01T07:11:24Z</time>
      </trkpt>
      <trkpt lat="44.17507" lon="6.02027">
        <ele>667.66</ele>
        <time>2019-11-01T07:11:30Z</time>
      </trkpt>
      <trkpt lat="44.17517" lon="6.02034">
        <ele>668.207</ele>
        <time>2019-11-01T07:11:35Z</time>
      </trkpt>
      <trkpt lat="44.17526" lon="6.02042">
        <ele>668.812</ele>
        <time>2019-11-01T07:11:40Z</time>
      </trkpt>
      <trkpt lat="44.17537" lon="6.02048">
        <ele>669.775</ele>
        <time>2019-11-01T07:11:46Z</time>
      </trkpt>
      <trkpt lat="44.1755" lon="6.02058">
        <ele>670.917</ele>
        <time>2019-11-01T07:11:52Z</time>
      </trkpt>
      <trkpt lat="44.17559" lon="6.02065">
        <ele>671.782</ele>
        <time>2019-11-01T07:11:57Z</time>
      </trkpt>
      <trkpt lat="44.17568" lon="6.02071">
        <ele>672.513</ele>
        <time>2019-11-01T07:12:02Z</time>
      </trkpt>
      <trkpt lat="44.17578" lon="6.02082">
        <ele>673.159</ele>
        <time>2019-11-01T07:12:08Z</time>
      </trkpt>
      <trkpt lat="44.17593" lon="6.0209">
        <ele>673.775</ele>
        <time>2019-11-01T07:12:14Z</time>
      </trkpt>
      <trkpt lat="44.17608" lon="6.02096">
        <ele>673.981</ele>
        <time>2019-11-01T07:12:20Z</time>
      </trkpt>
      <trkpt lat="44.17623" lon="6.02103">
        <ele>674.561</ele>
        <time>2019-11-01T07:12:26Z</time>
      </trkpt>
      <trkpt lat="44.17628" lon="6.02107">
        <ele>674.834</ele>
        <time>2019-11-01T07:12:32Z</time>
      </trkpt>
      <trkpt lat="44.17626" lon="6.02107">
        <ele>674.941</ele>
        <time>2019-11-01T07:12:37Z</time>
      </trkpt>
      <trkpt lat="44.17627" lon="6.02109">
        <ele>675.289</ele>
        <time>2019-11-01T07:12:43Z</time>
      </trkpt>
      <trkpt lat="44.17639" lon="6.02121">
        <ele>675.636</ele>
        <time>2019-11-01T07:12:48Z</time>
      </trkpt>
      <trkpt lat="44.17655" lon="6.02138">
        <ele>676.374</ele>
        <time>2019-11-01T07:12:53Z</time>
      </trkpt>
      <trkpt lat="44.17678" lon="6.0218">
        <ele>675.253</ele>
        <time>2019-11-01T07:12:59Z</time>
      </trkpt>
      <trkpt lat="44.17702" lon="6.0222">
        <ele>673.48</ele>
        <time>2019-11-01T07:13:05Z</time>
      </trkpt>
      <trkpt lat="44.17726" lon="6.02221">
        <ele>672.498</ele>
        <time>2019-11-01T07:13:11Z</time>
      </trkpt>
      <trkpt lat="44.17738" lon="6.02211">
        <ele>672.214</ele>
        <time>2019-11-01T07:13:16Z</time>
      </trkpt>
      <trkpt lat="44.17762" lon="6.02201">
        <ele>668.63</ele>
        <time>2019-11-01T07:13:22Z</time>
      </trkpt>
      <trkpt lat="44.17784" lon="6.02198">
        <ele>667.485</ele>
        <time>2019-11-01T07:13:27Z</time>
      </trkpt>
      <trkpt lat="44.17804" lon="6.02208">
        <ele>667.208</ele>
        <time>2019-11-01T07:13:33Z</time>
      </trkpt>
      <trkpt lat="44.17837" lon="6.0223">
        <ele>666.605</ele>
        <time>2019-11-01T07:13:39Z</time>
      </trkpt>
      <trkpt lat="44.17869" lon="6.02257">
        <ele>666.38</ele>
        <time>2019-11-01T07:13:44Z</time>
      </trkpt>
      <trkpt lat="44.17901" lon="6.02279">
        <ele>664.722</ele>
        <time>2019-11-01T07:13:50Z</time>
      </trkpt>
      <trkpt lat="44.17917" lon="6.02288">
        <ele>664.785</ele>
        <time>2019-11-01T07:13:55Z</time>
      </trkpt>
      <trkpt lat="44.17931" lon="6.02301">
        <ele>665.269</ele>
        <time>2019-11-01T07:14:01Z</time>
      </trkpt>
      <trkpt lat="44.17944" lon="6.02311">
        <ele>665.619</ele>
        <time>2019-11-01T07:14:06Z</time>
      </trkpt>
      <trkpt lat="44.17955" lon="6.02326">
        <ele>666.055</ele>
        <time>2019-11-01T07:14:11Z</time>
      </trkpt>
      <trkpt lat="44.17967" lon="6.02344">
        <ele>666.777</ele>
        <time>2019-11-01T07:14:17Z</time>
      </trkpt>
      <trkpt lat="44.17979" lon="6.02364">
        <ele>667.044</ele>
        <time>2019-11-01T07:14:23Z</time>
      </trkpt>
      <trkpt lat="44.17995" lon="6.02385">
        <ele>668.178</ele>
        <time>2019-11-01T07:14:29Z</time>
      </trkpt>
      <trkpt lat="44.18015" lon="6.02408">
        <ele>669.646</ele>
        <time>2019-11-01T07:14:35Z</time>
      </trkpt>
      <trkpt lat="44.18032" lon="6.02426">
        <ele>671.604</ele>
        <time>2019-11-01T07:14:40Z</time>
      </trkpt>
      <trkpt lat="44.1805" lon="6.02451">
        <ele>673.627</ele>
        <time>2019-11-01T07:14:46Z</time>
      </trkpt>
      <trkpt lat="44.1806" lon="6.02481">
        <ele>673.695</ele>
        <time>2019-11-01T07:14:52Z</time>
      </trkpt>
      <trkpt lat="44.18064" lon="6.02509">
        <ele>673.753</ele>
        <time>2019-11-01T07:14:57Z</time>
      </trkpt>
      <trkpt lat="44.18058" lon="6.02533">
        <ele>673.968</ele>
        <time>2019-11-01T07:15:02Z</time>
      </trkpt>
      <trkpt lat="44.18043" lon="6.02577">
        <ele>671.403</ele>
        <time>2019-11-01T07:15:08Z</time>
      </trkpt>
      <trkpt lat="44.18052" lon="6.0263">
        <ele>669.347</ele>
        <time>2019-11-01T07:15:14Z</time>
      </trkpt>
      <trkpt lat="44.18066" lon="6.02654">
        <ele>669.753</ele>
        <time>2019-11-01T07:15:20Z</time>
      </trkpt>
      <trkpt lat="44.18077" lon="6.02655">
        <ele>670.111</ele>
        <time>2019-11-01T07:15:25Z</time>
      </trkpt>
      <trkpt lat="44.1809" lon="6.02655">
        <ele>670.716</ele>
        <time>2019-11-01T07:15:31Z</time>
      </trkpt>
      <trkpt lat="44.18099" lon="6.0266">
        <ele>670.947</ele>
        <time>2019-11-01T07:15:36Z</time>
      </trkpt>
      <trkpt lat="44.18091" lon="6.02668">
        <ele>671.234</ele>
        <time>2019-11-01T07:15:42Z</time>
      </trkpt>
      <trkpt lat="44.18082" lon="6.02671">
        <ele>671.249</ele>
        <time>2019-11-01T07:15:47Z</time>
      </trkpt>
      <trkpt lat="44.18073" lon="6.02684">
        <ele>670.973</ele>
        <time>2019-11-01T07:15:53Z</time>
      </trkpt>
      <trkpt lat="44.18079" lon="6.02698">
        <ele>671.42</ele>
        <time>2019-11-01T07:15:59Z</time>
      </trkpt>
      <trkpt lat="44.18088" lon="6.02705">
        <ele>672.289</ele>
        <time>2019-11-01T07:16:04Z</time>
      </trkpt>
      <trkpt lat="44.181" lon="6.02718">
        <ele>673.316</ele>
        <time>2019-11-01T07:16:10Z</time>
      </trkpt>
      <trkpt lat="44.18108" lon="6.02735">
        <ele>673.979</ele>
        <time>2019-11-01T07:16:16Z</time>
      </trkpt>
      <trkpt lat="44.18114" lon="6.02754">
        <ele>674.508</ele>
        <time>2019-11-01T07:16:21Z</time>
      </trkpt>
      <trkpt lat="44.1812" lon="6.02769">
        <ele>675.021</ele>
        <time>2019-11-01T07:16:26Z</time>
      </trkpt>
      <trkpt lat="44.18127" lon="6.02784">
        <ele>675.531</ele>
        <time>2019-11-01T07:16:31Z</time>
      </trkpt>
      <trkpt lat="44.18131" lon="6.02804">
        <ele>676.051</ele>
        <time>2019-11-01T07:16:37Z</time>
      </trkpt>
      <trkpt lat="44.18129" lon="6.02827">
        <ele>676.809</ele>
        <time>2019-11-01T07:16:43Z</time>
      </trkpt>
      <trkpt lat="44.18121" lon="6.02845">
        <ele>677.396</ele>
        <time>2019-11-01T07:16:49Z</time>
      </trkpt>
      <trkpt lat="44.18111" lon="6.0286">
        <ele>678.013</ele>
        <time>2019-11-01T07:16:55Z</time>
      </trkpt>
      <trkpt lat="44.18104" lon="6.02878">
        <ele>678.922</ele>
        <time>2019-11-01T07:17:01Z</time>
      </trkpt>
      <trkpt lat="44.18117" lon="6.02889">
        <ele>679.855</ele>
        <time>2019-11-01T07:17:07Z</time>
      </trkpt>
      <trkpt lat="44.18128" lon="6.02894">
        <ele>680.506</ele>
        <time>2019-11-01T07:17:12Z</time>
      </trkpt>
      <trkpt lat="44.18141" lon="6.02908">
        <ele>681.164</ele>
        <time>2019-11-01T07:17:18Z</time>
      </trkpt>
      <trkpt lat="44.18152" lon="6.0292">
        <ele>681.961</ele>
        <time>2019-11-01T07:17:23Z</time>
      </trkpt>
      <trkpt lat="44.18163" lon="6.02933">
        <ele>683.032</ele>
        <time>2019-11-01T07:17:29Z</time>
      </trkpt>
      <trkpt lat="44.18173" lon="6.02952">
        <ele>684.117</ele>
        <time>2019-11-01T07:17:35Z</time>
      </trkpt>
      <trkpt lat="44.18175" lon="6.02968">
        <ele>684.714</ele>
        <time>2019-11-01T07:17:40Z</time>
      </trkpt>
      <trkpt lat="44.18176" lon="6.02984">
        <ele>685.245</ele>
        <time>2019-11-01T07:17:45Z</time>
      </trkpt>
      <trkpt lat="44.18187" lon="6.02994">
        <ele>686.196</ele>
        <time>2019-11-01T07:17:51Z</time>
      </trkpt>
      <trkpt lat="44.182" lon="6.02998">
        <ele>687.301</ele>
        <time>2019-11-01T07:17:57Z</time>
      </trkpt>
      <trkpt lat="44.18211" lon="6.03005">
        <ele>688.247</ele>
        <time>2019-11-01T07:18:02Z</time>
      </trkpt>
      <trkpt lat="44.18217" lon="6.03017">
        <ele>689.371</ele>
        <time>2019-11-01T07:18:07Z</time>
      </trkpt>
      <trkpt lat="44.18221" lon="6.0304">
        <ele>690.573</ele>
        <time>2019-11-01T07:18:13Z</time>
      </trkpt>
      <trkpt lat="44.18216" lon="6.03062">
        <ele>691.118</ele>
        <time>2019-11-01T07:18:19Z</time>
      </trkpt>
      <trkpt lat="44.18212" lon="6.03076">
        <ele>691.596</ele>
        <time>2019-11-01T07:18:24Z</time>
      </trkpt>
      <trkpt lat="44.18207" lon="6.03096">
        <ele>692.253</ele>
        <time>2019-11-01T07:18:29Z</time>
      </trkpt>
      <trkpt lat="44.18207" lon="6.03117">
        <ele>693.307</ele>
        <time>2019-11-01T07:18:35Z</time>
      </trkpt>
      <trkpt lat="44.18205" lon="6.03136">
        <ele>694.537</ele>
        <time>2019-11-01T07:18:41Z</time>
      </trkpt>
      <trkpt lat="44.18206" lon="6.03155">
        <ele>695.534</ele>
        <time>2019-11-01T07:18:46Z</time>
      </trkpt>
      <trkpt lat="44.18202" lon="6.03175">
        <ele>696.446</ele>
        <time>2019-11-01T07:18:52Z</time>
      </trkpt>
      <trkpt lat="44.18196" lon="6.03194">
        <ele>697.615</ele>
        <time>2019-11-01T07:18:58Z</time>
      </trkpt>
      <trkpt lat="44.18197" lon="6.03214">
        <ele>698.533</ele>
        <time>2019-11-01T07:19:04Z</time>
      </trkpt>
      <trkpt lat="44.18204" lon="6.03224">
        <ele>699.426</ele>
        <time>2019-11-01T07:19:09Z</time>
      </trkpt>
      <trkpt lat="44.18216" lon="6.0324">
        <ele>700.478</ele>
        <time>2019-11-01T07:19:15Z</time>
      </trkpt>
      <trkpt lat="44.1823" lon="6.03256">
        <ele>701.503</ele>
        <time>2019-11-01T07:19:21Z</time>
      </trkpt>
      <trkpt lat="44.18232" lon="6.03279">
        <ele>702.617</ele>
        <time>2019-11-01T07:19:27Z</time>
      </trkpt>
      <trkpt lat="44.18227" lon="6.03292">
        <ele>703.565</ele>
        <time>2019-11-01T07:19:32Z</time>
      </trkpt>
      <trkpt lat="44.18215" lon="6.03303">
        <ele>704.09</ele>
        <time>2019-11-01T07:19:38Z</time>
      </trkpt>
      <trkpt lat="44.1821" lon="6.03318">
        <ele>704.649</ele>
        <time>2019-11-01T07:19:43Z</time>
      </trkpt>
      <trkpt lat="44.18213" lon="6.03329">
        <ele>705.626</ele>
        <time>2019-11-01T07:19:49Z</time>
      </trkpt>
      <trkpt lat="44.18224" lon="6.03343">
        <ele>706.571</ele>
        <time>2019-11-01T07:19:55Z</time>
      </trkpt>
      <trkpt lat="44.18227" lon="6.03359">
        <ele>707.404</ele>
        <time>2019-11-01T07:20:00Z</time>
      </trkpt>
      <trkpt lat="44.18226" lon="6.0338">
        <ele>708.252</ele>
        <time>2019-11-01T07:20:06Z</time>
      </trkpt>
      <trkpt lat="44.18226" lon="6.03393">
        <ele>709.049</ele>
        <time>2019-11-01T07:20:11Z</time>
      </trkpt>
      <trkpt lat="44.18229" lon="6.0341">
        <ele>710.182</ele>
        <time>2019-11-01T07:20:16Z</time>
      </trkpt>
      <trkpt lat="44.18238" lon="6.03421">
        <ele>711.756</ele>
        <time>2019-11-01T07:20:22Z</time>
      </trkpt>
      <trkpt lat="44.18244" lon="6.03435">
        <ele>713.443</ele>
        <time>2019-11-01T07:20:27Z</time>
      </trkpt>
      <trkpt lat="44.18248" lon="6.03454">
        <ele>715.076</ele>
        <time>2019-11-01T07:20:33Z</time>
      </trkpt>
      <trkpt lat="44.18252" lon="6.03469">
        <ele>716.495</ele>
        <time>2019-11-01T07:20:38Z</time>
      </trkpt>
      <trkpt lat="44.18257" lon="6.03487">
        <ele>718.138</ele>
        <time>2019-11-01T07:20:44Z</time>
      </trkpt>
      <trkpt lat="44.18261" lon="6.03503">
        <ele>719.058</ele>
        <time>2019-11-01T07:20:49Z</time>
      </trkpt>
      <trkpt lat="44.18265" lon="6.03523">
        <ele>719.997</ele>
        <time>2019-11-01T07:20:55Z</time>
      </trkpt>
      <trkpt lat="44.18266" lon="6.03541">
        <ele>721.009</ele>
        <time>2019-11-01T07:21:01Z</time>
      </trkpt>
      <trkpt lat="44.18266" lon="6.03559">
        <ele>721.928</ele>
        <time>2019-11-01T07:21:07Z</time>
      </trkpt>
      <trkpt lat="44.18265" lon="6.03571">
        <ele>722.689</ele>
        <time>2019-11-01T07:21:12Z</time>
      </trkpt>
      <trkpt lat="44.18265" lon="6.03571">
        <ele>722.92</ele>
        <time>2019-11-01T07:21:17Z</time>
      </trkpt>
      <trkpt lat="44.18264" lon="6.03568">
        <ele>723.211</ele>
        <time>2019-11-01T07:21:22Z</time>
      </trkpt>
      <trkpt lat="44.18263" lon="6.0357">
        <ele>723.249</ele>
        <time>2019-11-01T07:21:28Z</time>
      </trkpt>
      <trkpt lat="44.18265" lon="6.03567">
        <ele>723.044</ele>
        <time>2019-11-01T07:21:33Z</time>
      </trkpt>
      <trkpt lat="44.18266" lon="6.03566">
        <ele>722.812</ele>
        <time>2019-11-01T07:21:38Z</time>
      </trkpt>
      <trkpt lat="44.18266" lon="6.03567">
        <ele>722.602</ele>
        <time>2019-11-01T07:21:44Z</time>
      </trkpt>
      <trkpt lat="44.18267" lon="6.03571">
        <ele>722.397</ele>
        <time>2019-11-01T07:21:50Z</time>
      </trkpt>
      <trkpt lat="44.18267" lon="6.03573">
        <ele>722.28</ele>
        <time>2019-11-01T07:21:55Z</time>
      </trkpt>
      <trkpt lat="44.18264" lon="6.03573">
        <ele>722.12</ele>
        <time>2019-11-01T07:22:01Z</time>
      </trkpt>
      <trkpt lat="44.18262" lon="6.03572">
        <ele>721.977</ele>
        <time>2019-11-01T07:22:06Z</time>
      </trkpt>
      <trkpt lat="44.18263" lon="6.03571">
        <ele>721.852</ele>
        <time>2019-11-01T07:22:12Z</time>
      </trkpt>
      <trkpt lat="44.18264" lon="6.03572">
        <ele>721.786</ele>
        <time>2019-11-01T07:22:17Z</time>
      </trkpt>
      <trkpt lat="44.18264" lon="6.03574">
        <ele>721.729</ele>
        <time>2019-11-01T07:22:23Z</time>
      </trkpt>
      <trkpt lat="44.18266" lon="6.03574">
        <ele>721.78</ele>
        <time>2019-11-01T07:22:28Z</time>
      </trkpt>
      <trkpt lat="44.18267" lon="6.03574">
        <ele>721.841</ele>
        <time>2019-11-01T07:22:34Z</time>
      </trkpt>
      <trkpt lat="44.18266" lon="6.03575">
        <ele>721.885</ele>
        <time>2019-11-01T07:22:40Z</time>
      </trkpt>
      <trkpt lat="44.18269" lon="6.03575">
        <ele>721.978</ele>
        <time>2019-11-01T07:22:45Z</time>
      </trkpt>
      <trkpt lat="44.18272" lon="6.03574">
        <ele>722.17</ele>
        <time>2019-11-01T07:22:51Z</time>
      </trkpt>
      <trkpt lat="44.18272" lon="6.03573">
        <ele>723.015</ele>
        <time>2019-11-01T07:22:57Z</time>
      </trkpt>
      <trkpt lat="44.1827" lon="6.03569">
        <ele>723.973</ele>
        <time>2019-11-01T07:23:02Z</time>
      </trkpt>
      <trkpt lat="44.18266" lon="6.03567">
        <ele>724.432</ele>
        <time>2019-11-01T07:23:08Z</time>
      </trkpt>
      <trkpt lat="44.18264" lon="6.03568">
        <ele>724.465</ele>
        <time>2019-11-01T07:23:13Z</time>
      </trkpt>
      <trkpt lat="44.18264" lon="6.03563">
        <ele>724.533</ele>
        <time>2019-11-01T07:23:19Z</time>
      </trkpt>
      <trkpt lat="44.18264" lon="6.03564">
        <ele>725.075</ele>
        <time>2019-11-01T07:23:25Z</time>
      </trkpt>
      <trkpt lat="44.18262" lon="6.03565">
        <ele>725.395</ele>
        <time>2019-11-01T07:23:31Z</time>
      </trkpt>
      <trkpt lat="44.18263" lon="6.03565">
        <ele>725.456</ele>
        <time>2019-11-01T07:23:36Z</time>
      </trkpt>
      <trkpt lat="44.18264" lon="6.03566">
        <ele>725.907</ele>
        <time>2019-11-01T07:23:42Z</time>
      </trkpt>
      <trkpt lat="44.18268" lon="6.0357">
        <ele>726.801</ele>
        <time>2019-11-01T07:23:48Z</time>
      </trkpt>
      <trkpt lat="44.1827" lon="6.0357">
        <ele>727.262</ele>
        <time>2019-11-01T07:23:54Z</time>
      </trkpt>
      <trkpt lat="44.18268" lon="6.0357">
        <ele>727.317</ele>
        <time>2019-11-01T07:23:59Z</time>
      </trkpt>
      <trkpt lat="44.18267" lon="6.0357">
        <ele>727.478</ele>
        <time>2019-11-01T07:24:05Z</time>
      </trkpt>
      <trkpt lat="44.18264" lon="6.03571">
        <ele>727.433</ele>
        <time>2019-11-01T07:24:10Z</time>
      </trkpt>
      <trkpt lat="44.18261" lon="6.03569">
        <ele>726.946</ele>
        <time>2019-11-01T07:24:15Z</time>
      </trkpt>
      <trkpt lat="44.18261" lon="6.03568">
        <ele>726.609</ele>
        <time>2019-11-01T07:24:21Z</time>
      </trkpt>
      <trkpt lat="44.18262" lon="6.03567">
        <ele>726.75</ele>
        <time>2019-11-01T07:24:26Z</time>
      </trkpt>
      <trkpt lat="44.18264" lon="6.03568">
        <ele>726.686</ele>
        <time>2019-11-01T07:24:32Z</time>
      </trkpt>
      <trkpt lat="44.18265" lon="6.03569">
        <ele>726.635</ele>
        <time>2019-11-01T07:24:37Z</time>
      </trkpt>
      <trkpt lat="44.18266" lon="6.03572">
        <ele>726.673</ele>
        <time>2019-11-01T07:24:42Z</time>
      </trkpt>
      <trkpt lat="44.18267" lon="6.03574">
        <ele>726.761</ele>
        <time>2019-11-01T07:24:47Z</time>
      </trkpt>
      <trkpt lat="44.18266" lon="6.03574">
        <ele>726.871</ele>
        <time>2019-11-01T07:24:53Z</time>
      </trkpt>
      <trkpt lat="44.18266" lon="6.03575">
        <ele>727.402</ele>
        <time>2019-11-01T07:24:58Z</time>
      </trkpt>
      <trkpt lat="44.18266" lon="6.03581">
        <ele>728.067</ele>
        <time>2019-11-01T07:25:03Z</time>
      </trkpt>
      <trkpt lat="44.1827" lon="6.03603">
        <ele>728.415</ele>
        <time>2019-11-01T07:25:09Z</time>
      </trkpt>
      <trkpt lat="44.18289" lon="6.03622">
        <ele>729.046</ele>
        <time>2019-11-01T07:25:15Z</time>
      </trkpt>
      <trkpt lat="44.18317" lon="6.03635">
        <ele>729.704</ele>
        <time>2019-11-01T07:25:20Z</time>
      </trkpt>
      <trkpt lat="44.18347" lon="6.0365">
        <ele>728.803</ele>
        <time>2019-11-01T07:25:25Z</time>
      </trkpt>
      <trkpt lat="44.18378" lon="6.0364">
        <ele>729.15</ele>
        <time>2019-11-01T07:25:30Z</time>
      </trkpt>
      <trkpt lat="44.18409" lon="6.03671">
        <ele>725.078</ele>
        <time>2019-11-01T07:25:36Z</time>
      </trkpt>
      <trkpt lat="44.18436" lon="6.03706">
        <ele>722.947</ele>
        <time>2019-11-01T07:25:41Z</time>
      </trkpt>
      <trkpt lat="44.18457" lon="6.03747">
        <ele>719.639</ele>
        <time>2019-11-01T07:25:46Z</time>
      </trkpt>
      <trkpt lat="44.18431" lon="6.03799">
        <ele>715.129</ele>
        <time>2019-11-01T07:25:52Z</time>
      </trkpt>
      <trkpt lat="44.18442" lon="6.03836">
        <ele>710.155</ele>
        <time>2019-11-01T07:25:57Z</time>
      </trkpt>
      <trkpt lat="44.18477" lon="6.03837">
        <ele>709.975</ele>
        <time>2019-11-01T07:26:02Z</time>
      </trkpt>
      <trkpt lat="44.18521" lon="6.03834">
        <ele>708.806</ele>
        <time>2019-11-01T07:26:08Z</time>
      </trkpt>
      <trkpt lat="44.18555" lon="6.03826">
        <ele>709.801</ele>
        <time>2019-11-01T07:26:13Z</time>
      </trkpt>
      <trkpt lat="44.18585" lon="6.03855">
        <ele>708.025</ele>
        <time>2019-11-01T07:26:19Z</time>
      </trkpt>
      <trkpt lat="44.18603" lon="6.03902">
        <ele>702.447</ele>
        <time>2019-11-01T07:26:25Z</time>
      </trkpt>
      <trkpt lat="44.18644" lon="6.03918">
        <ele>700.475</ele>
        <time>2019-11-01T07:26:31Z</time>
      </trkpt>
      <trkpt lat="44.18696" lon="6.03918">
        <ele>700.377</ele>
        <time>2019-11-01T07:26:37Z</time>
      </trkpt>
      <trkpt lat="44.18728" lon="6.03936">
        <ele>695.933</ele>
        <time>2019-11-01T07:26:42Z</time>
      </trkpt>
      <trkpt lat="44.18736" lon="6.03993">
        <ele>695.691</ele>
        <time>2019-11-01T07:26:48Z</time>
      </trkpt>
      <trkpt lat="44.1876" lon="6.04055">
        <ele>689.99</ele>
        <time>2019-11-01T07:26:54Z</time>
      </trkpt>
      <trkpt lat="44.18738" lon="6.04092">
        <ele>684.398</ele>
        <time>2019-11-01T07:26:59Z</time>
      </trkpt>
      <trkpt lat="44.18719" lon="6.04151">
        <ele>681.391</ele>
        <time>2019-11-01T07:27:05Z</time>
      </trkpt>
      <trkpt lat="44.18733" lon="6.04207">
        <ele>678.47</ele>
        <time>2019-11-01T07:27:10Z</time>
      </trkpt>
      <trkpt lat="44.18738" lon="6.04272">
        <ele>677.336</ele>
        <time>2019-11-01T07:27:16Z</time>
      </trkpt>
      <trkpt lat="44.18724" lon="6.04348">
        <ele>672.366</ele>
        <time>2019-11-01T07:27:22Z</time>
      </trkpt>
      <trkpt lat="44.18714" lon="6.04369">
        <ele>669.567</ele>
        <time>2019-11-01T07:27:27Z</time>
      </trkpt>
      <trkpt lat="44.18714" lon="6.04371">
        <ele>669.29</ele>
        <time>2019-11-01T07:27:32Z</time>
      </trkpt>
      <trkpt lat="44.18714" lon="6.04371">
        <ele>669.138</ele>
        <time>2019-11-01T07:27:38Z</time>
      </trkpt>
      <trkpt lat="44.18702" lon="6.04382">
        <ele>668.403</ele>
        <time>2019-11-01T07:27:44Z</time>
      </trkpt>
      <trkpt lat="44.18699" lon="6.04384">
        <ele>668.198</ele>
        <time>2019-11-01T07:27:49Z</time>
      </trkpt>
      <trkpt lat="44.18699" lon="6.04384">
        <ele>668.143</ele>
        <time>2019-11-01T07:27:54Z</time>
      </trkpt>
      <trkpt lat="44.18699" lon="6.04384">
        <ele>667.916</ele>
        <time>2019-11-01T07:28:00Z</time>
      </trkpt>
      <trkpt lat="44.18699" lon="6.04384">
        <ele>667.715</ele>
        <time>2019-11-01T07:28:05Z</time>
      </trkpt>
      <trkpt lat="44.18699" lon="6.04384">
        <ele>666.667</ele>
        <time>2019-11-01T07:28:11Z</time>
      </trkpt>
      <trkpt lat="44.18699" lon="6.04384">
        <ele>666.527</ele>
        <time>2019-11-01T07:28:16Z</time>
      </trkpt>
      <trkpt lat="44.18699" lon="6.04384">
        <ele>666.389</ele>
        <time>2019-11-01T07:28:22Z</time>
      </trkpt>
      <trkpt lat="44.18699" lon="6.04384">
        <ele>666.435</ele>
        <time>2019-11-01T07:28:27Z</time>
      </trkpt>
      <trkpt lat="44.18699" lon="6.04384">
        <ele>666.48</ele>
        <time>2019-11-01T07:28:32Z</time>
      </trkpt>
      <trkpt lat="44.18699" lon="6.04384">
        <ele>666.467</ele>
        <time>2019-11-01T07:28:38Z</time>
      </trkpt>
      <trkpt lat="44.18699" lon="6.04384">
        <ele>666.445</ele>
        <time>2019-11-01T07:28:43Z</time>
      </trkpt>
      <trkpt lat="44.18699" lon="6.04384">
        <ele>666.4</ele>
        <time>2019-11-01T07:28:48Z</time>
      </trkpt>
      <trkpt lat="44.18699" lon="6.04384">
        <ele>666.294</ele>
        <time>2019-11-01T07:28:54Z</time>
      </trkpt>
      <trkpt lat="44.18699" lon="6.04384">
        <ele>666.22</ele>
        <time>2019-11-01T07:28:59Z</time>
      </trkpt>
      <trkpt lat="44.18699" lon="6.04384">
        <ele>666.154</ele>
        <time>2019-11-01T07:29:05Z</time>
      </trkpt>
      <trkpt lat="44.18699" lon="6.04384">
        <ele>666.075</ele>
        <time>2019-11-01T07:29:11Z</time>
      </trkpt>
      <trkpt lat="44.18699" lon="6.04384">
        <ele>665.998</ele>
        <time>2019-11-01T07:29:16Z</time>
      </trkpt>
      <trkpt lat="44.18699" lon="6.04384">
        <ele>665.898</ele>
        <time>2019-11-01T07:29:22Z</time>
      </trkpt>
      <trkpt lat="44.18699" lon="6.04384">
        <ele>665.807</ele>
        <time>2019-11-01T07:29:27Z</time>
      </trkpt>
      <trkpt lat="44.18699" lon="6.04384">
        <ele>665.709</ele>
        <time>2019-11-01T07:29:33Z</time>
      </trkpt>
      <trkpt lat="44.18699" lon="6.04384">
        <ele>665.652</ele>
        <time>2019-11-01T07:29:38Z</time>
      </trkpt>
      <trkpt lat="44.18699" lon="6.04384">
        <ele>665.541</ele>
        <time>2019-11-01T07:29:44Z</time>
      </trkpt>
      <trkpt lat="44.18699" lon="6.04384">
        <ele>665.411</ele>
        <time>2019-11-01T07:29:49Z</time>
      </trkpt>
      <trkpt lat="44.18699" lon="6.04384">
        <ele>665.306</ele>
        <time>2019-11-01T07:29:55Z</time>
      </trkpt>
      <trkpt lat="44.18699" lon="6.04384">
        <ele>665.141</ele>
        <time>2019-11-01T07:30:01Z</time>
      </trkpt>
      <trkpt lat="44.18699" lon="6.04384">
        <ele>664.924</ele>
        <time>2019-11-01T07:30:07Z</time>
      </trkpt>
      <trkpt lat="44.18699" lon="6.04384">
        <ele>664.695</ele>
        <time>2019-11-01T07:30:12Z</time>
      </trkpt>
      <trkpt lat="44.18699" lon="6.04384">
        <ele>664.435</ele>
        <time>2019-11-01T07:30:18Z</time>
      </trkpt>
      <trkpt lat="44.18699" lon="6.04384">
        <ele>664.288</ele>
        <time>2019-11-01T07:30:24Z</time>
      </trkpt>
      <trkpt lat="44.18699" lon="6.04384">
        <ele>664.313</ele>
        <time>2019-11-01T07:30:30Z</time>
      </trkpt>
      <trkpt lat="44.18699" lon="6.04384">
        <ele>664.349</ele>
        <time>2019-11-01T07:30:36Z</time>
      </trkpt>
      <trkpt lat="44.18699" lon="6.04384">
        <ele>664.343</ele>
        <time>2019-11-01T07:30:41Z</time>
      </trkpt>
      <trkpt lat="44.18699" lon="6.04384">
        <ele>664.364</ele>
        <time>2019-11-01T07:30:46Z</time>
      </trkpt>
      <trkpt lat="44.18699" lon="6.04384">
        <ele>664.375</ele>
        <time>2019-11-01T07:30:51Z</time>
      </trkpt>
      <trkpt lat="44.18699" lon="6.04384">
        <ele>664.322</ele>
        <time>2019-11-01T07:30:57Z</time>
      </trkpt>
      <trkpt lat="44.18699" lon="6.04384">
        <ele>664.246</ele>
        <time>2019-11-01T07:31:03Z</time>
      </trkpt>
      <trkpt lat="44.18699" lon="6.04384">
        <ele>664.169</ele>
        <time>2019-11-01T07:31:08Z</time>
      </trkpt>
      <trkpt lat="44.18699" lon="6.04384">
        <ele>663.594</ele>
        <time>2019-11-01T07:31:14Z</time>
      </trkpt>
      <trkpt lat="44.18682" lon="6.04404">
        <ele>661.56</ele>
        <time>2019-11-01T07:31:20Z</time>
      </trkpt>
      <trkpt lat="44.18676" lon="6.04422">
        <ele>661.828</ele>
        <time>2019-11-01T07:31:25Z</time>
      </trkpt>
      <trkpt lat="44.18675" lon="6.0444">
        <ele>662.326</ele>
        <time>2019-11-01T07:31:31Z</time>
      </trkpt>
      <trkpt lat="44.18681" lon="6.04449">
        <ele>664.306</ele>
        <time>2019-11-01T07:31:37Z</time>
      </trkpt>
      <trkpt lat="44.1869" lon="6.04457">
        <ele>666.513</ele>
        <time>2019-11-01T07:31:42Z</time>
      </trkpt>
      <trkpt lat="44.18698" lon="6.04476">
        <ele>668.732</ele>
        <time>2019-11-01T07:31:48Z</time>
      </trkpt>
      <trkpt lat="44.18701" lon="6.04489">
        <ele>669.949</ele>
        <time>2019-11-01T07:31:53Z</time>
      </trkpt>
      <trkpt lat="44.18703" lon="6.04509">
        <ele>670.962</ele>
        <time>2019-11-01T07:31:59Z</time>
      </trkpt>
      <trkpt lat="44.18703" lon="6.04524">
        <ele>672.162</ele>
        <time>2019-11-01T07:32:04Z</time>
      </trkpt>
      <trkpt lat="44.18706" lon="6.04531">
        <ele>673.965</ele>
        <time>2019-11-01T07:32:10Z</time>
      </trkpt>
      <trkpt lat="44.18712" lon="6.04546">
        <ele>675.904</ele>
        <time>2019-11-01T07:32:16Z</time>
      </trkpt>
      <trkpt lat="44.18718" lon="6.04562">
        <ele>677.082</ele>
        <time>2019-11-01T07:32:22Z</time>
      </trkpt>
      <trkpt lat="44.18723" lon="6.0458">
        <ele>677.834</ele>
        <time>2019-11-01T07:32:28Z</time>
      </trkpt>
      <trkpt lat="44.1873" lon="6.04591">
        <ele>678.245</ele>
        <time>2019-11-01T07:32:33Z</time>
      </trkpt>
      <trkpt lat="44.1874" lon="6.04598">
        <ele>679.54</ele>
        <time>2019-11-01T07:32:39Z</time>
      </trkpt>
      <trkpt lat="44.18747" lon="6.04609">
        <ele>681.014</ele>
        <time>2019-11-01T07:32:45Z</time>
      </trkpt>
      <trkpt lat="44.18749" lon="6.04626">
        <ele>682.28</ele>
        <time>2019-11-01T07:32:51Z</time>
      </trkpt>
      <trkpt lat="44.18754" lon="6.04639">
        <ele>683.029</ele>
        <time>2019-11-01T07:32:56Z</time>
      </trkpt>
      <trkpt lat="44.18764" lon="6.04645">
        <ele>683.829</ele>
        <time>2019-11-01T07:33:02Z</time>
      </trkpt>
      <trkpt lat="44.18774" lon="6.04647">
        <ele>684.615</ele>
        <time>2019-11-01T07:33:07Z</time>
      </trkpt>
      <trkpt lat="44.18784" lon="6.0465">
        <ele>685.088</ele>
        <time>2019-11-01T07:33:13Z</time>
      </trkpt>
      <trkpt lat="44.18792" lon="6.04658">
        <ele>685.732</ele>
        <time>2019-11-01T07:33:18Z</time>
      </trkpt>
      <trkpt lat="44.18794" lon="6.04671">
        <ele>686.476</ele>
        <time>2019-11-01T07:33:23Z</time>
      </trkpt>
      <trkpt lat="44.18784" lon="6.04676">
        <ele>686.686</ele>
        <time>2019-11-01T07:33:29Z</time>
      </trkpt>
      <trkpt lat="44.18777" lon="6.04672">
        <ele>686.236</ele>
        <time>2019-11-01T07:33:34Z</time>
      </trkpt>
      <trkpt lat="44.18768" lon="6.04667">
        <ele>686.504</ele>
        <time>2019-11-01T07:33:39Z</time>
      </trkpt>
      <trkpt lat="44.18761" lon="6.04671">
        <ele>686.858</ele>
        <time>2019-11-01T07:33:45Z</time>
      </trkpt>
      <trkpt lat="44.18768" lon="6.04685">
        <ele>687.783</ele>
        <time>2019-11-01T07:33:51Z</time>
      </trkpt>
      <trkpt lat="44.18775" lon="6.0469">
        <ele>688.897</ele>
        <time>2019-11-01T07:33:57Z</time>
      </trkpt>
      <trkpt lat="44.18781" lon="6.04698">
        <ele>689.716</ele>
        <time>2019-11-01T07:34:02Z</time>
      </trkpt>
      <trkpt lat="44.18786" lon="6.04708">
        <ele>690.525</ele>
        <time>2019-11-01T07:34:08Z</time>
      </trkpt>
      <trkpt lat="44.18789" lon="6.04723">
        <ele>691.529</ele>
        <time>2019-11-01T07:34:13Z</time>
      </trkpt>
      <trkpt lat="44.18787" lon="6.04736">
        <ele>692.041</ele>
        <time>2019-11-01T07:34:19Z</time>
      </trkpt>
      <trkpt lat="44.18782" lon="6.04744">
        <ele>691.934</ele>
        <time>2019-11-01T07:34:24Z</time>
      </trkpt>
      <trkpt lat="44.18775" lon="6.04754">
        <ele>692.182</ele>
        <time>2019-11-01T07:34:30Z</time>
      </trkpt>
      <trkpt lat="44.18766" lon="6.04762">
        <ele>692.732</ele>
        <time>2019-11-01T07:34:35Z</time>
      </trkpt>
      <trkpt lat="44.18755" lon="6.04765">
        <ele>693.457</ele>
        <time>2019-11-01T07:34:41Z</time>
      </trkpt>
      <trkpt lat="44.18748" lon="6.04757">
        <ele>693.856</ele>
        <time>2019-11-01T07:34:46Z</time>
      </trkpt>
      <trkpt lat="44.18741" lon="6.04746">
        <ele>694.17</ele>
        <time>2019-11-01T07:34:52Z</time>
      </trkpt>
      <trkpt lat="44.18734" lon="6.04733">
        <ele>694.998</ele>
        <time>2019-11-01T07:34:58Z</time>
      </trkpt>
      <trkpt lat="44.18728" lon="6.04723">
        <ele>695.937</ele>
        <time>2019-11-01T07:35:03Z</time>
      </trkpt>
      <trkpt lat="44.18721" lon="6.04712">
        <ele>696.218</ele>
        <time>2019-11-01T07:35:08Z</time>
      </trkpt>
      <trkpt lat="44.18715" lon="6.04712">
        <ele>697.067</ele>
        <time>2019-11-01T07:35:13Z</time>
      </trkpt>
      <trkpt lat="44.18712" lon="6.04717">
        <ele>697.955</ele>
        <time>2019-11-01T07:35:19Z</time>
      </trkpt>
      <trkpt lat="44.18711" lon="6.04727">
        <ele>698.702</ele>
        <time>2019-11-01T07:35:24Z</time>
      </trkpt>
      <trkpt lat="44.1871" lon="6.04736">
        <ele>700.353</ele>
        <time>2019-11-01T07:35:30Z</time>
      </trkpt>
      <trkpt lat="44.18711" lon="6.04746">
        <ele>701.49</ele>
        <time>2019-11-01T07:35:35Z</time>
      </trkpt>
      <trkpt lat="44.18713" lon="6.04762">
        <ele>702.219</ele>
        <time>2019-11-01T07:35:41Z</time>
      </trkpt>
      <trkpt lat="44.18714" lon="6.04773">
        <ele>702.917</ele>
        <time>2019-11-01T07:35:46Z</time>
      </trkpt>
      <trkpt lat="44.18716" lon="6.04784">
        <ele>703.634</ele>
        <time>2019-11-01T07:35:52Z</time>
      </trkpt>
      <trkpt lat="44.18713" lon="6.04801">
        <ele>704.506</ele>
        <time>2019-11-01T07:35:58Z</time>
      </trkpt>
      <trkpt lat="44.18713" lon="6.04817">
        <ele>705.979</ele>
        <time>2019-11-01T07:36:04Z</time>
      </trkpt>
      <trkpt lat="44.18712" lon="6.04831">
        <ele>706.827</ele>
        <time>2019-11-01T07:36:10Z</time>
      </trkpt>
      <trkpt lat="44.1871" lon="6.04846">
        <ele>707.999</ele>
        <time>2019-11-01T07:36:16Z</time>
      </trkpt>
      <trkpt lat="44.18708" lon="6.04857">
        <ele>708.882</ele>
        <time>2019-11-01T07:36:21Z</time>
      </trkpt>
      <trkpt lat="44.18705" lon="6.04872">
        <ele>709.448</ele>
        <time>2019-11-01T07:36:27Z</time>
      </trkpt>
      <trkpt lat="44.18701" lon="6.04885">
        <ele>709.674</ele>
        <time>2019-11-01T07:36:32Z</time>
      </trkpt>
      <trkpt lat="44.18697" lon="6.049">
        <ele>709.995</ele>
        <time>2019-11-01T07:36:38Z</time>
      </trkpt>
      <trkpt lat="44.18695" lon="6.04916">
        <ele>710.964</ele>
        <time>2019-11-01T07:36:44Z</time>
      </trkpt>
      <trkpt lat="44.18695" lon="6.04924">
        <ele>711.839</ele>
        <time>2019-11-01T07:36:49Z</time>
      </trkpt>
      <trkpt lat="44.18691" lon="6.04937">
        <ele>712.719</ele>
        <time>2019-11-01T07:36:54Z</time>
      </trkpt>
      <trkpt lat="44.18687" lon="6.04952">
        <ele>713.528</ele>
        <time>2019-11-01T07:37:00Z</time>
      </trkpt>
      <trkpt lat="44.1868" lon="6.04966">
        <ele>714.47</ele>
        <time>2019-11-01T07:37:06Z</time>
      </trkpt>
      <trkpt lat="44.18672" lon="6.04976">
        <ele>715.058</ele>
        <time>2019-11-01T07:37:11Z</time>
      </trkpt>
      <trkpt lat="44.18664" lon="6.04987">
        <ele>715.808</ele>
        <time>2019-11-01T07:37:17Z</time>
      </trkpt>
      <trkpt lat="44.18652" lon="6.04998">
        <ele>715.938</ele>
        <time>2019-11-01T07:37:23Z</time>
      </trkpt>
      <trkpt lat="44.18641" lon="6.05004">
        <ele>716.176</ele>
        <time>2019-11-01T07:37:29Z</time>
      </trkpt>
      <trkpt lat="44.18631" lon="6.0501">
        <ele>716.504</ele>
        <time>2019-11-01T07:37:34Z</time>
      </trkpt>
      <trkpt lat="44.18623" lon="6.05015">
        <ele>717.279</ele>
        <time>2019-11-01T07:37:40Z</time>
      </trkpt>
      <trkpt lat="44.18612" lon="6.05019">
        <ele>718.191</ele>
        <time>2019-11-01T07:37:46Z</time>
      </trkpt>
      <trkpt lat="44.18603" lon="6.05024">
        <ele>719.171</ele>
        <time>2019-11-01T07:37:51Z</time>
      </trkpt>
      <trkpt lat="44.18594" lon="6.05029">
        <ele>720.239</ele>
        <time>2019-11-01T07:37:57Z</time>
      </trkpt>
      <trkpt lat="44.18584" lon="6.0504">
        <ele>721.216</ele>
        <time>2019-11-01T07:38:03Z</time>
      </trkpt>
      <trkpt lat="44.1858" lon="6.0505">
        <ele>721.941</ele>
        <time>2019-11-01T07:38:08Z</time>
      </trkpt>
      <trkpt lat="44.18576" lon="6.05062">
        <ele>722.558</ele>
        <time>2019-11-01T07:38:13Z</time>
      </trkpt>
      <trkpt lat="44.18573" lon="6.05077">
        <ele>723.434</ele>
        <time>2019-11-01T07:38:18Z</time>
      </trkpt>
      <trkpt lat="44.18572" lon="6.05092">
        <ele>724.054</ele>
        <time>2019-11-01T07:38:23Z</time>
      </trkpt>
      <trkpt lat="44.18568" lon="6.05103">
        <ele>724.955</ele>
        <time>2019-11-01T07:38:28Z</time>
      </trkpt>
      <trkpt lat="44.18559" lon="6.05109">
        <ele>726.081</ele>
        <time>2019-11-01T07:38:33Z</time>
      </trkpt>
      <trkpt lat="44.18552" lon="6.05101">
        <ele>727.207</ele>
        <time>2019-11-01T07:38:39Z</time>
      </trkpt>
      <trkpt lat="44.18554" lon="6.05086">
        <ele>728.044</ele>
        <time>2019-11-01T07:38:45Z</time>
      </trkpt>
      <trkpt lat="44.18557" lon="6.05074">
        <ele>729.232</ele>
        <time>2019-11-01T07:38:51Z</time>
      </trkpt>
      <trkpt lat="44.1856" lon="6.05056">
        <ele>730.547</ele>
        <time>2019-11-01T07:38:56Z</time>
      </trkpt>
      <trkpt lat="44.18556" lon="6.05038">
        <ele>731.728</ele>
        <time>2019-11-01T07:39:02Z</time>
      </trkpt>
      <trkpt lat="44.18552" lon="6.05034">
        <ele>732.412</ele>
        <time>2019-11-01T07:39:08Z</time>
      </trkpt>
      <trkpt lat="44.18551" lon="6.05043">
        <ele>732.96</ele>
        <time>2019-11-01T07:39:13Z</time>
      </trkpt>
      <trkpt lat="44.18549" lon="6.05057">
        <ele>733.902</ele>
        <time>2019-11-01T07:39:19Z</time>
      </trkpt>
      <trkpt lat="44.18548" lon="6.05069">
        <ele>735.166</ele>
        <time>2019-11-01T07:39:24Z</time>
      </trkpt>
      <trkpt lat="44.18543" lon="6.05082">
        <ele>736.428</ele>
        <time>2019-11-01T07:39:30Z</time>
      </trkpt>
      <trkpt lat="44.18539" lon="6.05093">
        <ele>737.415</ele>
        <time>2019-11-01T07:39:35Z</time>
      </trkpt>
      <trkpt lat="44.18537" lon="6.05108">
        <ele>738.47</ele>
        <time>2019-11-01T07:39:40Z</time>
      </trkpt>
      <trkpt lat="44.18535" lon="6.05121">
        <ele>739.456</ele>
        <time>2019-11-01T07:39:46Z</time>
      </trkpt>
      <trkpt lat="44.18533" lon="6.05132">
        <ele>740.157</ele>
        <time>2019-11-01T07:39:51Z</time>
      </trkpt>
      <trkpt lat="44.18528" lon="6.05143">
        <ele>740.909</ele>
        <time>2019-11-01T07:39:56Z</time>
      </trkpt>
      <trkpt lat="44.18523" lon="6.05161">
        <ele>741.597</ele>
        <time>2019-11-01T07:40:02Z</time>
      </trkpt>
      <trkpt lat="44.18515" lon="6.0517">
        <ele>741.72</ele>
        <time>2019-11-01T07:40:07Z</time>
      </trkpt>
      <trkpt lat="44.18503" lon="6.05174">
        <ele>741.962</ele>
        <time>2019-11-01T07:40:13Z</time>
      </trkpt>
      <trkpt lat="44.18488" lon="6.05173">
        <ele>742.011</ele>
        <time>2019-11-01T07:40:19Z</time>
      </trkpt>
      <trkpt lat="44.18479" lon="6.05173">
        <ele>742.458</ele>
        <time>2019-11-01T07:40:24Z</time>
      </trkpt>
      <trkpt lat="44.18469" lon="6.05176">
        <ele>743.215</ele>
        <time>2019-11-01T07:40:30Z</time>
      </trkpt>
      <trkpt lat="44.18458" lon="6.05182">
        <ele>743.789</ele>
        <time>2019-11-01T07:40:36Z</time>
      </trkpt>
      <trkpt lat="44.18446" lon="6.05183">
        <ele>744.284</ele>
        <time>2019-11-01T07:40:41Z</time>
      </trkpt>
      <trkpt lat="44.18432" lon="6.05182">
        <ele>744.372</ele>
        <time>2019-11-01T07:40:47Z</time>
      </trkpt>
      <trkpt lat="44.18422" lon="6.05189">
        <ele>744.187</ele>
        <time>2019-11-01T07:40:53Z</time>
      </trkpt>
      <trkpt lat="44.18419" lon="6.05194">
        <ele>744.408</ele>
        <time>2019-11-01T07:40:58Z</time>
      </trkpt>
      <trkpt lat="44.18421" lon="6.05198">
        <ele>745.326</ele>
        <time>2019-11-01T07:41:04Z</time>
      </trkpt>
      <trkpt lat="44.18419" lon="6.05202">
        <ele>746.147</ele>
        <time>2019-11-01T07:41:09Z</time>
      </trkpt>
      <trkpt lat="44.18419" lon="6.0521">
        <ele>746.476</ele>
        <time>2019-11-01T07:41:15Z</time>
      </trkpt>
      <trkpt lat="44.18424" lon="6.05219">
        <ele>746.819</ele>
        <time>2019-11-01T07:41:21Z</time>
      </trkpt>
      <trkpt lat="44.18426" lon="6.05223">
        <ele>747.51</ele>
        <time>2019-11-01T07:41:26Z</time>
      </trkpt>
      <trkpt lat="44.18425" lon="6.05222">
        <ele>747.602</ele>
        <time>2019-11-01T07:41:32Z</time>
      </trkpt>
      <trkpt lat="44.18425" lon="6.05223">
        <ele>747.609</ele>
        <time>2019-11-01T07:41:37Z</time>
      </trkpt>
      <trkpt lat="44.18425" lon="6.05223">
        <ele>747.613</ele>
        <time>2019-11-01T07:41:42Z</time>
      </trkpt>
      <trkpt lat="44.18424" lon="6.05224">
        <ele>747.688</ele>
        <time>2019-11-01T07:41:48Z</time>
      </trkpt>
      <trkpt lat="44.18422" lon="6.05224">
        <ele>747.795</ele>
        <time>2019-11-01T07:41:53Z</time>
      </trkpt>
      <trkpt lat="44.18423" lon="6.05221">
        <ele>747.898</ele>
        <time>2019-11-01T07:41:59Z</time>
      </trkpt>
      <trkpt lat="44.18425" lon="6.0522">
        <ele>747.832</ele>
        <time>2019-11-01T07:42:04Z</time>
      </trkpt>
      <trkpt lat="44.18425" lon="6.05222">
        <ele>747.851</ele>
        <time>2019-11-01T07:42:10Z</time>
      </trkpt>
      <trkpt lat="44.18425" lon="6.05222">
        <ele>747.844</ele>
        <time>2019-11-01T07:42:15Z</time>
      </trkpt>
      <trkpt lat="44.18425" lon="6.05223">
        <ele>747.984</ele>
        <time>2019-11-01T07:42:20Z</time>
      </trkpt>
      <trkpt lat="44.18425" lon="6.05221">
        <ele>748.045</ele>
        <time>2019-11-01T07:42:26Z</time>
      </trkpt>
      <trkpt lat="44.18424" lon="6.05222">
        <ele>748.054</ele>
        <time>2019-11-01T07:42:31Z</time>
      </trkpt>
      <trkpt lat="44.18425" lon="6.0522">
        <ele>748.283</ele>
        <time>2019-11-01T07:42:36Z</time>
      </trkpt>
      <trkpt lat="44.18423" lon="6.05216">
        <ele>748.556</ele>
        <time>2019-11-01T07:42:42Z</time>
      </trkpt>
      <trkpt lat="44.18421" lon="6.05212">
        <ele>748.396</ele>
        <time>2019-11-01T07:42:47Z</time>
      </trkpt>
      <trkpt lat="44.18422" lon="6.0521">
        <ele>748.357</ele>
        <time>2019-11-01T07:42:53Z</time>
      </trkpt>
      <trkpt lat="44.18421" lon="6.05206">
        <ele>748.398</ele>
        <time>2019-11-01T07:42:59Z</time>
      </trkpt>
      <trkpt lat="44.18421" lon="6.05204">
        <ele>748.434</ele>
        <time>2019-11-01T07:43:05Z</time>
      </trkpt>
      <trkpt lat="44.18419" lon="6.05209">
        <ele>748.398</ele>
        <time>2019-11-01T07:43:11Z</time>
      </trkpt>
      <trkpt lat="44.18419" lon="6.05211">
        <ele>748.358</ele>
        <time>2019-11-01T07:43:16Z</time>
      </trkpt>
      <trkpt lat="44.18421" lon="6.05211">
        <ele>748.34</ele>
        <time>2019-11-01T07:43:22Z</time>
      </trkpt>
      <trkpt lat="44.18422" lon="6.05211">
        <ele>748.352</ele>
        <time>2019-11-01T07:43:28Z</time>
      </trkpt>
      <trkpt lat="44.18422" lon="6.0521">
        <ele>748.57</ele>
        <time>2019-11-01T07:43:34Z</time>
      </trkpt>
      <trkpt lat="44.18422" lon="6.05211">
        <ele>748.62</ele>
        <time>2019-11-01T07:43:40Z</time>
      </trkpt>
      <trkpt lat="44.18422" lon="6.0521">
        <ele>748.675</ele>
        <time>2019-11-01T07:43:46Z</time>
      </trkpt>
      <trkpt lat="44.18421" lon="6.05211">
        <ele>748.709</ele>
        <time>2019-11-01T07:43:51Z</time>
      </trkpt>
      <trkpt lat="44.18421" lon="6.05211">
        <ele>748.722</ele>
        <time>2019-11-01T07:43:56Z</time>
      </trkpt>
      <trkpt lat="44.1842" lon="6.05211">
        <ele>748.723</ele>
        <time>2019-11-01T07:44:01Z</time>
      </trkpt>
      <trkpt lat="44.18421" lon="6.05211">
        <ele>748.736</ele>
        <time>2019-11-01T07:44:06Z</time>
      </trkpt>
      <trkpt lat="44.1842" lon="6.05212">
        <ele>748.734</ele>
        <time>2019-11-01T07:44:12Z</time>
      </trkpt>
      <trkpt lat="44.18418" lon="6.05214">
        <ele>748.704</ele>
        <time>2019-11-01T07:44:18Z</time>
      </trkpt>
      <trkpt lat="44.18417" lon="6.05216">
        <ele>748.665</ele>
        <time>2019-11-01T07:44:23Z</time>
      </trkpt>
      <trkpt lat="44.18417" lon="6.05216">
        <ele>748.615</ele>
        <time>2019-11-01T07:44:29Z</time>
      </trkpt>
      <trkpt lat="44.18417" lon="6.05216">
        <ele>748.564</ele>
        <time>2019-11-01T07:44:35Z</time>
      </trkpt>
      <trkpt lat="44.18416" lon="6.05216">
        <ele>748.522</ele>
        <time>2019-11-01T07:44:40Z</time>
      </trkpt>
      <trkpt lat="44.18415" lon="6.05217">
        <ele>748.466</ele>
        <time>2019-11-01T07:44:46Z</time>
      </trkpt>
      <trkpt lat="44.18415" lon="6.05218">
        <ele>748.413</ele>
        <time>2019-11-01T07:44:52Z</time>
      </trkpt>
      <trkpt lat="44.18415" lon="6.05219">
        <ele>748.358</ele>
        <time>2019-11-01T07:44:58Z</time>
      </trkpt>
      <trkpt lat="44.18416" lon="6.05217">
        <ele>748.324</ele>
        <time>2019-11-01T07:45:03Z</time>
      </trkpt>
      <trkpt lat="44.18418" lon="6.05215">
        <ele>748.324</ele>
        <time>2019-11-01T07:45:09Z</time>
      </trkpt>
      <trkpt lat="44.18421" lon="6.05213">
        <ele>748.338</ele>
        <time>2019-11-01T07:45:15Z</time>
      </trkpt>
      <trkpt lat="44.18421" lon="6.05213">
        <ele>748.343</ele>
        <time>2019-11-01T07:45:20Z</time>
      </trkpt>
      <trkpt lat="44.18419" lon="6.05214">
        <ele>748.326</ele>
        <time>2019-11-01T07:45:26Z</time>
      </trkpt>
      <trkpt lat="44.18417" lon="6.05216">
        <ele>748.301</ele>
        <time>2019-11-01T07:45:32Z</time>
      </trkpt>
      <trkpt lat="44.18416" lon="6.05216">
        <ele>748.288</ele>
        <time>2019-11-01T07:45:38Z</time>
      </trkpt>
      <trkpt lat="44.18418" lon="6.05214">
        <ele>748.283</ele>
        <time>2019-11-01T07:45:43Z</time>
      </trkpt>
      <trkpt lat="44.18419" lon="6.05214">
        <ele>748.271</ele>
        <time>2019-11-01T07:45:49Z</time>
      </trkpt>
      <trkpt lat="44.18417" lon="6.05215">
        <ele>748.252</ele>
        <time>2019-11-01T07:45:55Z</time>
      </trkpt>
      <trkpt lat="44.18417" lon="6.05215">
        <ele>748.258</ele>
        <time>2019-11-01T07:46:01Z</time>
      </trkpt>
      <trkpt lat="44.18419" lon="6.05214">
        <ele>748.261</ele>
        <time>2019-11-01T07:46:07Z</time>
      </trkpt>
      <trkpt lat="44.18421" lon="6.05214">
        <ele>748.247</ele>
        <time>2019-11-01T07:46:12Z</time>
      </trkpt>
      <trkpt lat="44.18424" lon="6.05213">
        <ele>748.182</ele>
        <time>2019-11-01T07:46:17Z</time>
      </trkpt>
      <trkpt lat="44.18426" lon="6.05211">
        <ele>748.094</ele>
        <time>2019-11-01T07:46:23Z</time>
      </trkpt>
      <trkpt lat="44.18425" lon="6.0521">
        <ele>748.047</ele>
        <time>2019-11-01T07:46:28Z</time>
      </trkpt>
      <trkpt lat="44.18424" lon="6.0521">
        <ele>748.035</ele>
        <time>2019-11-01T07:46:34Z</time>
      </trkpt>
      <trkpt lat="44.18423" lon="6.0521">
        <ele>748.036</ele>
        <time>2019-11-01T07:46:40Z</time>
      </trkpt>
      <trkpt lat="44.18423" lon="6.05211">
        <ele>748.019</ele>
        <time>2019-11-01T07:46:45Z</time>
      </trkpt>
      <trkpt lat="44.18421" lon="6.05211">
        <ele>748.014</ele>
        <time>2019-11-01T07:46:51Z</time>
      </trkpt>
      <trkpt lat="44.18419" lon="6.0521">
        <ele>748.053</ele>
        <time>2019-11-01T07:46:56Z</time>
      </trkpt>
      <trkpt lat="44.18418" lon="6.05211">
        <ele>748.111</ele>
        <time>2019-11-01T07:47:01Z</time>
      </trkpt>
      <trkpt lat="44.18416" lon="6.05211">
        <ele>748.187</ele>
        <time>2019-11-01T07:47:07Z</time>
      </trkpt>
      <trkpt lat="44.18416" lon="6.05211">
        <ele>748.248</ele>
        <time>2019-11-01T07:47:12Z</time>
      </trkpt>
      <trkpt lat="44.18417" lon="6.05212">
        <ele>748.277</ele>
        <time>2019-11-01T07:47:18Z</time>
      </trkpt>
      <trkpt lat="44.18421" lon="6.05212">
        <ele>748.249</ele>
        <time>2019-11-01T07:47:24Z</time>
      </trkpt>
      <trkpt lat="44.18421" lon="6.05212">
        <ele>748.284</ele>
        <time>2019-11-01T07:47:30Z</time>
      </trkpt>
      <trkpt lat="44.18421" lon="6.05212">
        <ele>748.35</ele>
        <time>2019-11-01T07:47:35Z</time>
      </trkpt>
      <trkpt lat="44.18421" lon="6.05212">
        <ele>748.37</ele>
        <time>2019-11-01T07:47:41Z</time>
      </trkpt>
      <trkpt lat="44.18421" lon="6.05212">
        <ele>748.329</ele>
        <time>2019-11-01T07:47:47Z</time>
      </trkpt>
      <trkpt lat="44.18421" lon="6.05212">
        <ele>748.314</ele>
        <time>2019-11-01T07:47:52Z</time>
      </trkpt>
      <trkpt lat="44.18421" lon="6.05212">
        <ele>748.324</ele>
        <time>2019-11-01T07:47:57Z</time>
      </trkpt>
      <trkpt lat="44.18421" lon="6.05212">
        <ele>748.333</ele>
        <time>2019-11-01T07:48:02Z</time>
      </trkpt>
      <trkpt lat="44.18421" lon="6.05212">
        <ele>748.332</ele>
        <time>2019-11-01T07:48:07Z</time>
      </trkpt>
      <trkpt lat="44.18421" lon="6.05212">
        <ele>748.337</ele>
        <time>2019-11-01T07:48:13Z</time>
      </trkpt>
      <trkpt lat="44.18421" lon="6.05212">
        <ele>748.335</ele>
        <time>2019-11-01T07:48:18Z</time>
      </trkpt>
      <trkpt lat="44.18421" lon="6.05212">
        <ele>748.337</ele>
        <time>2019-11-01T07:48:23Z</time>
      </trkpt>
      <trkpt lat="44.18421" lon="6.05212">
        <ele>748.326</ele>
        <time>2019-11-01T07:48:29Z</time>
      </trkpt>
      <trkpt lat="44.18421" lon="6.05212">
        <ele>748.286</ele>
        <time>2019-11-01T07:48:35Z</time>
      </trkpt>
      <trkpt lat="44.18421" lon="6.05212">
        <ele>748.267</ele>
        <time>2019-11-01T07:48:40Z</time>
      </trkpt>
      <trkpt lat="44.18421" lon="6.05212">
        <ele>748.247</ele>
        <time>2019-11-01T07:48:46Z</time>
      </trkpt>
      <trkpt lat="44.18421" lon="6.05212">
        <ele>748.206</ele>
        <time>2019-11-01T07:48:51Z</time>
      </trkpt>
      <trkpt lat="44.18421" lon="6.05212">
        <ele>748.108</ele>
        <time>2019-11-01T07:48:57Z</time>
      </trkpt>
      <trkpt lat="44.18421" lon="6.05212">
        <ele>748.044</ele>
        <time>2019-11-01T07:49:03Z</time>
      </trkpt>
      <trkpt lat="44.18421" lon="6.05212">
        <ele>747.994</ele>
        <time>2019-11-01T07:49:08Z</time>
      </trkpt>
      <trkpt lat="44.18421" lon="6.05212">
        <ele>747.925</ele>
        <time>2019-11-01T07:49:14Z</time>
      </trkpt>
      <trkpt lat="44.18421" lon="6.05212">
        <ele>747.88</ele>
        <time>2019-11-01T07:49:20Z</time>
      </trkpt>
      <trkpt lat="44.18421" lon="6.05212">
        <ele>747.904</ele>
        <time>2019-11-01T07:49:25Z</time>
      </trkpt>
      <trkpt lat="44.18421" lon="6.05212">
        <ele>747.921</ele>
        <time>2019-11-01T07:49:30Z</time>
      </trkpt>
      <trkpt lat="44.18421" lon="6.05212">
        <ele>747.931</ele>
        <time>2019-11-01T07:49:36Z</time>
      </trkpt>
      <trkpt lat="44.18421" lon="6.05212">
        <ele>747.939</ele>
        <time>2019-11-01T07:49:42Z</time>
      </trkpt>
      <trkpt lat="44.18421" lon="6.05212">
        <ele>747.918</ele>
        <time>2019-11-01T07:49:48Z</time>
      </trkpt>
      <trkpt lat="44.18421" lon="6.05212">
        <ele>747.849</ele>
        <time>2019-11-01T07:49:54Z</time>
      </trkpt>
      <trkpt lat="44.18422" lon="6.05222">
        <ele>748.024</ele>
        <time>2019-11-01T07:49:59Z</time>
      </trkpt>
      <trkpt lat="44.18424" lon="6.05229">
        <ele>748.067</ele>
        <time>2019-11-01T07:50:04Z</time>
      </trkpt>
      <trkpt lat="44.18425" lon="6.05237">
        <ele>747.94</ele>
        <time>2019-11-01T07:50:09Z</time>
      </trkpt>
      <trkpt lat="44.18426" lon="6.05248">
        <ele>747.97</ele>
        <time>2019-11-01T07:50:15Z</time>
      </trkpt>
      <trkpt lat="44.18426" lon="6.05258">
        <ele>748.652</ele>
        <time>2019-11-01T07:50:21Z</time>
      </trkpt>
      <trkpt lat="44.18426" lon="6.05263">
        <ele>749.162</ele>
        <time>2019-11-01T07:50:27Z</time>
      </trkpt>
      <trkpt lat="44.18426" lon="6.05267">
        <ele>749.526</ele>
        <time>2019-11-01T07:50:33Z</time>
      </trkpt>
      <trkpt lat="44.18428" lon="6.05275">
        <ele>750.03</ele>
        <time>2019-11-01T07:50:38Z</time>
      </trkpt>
      <trkpt lat="44.18428" lon="6.05284">
        <ele>750.144</ele>
        <time>2019-11-01T07:50:43Z</time>
      </trkpt>
      <trkpt lat="44.18433" lon="6.053">
        <ele>750.593</ele>
        <time>2019-11-01T07:50:48Z</time>
      </trkpt>
      <trkpt lat="44.18437" lon="6.05318">
        <ele>751.09</ele>
        <time>2019-11-01T07:50:54Z</time>
      </trkpt>
      <trkpt lat="44.18438" lon="6.05325">
        <ele>751.091</ele>
        <time>2019-11-01T07:51:00Z</time>
      </trkpt>
      <trkpt lat="44.18438" lon="6.05325">
        <ele>750.93</ele>
        <time>2019-11-01T07:51:06Z</time>
      </trkpt>
      <trkpt lat="44.18435" lon="6.05323">
        <ele>750.83</ele>
        <time>2019-11-01T07:51:11Z</time>
      </trkpt>
      <trkpt lat="44.18434" lon="6.05322">
        <ele>750.681</ele>
        <time>2019-11-01T07:51:17Z</time>
      </trkpt>
      <trkpt lat="44.18437" lon="6.05328">
        <ele>750.69</ele>
        <time>2019-11-01T07:51:22Z</time>
      </trkpt>
      <trkpt lat="44.18439" lon="6.05333">
        <ele>750.824</ele>
        <time>2019-11-01T07:51:27Z</time>
      </trkpt>
      <trkpt lat="44.1844" lon="6.05337">
        <ele>751.045</ele>
        <time>2019-11-01T07:51:32Z</time>
      </trkpt>
      <trkpt lat="44.1844" lon="6.05339">
        <ele>751.289</ele>
        <time>2019-11-01T07:51:37Z</time>
      </trkpt>
      <trkpt lat="44.1844" lon="6.05343">
        <ele>751.71</ele>
        <time>2019-11-01T07:51:43Z</time>
      </trkpt>
      <trkpt lat="44.18439" lon="6.05343">
        <ele>752.022</ele>
        <time>2019-11-01T07:51:48Z</time>
      </trkpt>
      <trkpt lat="44.18441" lon="6.05337">
        <ele>752.18</ele>
        <time>2019-11-01T07:51:53Z</time>
      </trkpt>
      <trkpt lat="44.18442" lon="6.05335">
        <ele>752.255</ele>
        <time>2019-11-01T07:51:59Z</time>
      </trkpt>
      <trkpt lat="44.18442" lon="6.05335">
        <ele>752.427</ele>
        <time>2019-11-01T07:52:04Z</time>
      </trkpt>
      <trkpt lat="44.18441" lon="6.05337">
        <ele>752.537</ele>
        <time>2019-11-01T07:52:10Z</time>
      </trkpt>
      <trkpt lat="44.18441" lon="6.05343">
        <ele>752.71</ele>
        <time>2019-11-01T07:52:15Z</time>
      </trkpt>
      <trkpt lat="44.18442" lon="6.05357">
        <ele>753.549</ele>
        <time>2019-11-01T07:52:21Z</time>
      </trkpt>
      <trkpt lat="44.18443" lon="6.05373">
        <ele>754.05</ele>
        <time>2019-11-01T07:52:26Z</time>
      </trkpt>
      <trkpt lat="44.18448" lon="6.05391">
        <ele>753.899</ele>
        <time>2019-11-01T07:52:32Z</time>
      </trkpt>
      <trkpt lat="44.18447" lon="6.05406">
        <ele>753.989</ele>
        <time>2019-11-01T07:52:37Z</time>
      </trkpt>
      <trkpt lat="44.18449" lon="6.05426">
        <ele>754.457</ele>
        <time>2019-11-01T07:52:43Z</time>
      </trkpt>
      <trkpt lat="44.18453" lon="6.05445">
        <ele>755.209</ele>
        <time>2019-11-01T07:52:48Z</time>
      </trkpt>
      <trkpt lat="44.1846" lon="6.05461">
        <ele>755.858</ele>
        <time>2019-11-01T07:52:53Z</time>
      </trkpt>
      <trkpt lat="44.18469" lon="6.05478">
        <ele>756.655</ele>
        <time>2019-11-01T07:52:59Z</time>
      </trkpt>
      <trkpt lat="44.18473" lon="6.05493">
        <ele>757.353</ele>
        <time>2019-11-01T07:53:04Z</time>
      </trkpt>
      <trkpt lat="44.18474" lon="6.05497">
        <ele>757.67</ele>
        <time>2019-11-01T07:53:09Z</time>
      </trkpt>
      <trkpt lat="44.18475" lon="6.05507">
        <ele>758.024</ele>
        <time>2019-11-01T07:53:14Z</time>
      </trkpt>
      <trkpt lat="44.18472" lon="6.05525">
        <ele>758.667</ele>
        <time>2019-11-01T07:53:20Z</time>
      </trkpt>
      <trkpt lat="44.18471" lon="6.05548">
        <ele>759.347</ele>
        <time>2019-11-01T07:53:26Z</time>
      </trkpt>
      <trkpt lat="44.18472" lon="6.05597">
        <ele>761.625</ele>
        <time>2019-11-01T07:53:32Z</time>
      </trkpt>
      <trkpt lat="44.18467" lon="6.05665">
        <ele>761.622</ele>
        <time>2019-11-01T07:53:38Z</time>
      </trkpt>
      <trkpt lat="44.18459" lon="6.05739">
        <ele>758.35</ele>
        <time>2019-11-01T07:53:44Z</time>
      </trkpt>
      <trkpt lat="44.18434" lon="6.05788">
        <ele>755.184</ele>
        <time>2019-11-01T07:53:49Z</time>
      </trkpt>
      <trkpt lat="44.18415" lon="6.05853">
        <ele>751.672</ele>
        <time>2019-11-01T07:53:55Z</time>
      </trkpt>
      <trkpt lat="44.18403" lon="6.05911">
        <ele>749.4</ele>
        <time>2019-11-01T07:54:00Z</time>
      </trkpt>
      <trkpt lat="44.18399" lon="6.05972">
        <ele>747.413</ele>
        <time>2019-11-01T07:54:06Z</time>
      </trkpt>
      <trkpt lat="44.18384" lon="6.05994">
        <ele>744.942</ele>
        <time>2019-11-01T07:54:11Z</time>
      </trkpt>
      <trkpt lat="44.18377" lon="6.06017">
        <ele>744.654</ele>
        <time>2019-11-01T07:54:17Z</time>
      </trkpt>
      <trkpt lat="44.18371" lon="6.06038">
        <ele>744.384</ele>
        <time>2019-11-01T07:54:23Z</time>
      </trkpt>
      <trkpt lat="44.18367" lon="6.0605">
        <ele>744.301</ele>
        <time>2019-11-01T07:54:28Z</time>
      </trkpt>
      <trkpt lat="44.18367" lon="6.0605">
        <ele>744.24</ele>
        <time>2019-11-01T07:54:33Z</time>
      </trkpt>
      <trkpt lat="44.18367" lon="6.0605">
        <ele>744.387</ele>
        <time>2019-11-01T07:54:38Z</time>
      </trkpt>
      <trkpt lat="44.18367" lon="6.0605">
        <ele>744.564</ele>
        <time>2019-11-01T07:54:44Z</time>
      </trkpt>
      <trkpt lat="44.18367" lon="6.0605">
        <ele>744.761</ele>
        <time>2019-11-01T07:54:49Z</time>
      </trkpt>
      <trkpt lat="44.18367" lon="6.0605">
        <ele>744.906</ele>
        <time>2019-11-01T07:54:54Z</time>
      </trkpt>
      <trkpt lat="44.18367" lon="6.0605">
        <ele>744.982</ele>
        <time>2019-11-01T07:54:59Z</time>
      </trkpt>
      <trkpt lat="44.18367" lon="6.0605">
        <ele>744.987</ele>
        <time>2019-11-01T07:55:05Z</time>
      </trkpt>
      <trkpt lat="44.18367" lon="6.0605">
        <ele>744.981</ele>
        <time>2019-11-01T07:55:11Z</time>
      </trkpt>
      <trkpt lat="44.18367" lon="6.0605">
        <ele>745.085</ele>
        <time>2019-11-01T07:55:17Z</time>
      </trkpt>
      <trkpt lat="44.18367" lon="6.0605">
        <ele>745.202</ele>
        <time>2019-11-01T07:55:23Z</time>
      </trkpt>
      <trkpt lat="44.18367" lon="6.0605">
        <ele>745.304</ele>
        <time>2019-11-01T07:55:29Z</time>
      </trkpt>
      <trkpt lat="44.18367" lon="6.0605">
        <ele>745.36</ele>
        <time>2019-11-01T07:55:34Z</time>
      </trkpt>
      <trkpt lat="44.18367" lon="6.0605">
        <ele>745.383</ele>
        <time>2019-11-01T07:55:40Z</time>
      </trkpt>
      <trkpt lat="44.18367" lon="6.0605">
        <ele>745.389</ele>
        <time>2019-11-01T07:55:45Z</time>
      </trkpt>
      <trkpt lat="44.18367" lon="6.0605">
        <ele>745.411</ele>
        <time>2019-11-01T07:55:51Z</time>
      </trkpt>
      <trkpt lat="44.18367" lon="6.0605">
        <ele>745.45</ele>
        <time>2019-11-01T07:55:57Z</time>
      </trkpt>
      <trkpt lat="44.18367" lon="6.0605">
        <ele>745.48</ele>
        <time>2019-11-01T07:56:02Z</time>
      </trkpt>
      <trkpt lat="44.18367" lon="6.0605">
        <ele>745.487</ele>
        <time>2019-11-01T07:56:08Z</time>
      </trkpt>
      <trkpt lat="44.18367" lon="6.0605">
        <ele>745.497</ele>
        <time>2019-11-01T07:56:14Z</time>
      </trkpt>
      <trkpt lat="44.18367" lon="6.0605">
        <ele>745.494</ele>
        <time>2019-11-01T07:56:20Z</time>
      </trkpt>
      <trkpt lat="44.18367" lon="6.0605">
        <ele>745.44</ele>
        <time>2019-11-01T07:56:25Z</time>
      </trkpt>
      <trkpt lat="44.18367" lon="6.0605">
        <ele>745.344</ele>
        <time>2019-11-01T07:56:31Z</time>
      </trkpt>
      <trkpt lat="44.18367" lon="6.0605">
        <ele>745.27</ele>
        <time>2019-11-01T07:56:36Z</time>
      </trkpt>
      <trkpt lat="44.18367" lon="6.0605">
        <ele>745.139</ele>
        <time>2019-11-01T07:56:42Z</time>
      </trkpt>
      <trkpt lat="44.18367" lon="6.0605">
        <ele>745.014</ele>
        <time>2019-11-01T07:56:48Z</time>
      </trkpt>
      <trkpt lat="44.18367" lon="6.0605">
        <ele>744.934</ele>
        <time>2019-11-01T07:56:53Z</time>
      </trkpt>
      <trkpt lat="44.18367" lon="6.0605">
        <ele>744.847</ele>
        <time>2019-11-01T07:56:59Z</time>
      </trkpt>
      <trkpt lat="44.18367" lon="6.0605">
        <ele>744.809</ele>
        <time>2019-11-01T07:57:05Z</time>
      </trkpt>
      <trkpt lat="44.18367" lon="6.0605">
        <ele>744.814</ele>
        <time>2019-11-01T07:57:11Z</time>
      </trkpt>
      <trkpt lat="44.18367" lon="6.0605">
        <ele>744.904</ele>
        <time>2019-11-01T07:57:16Z</time>
      </trkpt>
      <trkpt lat="44.18367" lon="6.0605">
        <ele>745.015</ele>
        <time>2019-11-01T07:57:21Z</time>
      </trkpt>
      <trkpt lat="44.18367" lon="6.0605">
        <ele>745.167</ele>
        <time>2019-11-01T07:57:27Z</time>
      </trkpt>
      <trkpt lat="44.18367" lon="6.0605">
        <ele>745.351</ele>
        <time>2019-11-01T07:57:32Z</time>
      </trkpt>
      <trkpt lat="44.18367" lon="6.0605">
        <ele>745.571</ele>
        <time>2019-11-01T07:57:38Z</time>
      </trkpt>
      <trkpt lat="44.18367" lon="6.0605">
        <ele>745.749</ele>
        <time>2019-11-01T07:57:43Z</time>
      </trkpt>
      <trkpt lat="44.18367" lon="6.0605">
        <ele>746.598</ele>
        <time>2019-11-01T07:57:48Z</time>
      </trkpt>
      <trkpt lat="44.1836" lon="6.06071">
        <ele>746.917</ele>
        <time>2019-11-01T07:57:54Z</time>
      </trkpt>
      <trkpt lat="44.18359" lon="6.0609">
        <ele>747.494</ele>
        <time>2019-11-01T07:57:59Z</time>
      </trkpt>
      <trkpt lat="44.18359" lon="6.06107">
        <ele>748.27</ele>
        <time>2019-11-01T07:58:04Z</time>
      </trkpt>
      <trkpt lat="44.18358" lon="6.06126">
        <ele>748.854</ele>
        <time>2019-11-01T07:58:09Z</time>
      </trkpt>
      <trkpt lat="44.18351" lon="6.06146">
        <ele>749.766</ele>
        <time>2019-11-01T07:58:15Z</time>
      </trkpt>
      <trkpt lat="44.18343" lon="6.06157">
        <ele>750.398</ele>
        <time>2019-11-01T07:58:20Z</time>
      </trkpt>
      <trkpt lat="44.18334" lon="6.06166">
        <ele>750.947</ele>
        <time>2019-11-01T07:58:25Z</time>
      </trkpt>
      <trkpt lat="44.18323" lon="6.06175">
        <ele>751.762</ele>
        <time>2019-11-01T07:58:31Z</time>
      </trkpt>
      <trkpt lat="44.18308" lon="6.06184">
        <ele>752.461</ele>
        <time>2019-11-01T07:58:37Z</time>
      </trkpt>
      <trkpt lat="44.18296" lon="6.0619">
        <ele>753.254</ele>
        <time>2019-11-01T07:58:43Z</time>
      </trkpt>
      <trkpt lat="44.18285" lon="6.06195">
        <ele>754.091</ele>
        <time>2019-11-01T07:58:49Z</time>
      </trkpt>
      <trkpt lat="44.18278" lon="6.06199">
        <ele>754.549</ele>
        <time>2019-11-01T07:58:54Z</time>
      </trkpt>
      <trkpt lat="44.18267" lon="6.06206">
        <ele>755.281</ele>
        <time>2019-11-01T07:59:00Z</time>
      </trkpt>
      <trkpt lat="44.18255" lon="6.06215">
        <ele>755.565</ele>
        <time>2019-11-01T07:59:06Z</time>
      </trkpt>
      <trkpt lat="44.18247" lon="6.06222">
        <ele>755.887</ele>
        <time>2019-11-01T07:59:11Z</time>
      </trkpt>
      <trkpt lat="44.18243" lon="6.06235">
        <ele>756.159</ele>
        <time>2019-11-01T07:59:16Z</time>
      </trkpt>
      <trkpt lat="44.18241" lon="6.06261">
        <ele>756.329</ele>
        <time>2019-11-01T07:59:22Z</time>
      </trkpt>
      <trkpt lat="44.18236" lon="6.06282">
        <ele>756.444</ele>
        <time>2019-11-01T07:59:28Z</time>
      </trkpt>
      <trkpt lat="44.18234" lon="6.06289">
        <ele>756.721</ele>
        <time>2019-11-01T07:59:33Z</time>
      </trkpt>
      <trkpt lat="44.18233" lon="6.06298">
        <ele>756.325</ele>
        <time>2019-11-01T07:59:38Z</time>
      </trkpt>
      <trkpt lat="44.18227" lon="6.06309">
        <ele>756.39</ele>
        <time>2019-11-01T07:59:43Z</time>
      </trkpt>
      <trkpt lat="44.18223" lon="6.06316">
        <ele>756.643</ele>
        <time>2019-11-01T07:59:49Z</time>
      </trkpt>
      <trkpt lat="44.18222" lon="6.0632">
        <ele>756.874</ele>
        <time>2019-11-01T07:59:55Z</time>
      </trkpt>
      <trkpt lat="44.1822" lon="6.06321">
        <ele>756.962</ele>
        <time>2019-11-01T08:00:00Z</time>
      </trkpt>
      <trkpt lat="44.18219" lon="6.06321">
        <ele>757.45</ele>
        <time>2019-11-01T08:00:05Z</time>
      </trkpt>
      <trkpt lat="44.18213" lon="6.06326">
        <ele>758.218</ele>
        <time>2019-11-01T08:00:10Z</time>
      </trkpt>
      <trkpt lat="44.18205" lon="6.06338">
        <ele>758.933</ele>
        <time>2019-11-01T08:00:16Z</time>
      </trkpt>
      <trkpt lat="44.18201" lon="6.0635">
        <ele>759.803</ele>
        <time>2019-11-01T08:00:22Z</time>
      </trkpt>
      <trkpt lat="44.18196" lon="6.06364">
        <ele>760.08</ele>
        <time>2019-11-01T08:00:28Z</time>
      </trkpt>
      <trkpt lat="44.18192" lon="6.06376">
        <ele>760.531</ele>
        <time>2019-11-01T08:00:33Z</time>
      </trkpt>
      <trkpt lat="44.18195" lon="6.06385">
        <ele>761.442</ele>
        <time>2019-11-01T08:00:39Z</time>
      </trkpt>
      <trkpt lat="44.182" lon="6.06384">
        <ele>761.874</ele>
        <time>2019-11-01T08:00:44Z</time>
      </trkpt>
      <trkpt lat="44.18205" lon="6.06376">
        <ele>762.249</ele>
        <time>2019-11-01T08:00:49Z</time>
      </trkpt>
      <trkpt lat="44.1821" lon="6.06367">
        <ele>763.029</ele>
        <time>2019-11-01T08:00:54Z</time>
      </trkpt>
      <trkpt lat="44.18212" lon="6.06363">
        <ele>764.188</ele>
        <time>2019-11-01T08:01:00Z</time>
      </trkpt>
      <trkpt lat="44.18213" lon="6.06362">
        <ele>764.559</ele>
        <time>2019-11-01T08:01:05Z</time>
      </trkpt>
      <trkpt lat="44.18212" lon="6.0636">
        <ele>766.052</ele>
        <time>2019-11-01T08:01:10Z</time>
      </trkpt>
      <trkpt lat="44.18214" lon="6.06359">
        <ele>766.223</ele>
        <time>2019-11-01T08:01:15Z</time>
      </trkpt>
      <trkpt lat="44.18214" lon="6.06361">
        <ele>766.432</ele>
        <time>2019-11-01T08:01:20Z</time>
      </trkpt>
      <trkpt lat="44.18214" lon="6.06362">
        <ele>766.922</ele>
        <time>2019-11-01T08:01:26Z</time>
      </trkpt>
      <trkpt lat="44.18213" lon="6.06362">
        <ele>767.612</ele>
        <time>2019-11-01T08:01:31Z</time>
      </trkpt>
      <trkpt lat="44.18213" lon="6.06362">
        <ele>767.624</ele>
        <time>2019-11-01T08:01:37Z</time>
      </trkpt>
      <trkpt lat="44.18215" lon="6.06362">
        <ele>767.987</ele>
        <time>2019-11-01T08:01:43Z</time>
      </trkpt>
      <trkpt lat="44.18222" lon="6.06359">
        <ele>768.62</ele>
        <time>2019-11-01T08:01:49Z</time>
      </trkpt>
      <trkpt lat="44.18229" lon="6.0636">
        <ele>769.261</ele>
        <time>2019-11-01T08:01:54Z</time>
      </trkpt>
      <trkpt lat="44.18239" lon="6.06372">
        <ele>770.092</ele>
        <time>2019-11-01T08:02:00Z</time>
      </trkpt>
      <trkpt lat="44.18245" lon="6.06384">
        <ele>770.597</ele>
        <time>2019-11-01T08:02:05Z</time>
      </trkpt>
      <trkpt lat="44.18248" lon="6.06401">
        <ele>770.967</ele>
        <time>2019-11-01T08:02:11Z</time>
      </trkpt>
      <trkpt lat="44.18248" lon="6.06415">
        <ele>771.098</ele>
        <time>2019-11-01T08:02:16Z</time>
      </trkpt>
      <trkpt lat="44.18246" lon="6.06426">
        <ele>771.257</ele>
        <time>2019-11-01T08:02:21Z</time>
      </trkpt>
      <trkpt lat="44.18244" lon="6.06438">
        <ele>771.985</ele>
        <time>2019-11-01T08:02:27Z</time>
      </trkpt>
      <trkpt lat="44.18241" lon="6.06452">
        <ele>773.351</ele>
        <time>2019-11-01T08:02:33Z</time>
      </trkpt>
      <trkpt lat="44.18244" lon="6.06464">
        <ele>774.689</ele>
        <time>2019-11-01T08:02:38Z</time>
      </trkpt>
      <trkpt lat="44.18248" lon="6.06472">
        <ele>775.943</ele>
        <time>2019-11-01T08:02:44Z</time>
      </trkpt>
      <trkpt lat="44.18254" lon="6.06474">
        <ele>776.905</ele>
        <time>2019-11-01T08:02:49Z</time>
      </trkpt>
      <trkpt lat="44.18264" lon="6.06479">
        <ele>778.106</ele>
        <time>2019-11-01T08:02:55Z</time>
      </trkpt>
      <trkpt lat="44.18275" lon="6.06487">
        <ele>779.113</ele>
        <time>2019-11-01T08:03:00Z</time>
      </trkpt>
      <trkpt lat="44.18275" lon="6.06492">
        <ele>780.169</ele>
        <time>2019-11-01T08:03:06Z</time>
      </trkpt>
      <trkpt lat="44.18269" lon="6.06492">
        <ele>781.049</ele>
        <time>2019-11-01T08:03:11Z</time>
      </trkpt>
      <trkpt lat="44.18259" lon="6.06494">
        <ele>781.98</ele>
        <time>2019-11-01T08:03:16Z</time>
      </trkpt>
      <trkpt lat="44.18248" lon="6.06501">
        <ele>783.184</ele>
        <time>2019-11-01T08:03:22Z</time>
      </trkpt>
      <trkpt lat="44.18241" lon="6.06512">
        <ele>784.199</ele>
        <time>2019-11-01T08:03:27Z</time>
      </trkpt>
      <trkpt lat="44.18238" lon="6.06521">
        <ele>785.362</ele>
        <time>2019-11-01T08:03:32Z</time>
      </trkpt>
      <trkpt lat="44.18234" lon="6.06533">
        <ele>786.531</ele>
        <time>2019-11-01T08:03:37Z</time>
      </trkpt>
      <trkpt lat="44.18228" lon="6.06544">
        <ele>787.726</ele>
        <time>2019-11-01T08:03:43Z</time>
      </trkpt>
      <trkpt lat="44.18224" lon="6.06554">
        <ele>788.444</ele>
        <time>2019-11-01T08:03:49Z</time>
      </trkpt>
      <trkpt lat="44.18218" lon="6.06565">
        <ele>789.3</ele>
        <time>2019-11-01T08:03:54Z</time>
      </trkpt>
      <trkpt lat="44.18213" lon="6.06574">
        <ele>789.892</ele>
        <time>2019-11-01T08:03:59Z</time>
      </trkpt>
      <trkpt lat="44.18205" lon="6.06585">
        <ele>790.772</ele>
        <time>2019-11-01T08:04:05Z</time>
      </trkpt>
      <trkpt lat="44.182" lon="6.06593">
        <ele>791.481</ele>
        <time>2019-11-01T08:04:10Z</time>
      </trkpt>
      <trkpt lat="44.18195" lon="6.06607">
        <ele>792.25</ele>
        <time>2019-11-01T08:04:16Z</time>
      </trkpt>
      <trkpt lat="44.1819" lon="6.06617">
        <ele>792.77</ele>
        <time>2019-11-01T08:04:22Z</time>
      </trkpt>
      <trkpt lat="44.18186" lon="6.0663">
        <ele>793.526</ele>
        <time>2019-11-01T08:04:28Z</time>
      </trkpt>
      <trkpt lat="44.18182" lon="6.06639">
        <ele>794.263</ele>
        <time>2019-11-01T08:04:33Z</time>
      </trkpt>
      <trkpt lat="44.18176" lon="6.0665">
        <ele>795.269</ele>
        <time>2019-11-01T08:04:39Z</time>
      </trkpt>
      <trkpt lat="44.18172" lon="6.0666">
        <ele>796.165</ele>
        <time>2019-11-01T08:04:44Z</time>
      </trkpt>
      <trkpt lat="44.18167" lon="6.06669">
        <ele>797.163</ele>
        <time>2019-11-01T08:04:49Z</time>
      </trkpt>
      <trkpt lat="44.18161" lon="6.06681">
        <ele>798.043</ele>
        <time>2019-11-01T08:04:55Z</time>
      </trkpt>
      <trkpt lat="44.18155" lon="6.06691">
        <ele>798.875</ele>
        <time>2019-11-01T08:05:01Z</time>
      </trkpt>
      <trkpt lat="44.18149" lon="6.06696">
        <ele>799.568</ele>
        <time>2019-11-01T08:05:07Z</time>
      </trkpt>
      <trkpt lat="44.18138" lon="6.06699">
        <ele>800.428</ele>
        <time>2019-11-01T08:05:13Z</time>
      </trkpt>
      <trkpt lat="44.18129" lon="6.06703">
        <ele>801.534</ele>
        <time>2019-11-01T08:05:19Z</time>
      </trkpt>
      <trkpt lat="44.18119" lon="6.06702">
        <ele>802.621</ele>
        <time>2019-11-01T08:05:24Z</time>
      </trkpt>
      <trkpt lat="44.18108" lon="6.06703">
        <ele>803.582</ele>
        <time>2019-11-01T08:05:29Z</time>
      </trkpt>
      <trkpt lat="44.18103" lon="6.0671">
        <ele>804.638</ele>
        <time>2019-11-01T08:05:35Z</time>
      </trkpt>
      <trkpt lat="44.181" lon="6.06725">
        <ele>805.617</ele>
        <time>2019-11-01T08:05:40Z</time>
      </trkpt>
      <trkpt lat="44.18099" lon="6.06741">
        <ele>806.134</ele>
        <time>2019-11-01T08:05:46Z</time>
      </trkpt>
      <trkpt lat="44.18101" lon="6.06748">
        <ele>806.35</ele>
        <time>2019-11-01T08:05:51Z</time>
      </trkpt>
      <trkpt lat="44.18102" lon="6.06757">
        <ele>806.679</ele>
        <time>2019-11-01T08:05:56Z</time>
      </trkpt>
      <trkpt lat="44.18102" lon="6.06772">
        <ele>807.499</ele>
        <time>2019-11-01T08:06:02Z</time>
      </trkpt>
      <trkpt lat="44.18105" lon="6.06782">
        <ele>807.852</ele>
        <time>2019-11-01T08:06:07Z</time>
      </trkpt>
      <trkpt lat="44.18109" lon="6.06795">
        <ele>808.612</ele>
        <time>2019-11-01T08:06:13Z</time>
      </trkpt>
      <trkpt lat="44.18113" lon="6.0681">
        <ele>809.775</ele>
        <time>2019-11-01T08:06:19Z</time>
      </trkpt>
      <trkpt lat="44.18116" lon="6.06827">
        <ele>811.063</ele>
        <time>2019-11-01T08:06:25Z</time>
      </trkpt>
      <trkpt lat="44.18116" lon="6.0684">
        <ele>812.032</ele>
        <time>2019-11-01T08:06:30Z</time>
      </trkpt>
      <trkpt lat="44.1811" lon="6.06844">
        <ele>812.895</ele>
        <time>2019-11-01T08:06:35Z</time>
      </trkpt>
      <trkpt lat="44.181" lon="6.06838">
        <ele>814.026</ele>
        <time>2019-11-01T08:06:41Z</time>
      </trkpt>
      <trkpt lat="44.18088" lon="6.06829">
        <ele>815.039</ele>
        <time>2019-11-01T08:06:46Z</time>
      </trkpt>
      <trkpt lat="44.18077" lon="6.06819">
        <ele>816.087</ele>
        <time>2019-11-01T08:06:52Z</time>
      </trkpt>
      <trkpt lat="44.1806" lon="6.0683">
        <ele>817.07</ele>
        <time>2019-11-01T08:06:58Z</time>
      </trkpt>
      <trkpt lat="44.1805" lon="6.06847">
        <ele>817.882</ele>
        <time>2019-11-01T08:07:04Z</time>
      </trkpt>
      <trkpt lat="44.18043" lon="6.06861">
        <ele>818.571</ele>
        <time>2019-11-01T08:07:09Z</time>
      </trkpt>
      <trkpt lat="44.18038" lon="6.06883">
        <ele>819.22</ele>
        <time>2019-11-01T08:07:15Z</time>
      </trkpt>
      <trkpt lat="44.18034" lon="6.0691">
        <ele>819.622</ele>
        <time>2019-11-01T08:07:21Z</time>
      </trkpt>
      <trkpt lat="44.18035" lon="6.06933">
        <ele>820.024</ele>
        <time>2019-11-01T08:07:27Z</time>
      </trkpt>
      <trkpt lat="44.18039" lon="6.06953">
        <ele>820.259</ele>
        <time>2019-11-01T08:07:32Z</time>
      </trkpt>
      <trkpt lat="44.18047" lon="6.06978">
        <ele>820.37</ele>
        <time>2019-11-01T08:07:38Z</time>
      </trkpt>
      <trkpt lat="44.18054" lon="6.06998">
        <ele>820.754</ele>
        <time>2019-11-01T08:07:43Z</time>
      </trkpt>
      <trkpt lat="44.18063" lon="6.07017">
        <ele>821.161</ele>
        <time>2019-11-01T08:07:49Z</time>
      </trkpt>
      <trkpt lat="44.1807" lon="6.07036">
        <ele>821.456</ele>
        <time>2019-11-01T08:07:54Z</time>
      </trkpt>
      <trkpt lat="44.18076" lon="6.07057">
        <ele>821.766</ele>
        <time>2019-11-01T08:08:00Z</time>
      </trkpt>
      <trkpt lat="44.18081" lon="6.07076">
        <ele>822.328</ele>
        <time>2019-11-01T08:08:06Z</time>
      </trkpt>
      <trkpt lat="44.18085" lon="6.07096">
        <ele>822.91</ele>
        <time>2019-11-01T08:08:12Z</time>
      </trkpt>
      <trkpt lat="44.18089" lon="6.0711">
        <ele>823.24</ele>
        <time>2019-11-01T08:08:18Z</time>
      </trkpt>
      <trkpt lat="44.18089" lon="6.07125">
        <ele>823.851</ele>
        <time>2019-11-01T08:08:24Z</time>
      </trkpt>
      <trkpt lat="44.18085" lon="6.07136">
        <ele>824.67</ele>
        <time>2019-11-01T08:08:29Z</time>
      </trkpt>
      <trkpt lat="44.1808" lon="6.07148">
        <ele>825.482</ele>
        <time>2019-11-01T08:08:34Z</time>
      </trkpt>
      <trkpt lat="44.18075" lon="6.07163">
        <ele>826.605</ele>
        <time>2019-11-01T08:08:40Z</time>
      </trkpt>
      <trkpt lat="44.18073" lon="6.07176">
        <ele>827.935</ele>
        <time>2019-11-01T08:08:46Z</time>
      </trkpt>
      <trkpt lat="44.18074" lon="6.07189">
        <ele>829.029</ele>
        <time>2019-11-01T08:08:52Z</time>
      </trkpt>
      <trkpt lat="44.18074" lon="6.07205">
        <ele>830.196</ele>
        <time>2019-11-01T08:08:58Z</time>
      </trkpt>
      <trkpt lat="44.18075" lon="6.07218">
        <ele>830.879</ele>
        <time>2019-11-01T08:09:03Z</time>
      </trkpt>
      <trkpt lat="44.18079" lon="6.07236">
        <ele>831.843</ele>
        <time>2019-11-01T08:09:09Z</time>
      </trkpt>
      <trkpt lat="44.18082" lon="6.07253">
        <ele>832.775</ele>
        <time>2019-11-01T08:09:15Z</time>
      </trkpt>
      <trkpt lat="44.18083" lon="6.07267">
        <ele>833.594</ele>
        <time>2019-11-01T08:09:21Z</time>
      </trkpt>
      <trkpt lat="44.18083" lon="6.07279">
        <ele>834.25</ele>
        <time>2019-11-01T08:09:26Z</time>
      </trkpt>
      <trkpt lat="44.18083" lon="6.07293">
        <ele>835.23</ele>
        <time>2019-11-01T08:09:32Z</time>
      </trkpt>
      <trkpt lat="44.18084" lon="6.07304">
        <ele>836.302</ele>
        <time>2019-11-01T08:09:38Z</time>
      </trkpt>
      <trkpt lat="44.18086" lon="6.07303">
        <ele>836.479</ele>
        <time>2019-11-01T08:09:43Z</time>
      </trkpt>
      <trkpt lat="44.18087" lon="6.07299">
        <ele>836.724</ele>
        <time>2019-11-01T08:09:49Z</time>
      </trkpt>
      <trkpt lat="44.18088" lon="6.07295">
        <ele>836.971</ele>
        <time>2019-11-01T08:09:55Z</time>
      </trkpt>
      <trkpt lat="44.18086" lon="6.07307">
        <ele>837.595</ele>
        <time>2019-11-01T08:10:00Z</time>
      </trkpt>
      <trkpt lat="44.18087" lon="6.07328">
        <ele>838.266</ele>
        <time>2019-11-01T08:10:06Z</time>
      </trkpt>
      <trkpt lat="44.18088" lon="6.07344">
        <ele>838.837</ele>
        <time>2019-11-01T08:10:12Z</time>
      </trkpt>
      <trkpt lat="44.18089" lon="6.07357">
        <ele>839.219</ele>
        <time>2019-11-01T08:10:18Z</time>
      </trkpt>
      <trkpt lat="44.1809" lon="6.0737">
        <ele>840.193</ele>
        <time>2019-11-01T08:10:24Z</time>
      </trkpt>
      <trkpt lat="44.18093" lon="6.07392">
        <ele>842.098</ele>
        <time>2019-11-01T08:10:30Z</time>
      </trkpt>
      <trkpt lat="44.18093" lon="6.07422">
        <ele>847.166</ele>
        <time>2019-11-01T08:10:36Z</time>
      </trkpt>
      <trkpt lat="44.18087" lon="6.07428">
        <ele>847.389</ele>
        <time>2019-11-01T08:10:41Z</time>
      </trkpt>
      <trkpt lat="44.18089" lon="6.07422">
        <ele>847.113</ele>
        <time>2019-11-01T08:10:47Z</time>
      </trkpt>
      <trkpt lat="44.18084" lon="6.07412">
        <ele>846.693</ele>
        <time>2019-11-01T08:10:52Z</time>
      </trkpt>
      <trkpt lat="44.18076" lon="6.07396">
        <ele>845.873</ele>
        <time>2019-11-01T08:10:58Z</time>
      </trkpt>
      <trkpt lat="44.18067" lon="6.07383">
        <ele>845.471</ele>
        <time>2019-11-01T08:11:03Z</time>
      </trkpt>
      <trkpt lat="44.18056" lon="6.07367">
        <ele>845.268</ele>
        <time>2019-11-01T08:11:09Z</time>
      </trkpt>
      <trkpt lat="44.18046" lon="6.07355">
        <ele>845.312</ele>
        <time>2019-11-01T08:11:14Z</time>
      </trkpt>
      <trkpt lat="44.18036" lon="6.07343">
        <ele>846.047</ele>
        <time>2019-11-01T08:11:20Z</time>
      </trkpt>
      <trkpt lat="44.18027" lon="6.07329">
        <ele>846.849</ele>
        <time>2019-11-01T08:11:26Z</time>
      </trkpt>
      <trkpt lat="44.18016" lon="6.07319">
        <ele>847.517</ele>
        <time>2019-11-01T08:11:32Z</time>
      </trkpt>
      <trkpt lat="44.18007" lon="6.07311">
        <ele>848.564</ele>
        <time>2019-11-01T08:11:37Z</time>
      </trkpt>
      <trkpt lat="44.17999" lon="6.07309">
        <ele>849.473</ele>
        <time>2019-11-01T08:11:43Z</time>
      </trkpt>
      <trkpt lat="44.17987" lon="6.07306">
        <ele>849.679</ele>
        <time>2019-11-01T08:11:49Z</time>
      </trkpt>
      <trkpt lat="44.17981" lon="6.07298">
        <ele>850.106</ele>
        <time>2019-11-01T08:11:54Z</time>
      </trkpt>
      <trkpt lat="44.17975" lon="6.07293">
        <ele>850.855</ele>
        <time>2019-11-01T08:12:00Z</time>
      </trkpt>
      <trkpt lat="44.17973" lon="6.0728">
        <ele>851.25</ele>
        <time>2019-11-01T08:12:06Z</time>
      </trkpt>
      <trkpt lat="44.17975" lon="6.07266">
        <ele>850.58</ele>
        <time>2019-11-01T08:12:12Z</time>
      </trkpt>
      <trkpt lat="44.17977" lon="6.07252">
        <ele>849.835</ele>
        <time>2019-11-01T08:12:18Z</time>
      </trkpt>
      <trkpt lat="44.17978" lon="6.07239">
        <ele>849.142</ele>
        <time>2019-11-01T08:12:23Z</time>
      </trkpt>
      <trkpt lat="44.1798" lon="6.07226">
        <ele>848.597</ele>
        <time>2019-11-01T08:12:28Z</time>
      </trkpt>
      <trkpt lat="44.17983" lon="6.07211">
        <ele>848.228</ele>
        <time>2019-11-01T08:12:34Z</time>
      </trkpt>
      <trkpt lat="44.17982" lon="6.07199">
        <ele>848.946</ele>
        <time>2019-11-01T08:12:39Z</time>
      </trkpt>
      <trkpt lat="44.17978" lon="6.07187">
        <ele>850.402</ele>
        <time>2019-11-01T08:12:45Z</time>
      </trkpt>
      <trkpt lat="44.17973" lon="6.07176">
        <ele>851.781</ele>
        <time>2019-11-01T08:12:51Z</time>
      </trkpt>
      <trkpt lat="44.1797" lon="6.07165">
        <ele>853.325</ele>
        <time>2019-11-01T08:12:56Z</time>
      </trkpt>
      <trkpt lat="44.17967" lon="6.07154">
        <ele>854.951</ele>
        <time>2019-11-01T08:13:02Z</time>
      </trkpt>
      <trkpt lat="44.17961" lon="6.07141">
        <ele>856.061</ele>
        <time>2019-11-01T08:13:08Z</time>
      </trkpt>
      <trkpt lat="44.17957" lon="6.07132">
        <ele>857.087</ele>
        <time>2019-11-01T08:13:13Z</time>
      </trkpt>
      <trkpt lat="44.17954" lon="6.07121">
        <ele>858.373</ele>
        <time>2019-11-01T08:13:18Z</time>
      </trkpt>
      <trkpt lat="44.17949" lon="6.07108">
        <ele>859.997</ele>
        <time>2019-11-01T08:13:24Z</time>
      </trkpt>
      <trkpt lat="44.17942" lon="6.07098">
        <ele>861.513</ele>
        <time>2019-11-01T08:13:30Z</time>
      </trkpt>
      <trkpt lat="44.17936" lon="6.07086">
        <ele>862.213</ele>
        <time>2019-11-01T08:13:36Z</time>
      </trkpt>
      <trkpt lat="44.17928" lon="6.0708">
        <ele>863.078</ele>
        <time>2019-11-01T08:13:41Z</time>
      </trkpt>
      <trkpt lat="44.17919" lon="6.07072">
        <ele>864.155</ele>
        <time>2019-11-01T08:13:47Z</time>
      </trkpt>
      <trkpt lat="44.17912" lon="6.07065">
        <ele>865.384</ele>
        <time>2019-11-01T08:13:53Z</time>
      </trkpt>
      <trkpt lat="44.17906" lon="6.07062">
        <ele>866.549</ele>
        <time>2019-11-01T08:13:58Z</time>
      </trkpt>
      <trkpt lat="44.17899" lon="6.07055">
        <ele>868.138</ele>
        <time>2019-11-01T08:14:04Z</time>
      </trkpt>
      <trkpt lat="44.17893" lon="6.07051">
        <ele>869.135</ele>
        <time>2019-11-01T08:14:09Z</time>
      </trkpt>
      <trkpt lat="44.17888" lon="6.07047">
        <ele>869.623</ele>
        <time>2019-11-01T08:14:14Z</time>
      </trkpt>
      <trkpt lat="44.17881" lon="6.07047">
        <ele>870.207</ele>
        <time>2019-11-01T08:14:20Z</time>
      </trkpt>
      <trkpt lat="44.17883" lon="6.07054">
        <ele>871.228</ele>
        <time>2019-11-01T08:14:25Z</time>
      </trkpt>
      <trkpt lat="44.17888" lon="6.07063">
        <ele>872.501</ele>
        <time>2019-11-01T08:14:31Z</time>
      </trkpt>
      <trkpt lat="44.17895" lon="6.07068">
        <ele>873.726</ele>
        <time>2019-11-01T08:14:36Z</time>
      </trkpt>
      <trkpt lat="44.179" lon="6.07077">
        <ele>875.667</ele>
        <time>2019-11-01T08:14:42Z</time>
      </trkpt>
      <trkpt lat="44.17905" lon="6.07085">
        <ele>877.063</ele>
        <time>2019-11-01T08:14:47Z</time>
      </trkpt>
      <trkpt lat="44.17912" lon="6.07096">
        <ele>878.304</ele>
        <time>2019-11-01T08:14:53Z</time>
      </trkpt>
      <trkpt lat="44.17914" lon="6.07108">
        <ele>879.432</ele>
        <time>2019-11-01T08:14:59Z</time>
      </trkpt>
      <trkpt lat="44.17912" lon="6.07122">
        <ele>880.592</ele>
        <time>2019-11-01T08:15:05Z</time>
      </trkpt>
      <trkpt lat="44.17909" lon="6.07134">
        <ele>881.803</ele>
        <time>2019-11-01T08:15:11Z</time>
      </trkpt>
      <trkpt lat="44.17903" lon="6.07148">
        <ele>882.937</ele>
        <time>2019-11-01T08:15:17Z</time>
      </trkpt>
      <trkpt lat="44.17896" lon="6.07157">
        <ele>884.122</ele>
        <time>2019-11-01T08:15:23Z</time>
      </trkpt>
      <trkpt lat="44.17891" lon="6.07165">
        <ele>885.508</ele>
        <time>2019-11-01T08:15:29Z</time>
      </trkpt>
      <trkpt lat="44.17892" lon="6.07177">
        <ele>886.806</ele>
        <time>2019-11-01T08:15:35Z</time>
      </trkpt>
      <trkpt lat="44.17892" lon="6.07187">
        <ele>887.825</ele>
        <time>2019-11-01T08:15:40Z</time>
      </trkpt>
      <trkpt lat="44.17892" lon="6.07196">
        <ele>888.839</ele>
        <time>2019-11-01T08:15:45Z</time>
      </trkpt>
      <trkpt lat="44.17891" lon="6.07206">
        <ele>890.207</ele>
        <time>2019-11-01T08:15:50Z</time>
      </trkpt>
      <trkpt lat="44.17892" lon="6.07221">
        <ele>891.602</ele>
        <time>2019-11-01T08:15:56Z</time>
      </trkpt>
      <trkpt lat="44.1789" lon="6.07234">
        <ele>892.745</ele>
        <time>2019-11-01T08:16:02Z</time>
      </trkpt>
      <trkpt lat="44.17888" lon="6.07251">
        <ele>893.93</ele>
        <time>2019-11-01T08:16:08Z</time>
      </trkpt>
      <trkpt lat="44.17889" lon="6.07264">
        <ele>894.771</ele>
        <time>2019-11-01T08:16:13Z</time>
      </trkpt>
      <trkpt lat="44.1789" lon="6.0728">
        <ele>895.666</ele>
        <time>2019-11-01T08:16:19Z</time>
      </trkpt>
      <trkpt lat="44.17879" lon="6.07297">
        <ele>896.473</ele>
        <time>2019-11-01T08:16:25Z</time>
      </trkpt>
      <trkpt lat="44.17871" lon="6.0729">
        <ele>897.343</ele>
        <time>2019-11-01T08:16:31Z</time>
      </trkpt>
      <trkpt lat="44.17867" lon="6.07278">
        <ele>898.129</ele>
        <time>2019-11-01T08:16:37Z</time>
      </trkpt>
      <trkpt lat="44.17865" lon="6.07266">
        <ele>898.799</ele>
        <time>2019-11-01T08:16:42Z</time>
      </trkpt>
      <trkpt lat="44.17864" lon="6.07254">
        <ele>899.605</ele>
        <time>2019-11-01T08:16:47Z</time>
      </trkpt>
      <trkpt lat="44.17861" lon="6.07235">
        <ele>900.297</ele>
        <time>2019-11-01T08:16:53Z</time>
      </trkpt>
      <trkpt lat="44.17854" lon="6.0722">
        <ele>901.056</ele>
        <time>2019-11-01T08:16:59Z</time>
      </trkpt>
      <trkpt lat="44.17845" lon="6.07207">
        <ele>902.194</ele>
        <time>2019-11-01T08:17:05Z</time>
      </trkpt>
      <trkpt lat="44.17836" lon="6.07195">
        <ele>903.99</ele>
        <time>2019-11-01T08:17:11Z</time>
      </trkpt>
      <trkpt lat="44.17827" lon="6.07183">
        <ele>906.044</ele>
        <time>2019-11-01T08:17:17Z</time>
      </trkpt>
      <trkpt lat="44.1782" lon="6.07176">
        <ele>907.531</ele>
        <time>2019-11-01T08:17:22Z</time>
      </trkpt>
      <trkpt lat="44.17813" lon="6.07175">
        <ele>908.697</ele>
        <time>2019-11-01T08:17:28Z</time>
      </trkpt>
      <trkpt lat="44.178" lon="6.07168">
        <ele>909.454</ele>
        <time>2019-11-01T08:17:34Z</time>
      </trkpt>
      <trkpt lat="44.17792" lon="6.07163">
        <ele>910.08</ele>
        <time>2019-11-01T08:17:40Z</time>
      </trkpt>
      <trkpt lat="44.1778" lon="6.07165">
        <ele>910.549</ele>
        <time>2019-11-01T08:17:45Z</time>
      </trkpt>
      <trkpt lat="44.17771" lon="6.07161">
        <ele>910.832</ele>
        <time>2019-11-01T08:17:51Z</time>
      </trkpt>
      <trkpt lat="44.1777" lon="6.07152">
        <ele>911.466</ele>
        <time>2019-11-01T08:17:56Z</time>
      </trkpt>
      <trkpt lat="44.17769" lon="6.07144">
        <ele>912.385</ele>
        <time>2019-11-01T08:18:01Z</time>
      </trkpt>
      <trkpt lat="44.17769" lon="6.07145">
        <ele>912.76</ele>
        <time>2019-11-01T08:18:07Z</time>
      </trkpt>
      <trkpt lat="44.17771" lon="6.07145">
        <ele>912.832</ele>
        <time>2019-11-01T08:18:12Z</time>
      </trkpt>
      <trkpt lat="44.17772" lon="6.07144">
        <ele>912.689</ele>
        <time>2019-11-01T08:18:18Z</time>
      </trkpt>
      <trkpt lat="44.17769" lon="6.07141">
        <ele>912.419</ele>
        <time>2019-11-01T08:18:24Z</time>
      </trkpt>
      <trkpt lat="44.17768" lon="6.07139">
        <ele>910.9</ele>
        <time>2019-11-01T08:18:30Z</time>
      </trkpt>
      <trkpt lat="44.17769" lon="6.07138">
        <ele>910.784</ele>
        <time>2019-11-01T08:18:36Z</time>
      </trkpt>
      <trkpt lat="44.17769" lon="6.07138">
        <ele>910.824</ele>
        <time>2019-11-01T08:18:42Z</time>
      </trkpt>
      <trkpt lat="44.17769" lon="6.07138">
        <ele>910.944</ele>
        <time>2019-11-01T08:18:48Z</time>
      </trkpt>
      <trkpt lat="44.17769" lon="6.07138">
        <ele>911.12</ele>
        <time>2019-11-01T08:18:54Z</time>
      </trkpt>
      <trkpt lat="44.17769" lon="6.07138">
        <ele>911.307</ele>
        <time>2019-11-01T08:19:00Z</time>
      </trkpt>
      <trkpt lat="44.17769" lon="6.07138">
        <ele>911.326</ele>
        <time>2019-11-01T08:19:06Z</time>
      </trkpt>
      <trkpt lat="44.17769" lon="6.07138">
        <ele>911.333</ele>
        <time>2019-11-01T08:19:11Z</time>
      </trkpt>
      <trkpt lat="44.17769" lon="6.07138">
        <ele>911.602</ele>
        <time>2019-11-01T08:19:16Z</time>
      </trkpt>
      <trkpt lat="44.17769" lon="6.07138">
        <ele>912.184</ele>
        <time>2019-11-01T08:19:22Z</time>
      </trkpt>
      <trkpt lat="44.17769" lon="6.07138">
        <ele>912.739</ele>
        <time>2019-11-01T08:19:28Z</time>
      </trkpt>
      <trkpt lat="44.17769" lon="6.07138">
        <ele>913.181</ele>
        <time>2019-11-01T08:19:33Z</time>
      </trkpt>
      <trkpt lat="44.17769" lon="6.07138">
        <ele>913.668</ele>
        <time>2019-11-01T08:19:39Z</time>
      </trkpt>
      <trkpt lat="44.17769" lon="6.07138">
        <ele>914.095</ele>
        <time>2019-11-01T08:19:45Z</time>
      </trkpt>
      <trkpt lat="44.1777" lon="6.07142">
        <ele>916.459</ele>
        <time>2019-11-01T08:19:50Z</time>
      </trkpt>
      <trkpt lat="44.17768" lon="6.07149">
        <ele>917.109</ele>
        <time>2019-11-01T08:19:56Z</time>
      </trkpt>
      <trkpt lat="44.1777" lon="6.0716">
        <ele>916.992</ele>
        <time>2019-11-01T08:20:01Z</time>
      </trkpt>
      <trkpt lat="44.17773" lon="6.07172">
        <ele>916.783</ele>
        <time>2019-11-01T08:20:06Z</time>
      </trkpt>
      <trkpt lat="44.17779" lon="6.07185">
        <ele>916.357</ele>
        <time>2019-11-01T08:20:11Z</time>
      </trkpt>
      <trkpt lat="44.17789" lon="6.07197">
        <ele>916.056</ele>
        <time>2019-11-01T08:20:17Z</time>
      </trkpt>
      <trkpt lat="44.17798" lon="6.07206">
        <ele>915.96</ele>
        <time>2019-11-01T08:20:22Z</time>
      </trkpt>
      <trkpt lat="44.17805" lon="6.07215">
        <ele>916.073</ele>
        <time>2019-11-01T08:20:27Z</time>
      </trkpt>
      <trkpt lat="44.17811" lon="6.07225">
        <ele>916.79</ele>
        <time>2019-11-01T08:20:33Z</time>
      </trkpt>
      <trkpt lat="44.17818" lon="6.07237">
        <ele>917.737</ele>
        <time>2019-11-01T08:20:38Z</time>
      </trkpt>
      <trkpt lat="44.17824" lon="6.07249">
        <ele>918.778</ele>
        <time>2019-11-01T08:20:43Z</time>
      </trkpt>
      <trkpt lat="44.17825" lon="6.07264">
        <ele>920.053</ele>
        <time>2019-11-01T08:20:49Z</time>
      </trkpt>
      <trkpt lat="44.17816" lon="6.07264">
        <ele>920.713</ele>
        <time>2019-11-01T08:20:55Z</time>
      </trkpt>
      <trkpt lat="44.17804" lon="6.07257">
        <ele>921.283</ele>
        <time>2019-11-01T08:21:01Z</time>
      </trkpt>
      <trkpt lat="44.17792" lon="6.07254">
        <ele>922.532</ele>
        <time>2019-11-01T08:21:07Z</time>
      </trkpt>
      <trkpt lat="44.1778" lon="6.07254">
        <ele>923.749</ele>
        <time>2019-11-01T08:21:12Z</time>
      </trkpt>
      <trkpt lat="44.17769" lon="6.07251">
        <ele>924.595</ele>
        <time>2019-11-01T08:21:18Z</time>
      </trkpt>
      <trkpt lat="44.17757" lon="6.07252">
        <ele>924.801</ele>
        <time>2019-11-01T08:21:23Z</time>
      </trkpt>
      <trkpt lat="44.17751" lon="6.07255">
        <ele>925.259</ele>
        <time>2019-11-01T08:21:29Z</time>
      </trkpt>
      <trkpt lat="44.17751" lon="6.07255">
        <ele>925.491</ele>
        <time>2019-11-01T08:21:35Z</time>
      </trkpt>
      <trkpt lat="44.17751" lon="6.07255">
        <ele>925.519</ele>
        <time>2019-11-01T08:21:40Z</time>
      </trkpt>
      <trkpt lat="44.17751" lon="6.07256">
        <ele>926.158</ele>
        <time>2019-11-01T08:21:46Z</time>
      </trkpt>
      <trkpt lat="44.17751" lon="6.07256">
        <ele>926.398</ele>
        <time>2019-11-01T08:21:52Z</time>
      </trkpt>
      <trkpt lat="44.17751" lon="6.07256">
        <ele>926.465</ele>
        <time>2019-11-01T08:21:57Z</time>
      </trkpt>
      <trkpt lat="44.17751" lon="6.07256">
        <ele>926.625</ele>
        <time>2019-11-01T08:22:03Z</time>
      </trkpt>
      <trkpt lat="44.17751" lon="6.07256">
        <ele>926.612</ele>
        <time>2019-11-01T08:22:08Z</time>
      </trkpt>
      <trkpt lat="44.17751" lon="6.07256">
        <ele>926.607</ele>
        <time>2019-11-01T08:22:13Z</time>
      </trkpt>
      <trkpt lat="44.17751" lon="6.07256">
        <ele>926.654</ele>
        <time>2019-11-01T08:22:19Z</time>
      </trkpt>
      <trkpt lat="44.17751" lon="6.07256">
        <ele>926.753</ele>
        <time>2019-11-01T08:22:25Z</time>
      </trkpt>
      <trkpt lat="44.17751" lon="6.07256">
        <ele>926.821</ele>
        <time>2019-11-01T08:22:30Z</time>
      </trkpt>
      <trkpt lat="44.17751" lon="6.07256">
        <ele>927.069</ele>
        <time>2019-11-01T08:22:36Z</time>
      </trkpt>
      <trkpt lat="44.17751" lon="6.07256">
        <ele>927.143</ele>
        <time>2019-11-01T08:22:42Z</time>
      </trkpt>
      <trkpt lat="44.17752" lon="6.07256">
        <ele>927.147</ele>
        <time>2019-11-01T08:22:48Z</time>
      </trkpt>
      <trkpt lat="44.17752" lon="6.07256">
        <ele>927.12</ele>
        <time>2019-11-01T08:22:53Z</time>
      </trkpt>
      <trkpt lat="44.17752" lon="6.07256">
        <ele>927.065</ele>
        <time>2019-11-01T08:22:59Z</time>
      </trkpt>
      <trkpt lat="44.17749" lon="6.07259">
        <ele>927.751</ele>
        <time>2019-11-01T08:23:05Z</time>
      </trkpt>
      <trkpt lat="44.17737" lon="6.07268">
        <ele>928.285</ele>
        <time>2019-11-01T08:23:10Z</time>
      </trkpt>
      <trkpt lat="44.17709" lon="6.07284">
        <ele>930.513</ele>
        <time>2019-11-01T08:23:16Z</time>
      </trkpt>
      <trkpt lat="44.1768" lon="6.07307">
        <ele>930.636</ele>
        <time>2019-11-01T08:23:21Z</time>
      </trkpt>
      <trkpt lat="44.1767" lon="6.07358">
        <ele>921.06</ele>
        <time>2019-11-01T08:23:27Z</time>
      </trkpt>
      <trkpt lat="44.17644" lon="6.07413">
        <ele>915.637</ele>
        <time>2019-11-01T08:23:33Z</time>
      </trkpt>
      <trkpt lat="44.17601" lon="6.07453">
        <ele>908.968</ele>
        <time>2019-11-01T08:23:39Z</time>
      </trkpt>
      <trkpt lat="44.1758" lon="6.07489">
        <ele>907.178</ele>
        <time>2019-11-01T08:23:45Z</time>
      </trkpt>
      <trkpt lat="44.17579" lon="6.0749">
        <ele>907.045</ele>
        <time>2019-11-01T08:23:50Z</time>
      </trkpt>
      <trkpt lat="44.17579" lon="6.0749">
        <ele>907.135</ele>
        <time>2019-11-01T08:23:56Z</time>
      </trkpt>
      <trkpt lat="44.17579" lon="6.0749">
        <ele>907.225</ele>
        <time>2019-11-01T08:24:02Z</time>
      </trkpt>
      <trkpt lat="44.17579" lon="6.0749">
        <ele>907.867</ele>
        <time>2019-11-01T08:24:07Z</time>
      </trkpt>
      <trkpt lat="44.17579" lon="6.0749">
        <ele>909.347</ele>
        <time>2019-11-01T08:24:12Z</time>
      </trkpt>
      <trkpt lat="44.17579" lon="6.0749">
        <ele>910.047</ele>
        <time>2019-11-01T08:24:18Z</time>
      </trkpt>
      <trkpt lat="44.17579" lon="6.0749">
        <ele>910.251</ele>
        <time>2019-11-01T08:24:24Z</time>
      </trkpt>
      <trkpt lat="44.17579" lon="6.0749">
        <ele>910.448</ele>
        <time>2019-11-01T08:24:29Z</time>
      </trkpt>
      <trkpt lat="44.17579" lon="6.0749">
        <ele>910.587</ele>
        <time>2019-11-01T08:24:35Z</time>
      </trkpt>
      <trkpt lat="44.17579" lon="6.0749">
        <ele>910.594</ele>
        <time>2019-11-01T08:24:40Z</time>
      </trkpt>
      <trkpt lat="44.17579" lon="6.0749">
        <ele>910.508</ele>
        <time>2019-11-01T08:24:46Z</time>
      </trkpt>
      <trkpt lat="44.17579" lon="6.0749">
        <ele>910.445</ele>
        <time>2019-11-01T08:24:51Z</time>
      </trkpt>
      <trkpt lat="44.17579" lon="6.0749">
        <ele>909.766</ele>
        <time>2019-11-01T08:24:57Z</time>
      </trkpt>
      <trkpt lat="44.17579" lon="6.0749">
        <ele>909.447</ele>
        <time>2019-11-01T08:25:02Z</time>
      </trkpt>
      <trkpt lat="44.17579" lon="6.0749">
        <ele>909.327</ele>
        <time>2019-11-01T08:25:08Z</time>
      </trkpt>
      <trkpt lat="44.17579" lon="6.0749">
        <ele>909.253</ele>
        <time>2019-11-01T08:25:14Z</time>
      </trkpt>
      <trkpt lat="44.17579" lon="6.0749">
        <ele>908.86</ele>
        <time>2019-11-01T08:25:20Z</time>
      </trkpt>
      <trkpt lat="44.17586" lon="6.0744">
        <ele>907.653</ele>
        <time>2019-11-01T08:25:25Z</time>
      </trkpt>
      <trkpt lat="44.17608" lon="6.07385">
        <ele>905.754</ele>
        <time>2019-11-01T08:25:31Z</time>
      </trkpt>
      <trkpt lat="44.17604" lon="6.07327">
        <ele>898.84</ele>
        <time>2019-11-01T08:25:36Z</time>
      </trkpt>
      <trkpt lat="44.17633" lon="6.07261">
        <ele>890.888</ele>
        <time>2019-11-01T08:25:42Z</time>
      </trkpt>
      <trkpt lat="44.17633" lon="6.07237">
        <ele>886.041</ele>
        <time>2019-11-01T08:25:48Z</time>
      </trkpt>
      <trkpt lat="44.17602" lon="6.07274">
        <ele>882.705</ele>
        <time>2019-11-01T08:25:54Z</time>
      </trkpt>
      <trkpt lat="44.17574" lon="6.07302">
        <ele>879.598</ele>
        <time>2019-11-01T08:25:59Z</time>
      </trkpt>
      <trkpt lat="44.17576" lon="6.07286">
        <ele>876.867</ele>
        <time>2019-11-01T08:26:04Z</time>
      </trkpt>
      <trkpt lat="44.17599" lon="6.07246">
        <ele>877.038</ele>
        <time>2019-11-01T08:26:10Z</time>
      </trkpt>
      <trkpt lat="44.17626" lon="6.07212">
        <ele>877.542</ele>
        <time>2019-11-01T08:26:16Z</time>
      </trkpt>
      <trkpt lat="44.1765" lon="6.07185">
        <ele>876.585</ele>
        <time>2019-11-01T08:26:21Z</time>
      </trkpt>
      <trkpt lat="44.17621" lon="6.07187">
        <ele>869.624</ele>
        <time>2019-11-01T08:26:27Z</time>
      </trkpt>
      <trkpt lat="44.17572" lon="6.07181">
        <ele>863.29</ele>
        <time>2019-11-01T08:26:33Z</time>
      </trkpt>
      <trkpt lat="44.17562" lon="6.07138">
        <ele>858.325</ele>
        <time>2019-11-01T08:26:39Z</time>
      </trkpt>
      <trkpt lat="44.17592" lon="6.071">
        <ele>854.294</ele>
        <time>2019-11-01T08:26:44Z</time>
      </trkpt>
      <trkpt lat="44.17634" lon="6.07047">
        <ele>852.257</ele>
        <time>2019-11-01T08:26:50Z</time>
      </trkpt>
      <trkpt lat="44.17669" lon="6.06985">
        <ele>848.027</ele>
        <time>2019-11-01T08:26:56Z</time>
      </trkpt>
      <trkpt lat="44.17695" lon="6.06943">
        <ele>842.693</ele>
        <time>2019-11-01T08:27:01Z</time>
      </trkpt>
      <trkpt lat="44.17665" lon="6.06904">
        <ele>838.275</ele>
        <time>2019-11-01T08:27:07Z</time>
      </trkpt>
      <trkpt lat="44.17663" lon="6.06855">
        <ele>832.001</ele>
        <time>2019-11-01T08:27:12Z</time>
      </trkpt>
      <trkpt lat="44.17665" lon="6.06784">
        <ele>824.031</ele>
        <time>2019-11-01T08:27:18Z</time>
      </trkpt>
      <trkpt lat="44.17647" lon="6.06724">
        <ele>819.683</ele>
        <time>2019-11-01T08:27:23Z</time>
      </trkpt>
      <trkpt lat="44.17654" lon="6.06658">
        <ele>814.203</ele>
        <time>2019-11-01T08:27:29Z</time>
      </trkpt>
      <trkpt lat="44.17675" lon="6.06608">
        <ele>813.796</ele>
        <time>2019-11-01T08:27:35Z</time>
      </trkpt>
      <trkpt lat="44.17654" lon="6.06564">
        <ele>810.361</ele>
        <time>2019-11-01T08:27:40Z</time>
      </trkpt>
      <trkpt lat="44.17636" lon="6.06493">
        <ele>805.476</ele>
        <time>2019-11-01T08:27:46Z</time>
      </trkpt>
      <trkpt lat="44.17603" lon="6.06412">
        <ele>798.79</ele>
        <time>2019-11-01T08:27:52Z</time>
      </trkpt>
      <trkpt lat="44.17575" lon="6.06328">
        <ele>792.955</ele>
        <time>2019-11-01T08:27:58Z</time>
      </trkpt>
      <trkpt lat="44.17546" lon="6.06266">
        <ele>793.509</ele>
        <time>2019-11-01T08:28:03Z</time>
      </trkpt>
      <trkpt lat="44.17535" lon="6.06215">
        <ele>791.316</ele>
        <time>2019-11-01T08:28:08Z</time>
      </trkpt>
      <trkpt lat="44.17505" lon="6.06188">
        <ele>784.891</ele>
        <time>2019-11-01T08:28:13Z</time>
      </trkpt>
      <trkpt lat="44.17472" lon="6.06128">
        <ele>780.464</ele>
        <time>2019-11-01T08:28:19Z</time>
      </trkpt>
      <trkpt lat="44.17453" lon="6.06062">
        <ele>775.926</ele>
        <time>2019-11-01T08:28:24Z</time>
      </trkpt>
      <trkpt lat="44.17402" lon="6.06015">
        <ele>770.391</ele>
        <time>2019-11-01T08:28:30Z</time>
      </trkpt>
      <trkpt lat="44.17358" lon="6.05956">
        <ele>764.791</ele>
        <time>2019-11-01T08:28:36Z</time>
      </trkpt>
      <trkpt lat="44.1731" lon="6.05924">
        <ele>763.317</ele>
        <time>2019-11-01T08:28:41Z</time>
      </trkpt>
      <trkpt lat="44.17254" lon="6.05859">
        <ele>748.442</ele>
        <time>2019-11-01T08:28:47Z</time>
      </trkpt>
      <trkpt lat="44.17209" lon="6.05801">
        <ele>741.15</ele>
        <time>2019-11-01T08:28:52Z</time>
      </trkpt>
      <trkpt lat="44.17149" lon="6.05739">
        <ele>730.089</ele>
        <time>2019-11-01T08:28:58Z</time>
      </trkpt>
      <trkpt lat="44.1711" lon="6.0568">
        <ele>721.908</ele>
        <time>2019-11-01T08:29:03Z</time>
      </trkpt>
      <trkpt lat="44.17073" lon="6.05596">
        <ele>709.882</ele>
        <time>2019-11-01T08:29:09Z</time>
      </trkpt>
      <trkpt lat="44.17051" lon="6.05499">
        <ele>704.897</ele>
        <time>2019-11-01T08:29:15Z</time>
      </trkpt>
      <trkpt lat="44.17062" lon="6.05432">
        <ele>701.753</ele>
        <time>2019-11-01T08:29:20Z</time>
      </trkpt>
      <trkpt lat="44.17081" lon="6.0534">
        <ele>696.626</ele>
        <time>2019-11-01T08:29:26Z</time>
      </trkpt>
      <trkpt lat="44.17089" lon="6.05262">
        <ele>693.204</ele>
        <time>2019-11-01T08:29:31Z</time>
      </trkpt>
      <trkpt lat="44.17109" lon="6.05183">
        <ele>692.727</ele>
        <time>2019-11-01T08:29:37Z</time>
      </trkpt>
      <trkpt lat="44.17103" lon="6.05142">
        <ele>686.236</ele>
        <time>2019-11-01T08:29:42Z</time>
      </trkpt>
      <trkpt lat="44.17096" lon="6.05117">
        <ele>682.997</ele>
        <time>2019-11-01T08:29:48Z</time>
      </trkpt>
      <trkpt lat="44.17095" lon="6.0509">
        <ele>681.868</ele>
        <time>2019-11-01T08:29:54Z</time>
      </trkpt>
      <trkpt lat="44.17095" lon="6.05069">
        <ele>681.055</ele>
        <time>2019-11-01T08:29:59Z</time>
      </trkpt>
      <trkpt lat="44.17086" lon="6.0505">
        <ele>679.847</ele>
        <time>2019-11-01T08:30:05Z</time>
      </trkpt>
      <trkpt lat="44.17075" lon="6.0504">
        <ele>679.212</ele>
        <time>2019-11-01T08:30:10Z</time>
      </trkpt>
      <trkpt lat="44.17065" lon="6.05036">
        <ele>678.779</ele>
        <time>2019-11-01T08:30:15Z</time>
      </trkpt>
      <trkpt lat="44.17048" lon="6.05023">
        <ele>678.123</ele>
        <time>2019-11-01T08:30:21Z</time>
      </trkpt>
      <trkpt lat="44.17044" lon="6.05012">
        <ele>678.393</ele>
        <time>2019-11-01T08:30:27Z</time>
      </trkpt>
      <trkpt lat="44.17047" lon="6.05">
        <ele>679.085</ele>
        <time>2019-11-01T08:30:32Z</time>
      </trkpt>
      <trkpt lat="44.1705" lon="6.04987">
        <ele>679.746</ele>
        <time>2019-11-01T08:30:37Z</time>
      </trkpt>
      <trkpt lat="44.17051" lon="6.04972">
        <ele>680.68</ele>
        <time>2019-11-01T08:30:43Z</time>
      </trkpt>
      <trkpt lat="44.1705" lon="6.0496">
        <ele>682.09</ele>
        <time>2019-11-01T08:30:48Z</time>
      </trkpt>
      <trkpt lat="44.17047" lon="6.04942">
        <ele>683.989</ele>
        <time>2019-11-01T08:30:54Z</time>
      </trkpt>
      <trkpt lat="44.17039" lon="6.04926">
        <ele>685.007</ele>
        <time>2019-11-01T08:31:00Z</time>
      </trkpt>
      <trkpt lat="44.17034" lon="6.04906">
        <ele>685.904</ele>
        <time>2019-11-01T08:31:06Z</time>
      </trkpt>
      <trkpt lat="44.17026" lon="6.04888">
        <ele>686.408</ele>
        <time>2019-11-01T08:31:12Z</time>
      </trkpt>
      <trkpt lat="44.17018" lon="6.04876">
        <ele>686.719</ele>
        <time>2019-11-01T08:31:17Z</time>
      </trkpt>
      <trkpt lat="44.1701" lon="6.04864">
        <ele>686.833</ele>
        <time>2019-11-01T08:31:22Z</time>
      </trkpt>
      <trkpt lat="44.17001" lon="6.04847">
        <ele>686.861</ele>
        <time>2019-11-01T08:31:28Z</time>
      </trkpt>
      <trkpt lat="44.16989" lon="6.0482">
        <ele>685.848</ele>
        <time>2019-11-01T08:31:33Z</time>
      </trkpt>
      <trkpt lat="44.16965" lon="6.04801">
        <ele>682.474</ele>
        <time>2019-11-01T08:31:38Z</time>
      </trkpt>
      <trkpt lat="44.16937" lon="6.0479">
        <ele>680.492</ele>
        <time>2019-11-01T08:31:43Z</time>
      </trkpt>
      <trkpt lat="44.1691" lon="6.0476">
        <ele>680.615</ele>
        <time>2019-11-01T08:31:49Z</time>
      </trkpt>
      <trkpt lat="44.16893" lon="6.04743">
        <ele>683.559</ele>
        <time>2019-11-01T08:31:54Z</time>
      </trkpt>
      <trkpt lat="44.16871" lon="6.04722">
        <ele>685.001</ele>
        <time>2019-11-01T08:32:00Z</time>
      </trkpt>
      <trkpt lat="44.16853" lon="6.04669">
        <ele>685.06</ele>
        <time>2019-11-01T08:32:05Z</time>
      </trkpt>
      <trkpt lat="44.16822" lon="6.04631">
        <ele>678.646</ele>
        <time>2019-11-01T08:32:11Z</time>
      </trkpt>
      <trkpt lat="44.16798" lon="6.04626">
        <ele>678.917</ele>
        <time>2019-11-01T08:32:16Z</time>
      </trkpt>
      <trkpt lat="44.16778" lon="6.04627">
        <ele>677.884</ele>
        <time>2019-11-01T08:32:22Z</time>
      </trkpt>
      <trkpt lat="44.1675" lon="6.04611">
        <ele>676.599</ele>
        <time>2019-11-01T08:32:28Z</time>
      </trkpt>
      <trkpt lat="44.16749" lon="6.04586">
        <ele>676.829</ele>
        <time>2019-11-01T08:32:34Z</time>
      </trkpt>
      <trkpt lat="44.16751" lon="6.04564">
        <ele>676.881</ele>
        <time>2019-11-01T08:32:39Z</time>
      </trkpt>
      <trkpt lat="44.16754" lon="6.04537">
        <ele>676.964</ele>
        <time>2019-11-01T08:32:45Z</time>
      </trkpt>
      <trkpt lat="44.16752" lon="6.04518">
        <ele>677.058</ele>
        <time>2019-11-01T08:32:50Z</time>
      </trkpt>
      <trkpt lat="44.16753" lon="6.04494">
        <ele>677.256</ele>
        <time>2019-11-01T08:32:56Z</time>
      </trkpt>
      <trkpt lat="44.16759" lon="6.04471">
        <ele>677.179</ele>
        <time>2019-11-01T08:33:02Z</time>
      </trkpt>
      <trkpt lat="44.16759" lon="6.04454">
        <ele>677.208</ele>
        <time>2019-11-01T08:33:07Z</time>
      </trkpt>
      <trkpt lat="44.16754" lon="6.04442">
        <ele>677.495</ele>
        <time>2019-11-01T08:33:12Z</time>
      </trkpt>
      <trkpt lat="44.16745" lon="6.04435">
        <ele>677.906</ele>
        <time>2019-11-01T08:33:17Z</time>
      </trkpt>
      <trkpt lat="44.16734" lon="6.04427">
        <ele>678.443</ele>
        <time>2019-11-01T08:33:22Z</time>
      </trkpt>
      <trkpt lat="44.16725" lon="6.0441">
        <ele>679.538</ele>
        <time>2019-11-01T08:33:28Z</time>
      </trkpt>
      <trkpt lat="44.16721" lon="6.04394">
        <ele>680.67</ele>
        <time>2019-11-01T08:33:34Z</time>
      </trkpt>
      <trkpt lat="44.16718" lon="6.0438">
        <ele>681.636</ele>
        <time>2019-11-01T08:33:39Z</time>
      </trkpt>
      <trkpt lat="44.1671" lon="6.04367">
        <ele>682.55</ele>
        <time>2019-11-01T08:33:44Z</time>
      </trkpt>
      <trkpt lat="44.16698" lon="6.04357">
        <ele>684.056</ele>
        <time>2019-11-01T08:33:50Z</time>
      </trkpt>
      <trkpt lat="44.16685" lon="6.04338">
        <ele>685.528</ele>
        <time>2019-11-01T08:33:55Z</time>
      </trkpt>
      <trkpt lat="44.16681" lon="6.04318">
        <ele>686.521</ele>
        <time>2019-11-01T08:34:00Z</time>
      </trkpt>
      <trkpt lat="44.16683" lon="6.04295">
        <ele>687.443</ele>
        <time>2019-11-01T08:34:06Z</time>
      </trkpt>
      <trkpt lat="44.16678" lon="6.04277">
        <ele>688.03</ele>
        <time>2019-11-01T08:34:11Z</time>
      </trkpt>
      <trkpt lat="44.16661" lon="6.04267">
        <ele>689.36</ele>
        <time>2019-11-01T08:34:17Z</time>
      </trkpt>
      <trkpt lat="44.16641" lon="6.04264">
        <ele>691.015</ele>
        <time>2019-11-01T08:34:23Z</time>
      </trkpt>
      <trkpt lat="44.16625" lon="6.04262">
        <ele>691.913</ele>
        <time>2019-11-01T08:34:29Z</time>
      </trkpt>
      <trkpt lat="44.16622" lon="6.04239">
        <ele>692.294</ele>
        <time>2019-11-01T08:34:35Z</time>
      </trkpt>
      <trkpt lat="44.16628" lon="6.04216">
        <ele>692.078</ele>
        <time>2019-11-01T08:34:40Z</time>
      </trkpt>
      <trkpt lat="44.16641" lon="6.0419">
        <ele>690.363</ele>
        <time>2019-11-01T08:34:46Z</time>
      </trkpt>
      <trkpt lat="44.16655" lon="6.04166">
        <ele>691.086</ele>
        <time>2019-11-01T08:34:52Z</time>
      </trkpt>
      <trkpt lat="44.16655" lon="6.04142">
        <ele>691.021</ele>
        <time>2019-11-01T08:34:58Z</time>
      </trkpt>
      <trkpt lat="44.16639" lon="6.04131">
        <ele>690.905</ele>
        <time>2019-11-01T08:35:04Z</time>
      </trkpt>
      <trkpt lat="44.16624" lon="6.04119">
        <ele>691.361</ele>
        <time>2019-11-01T08:35:09Z</time>
      </trkpt>
      <trkpt lat="44.16609" lon="6.04105">
        <ele>692.271</ele>
        <time>2019-11-01T08:35:15Z</time>
      </trkpt>
      <trkpt lat="44.16609" lon="6.04081">
        <ele>692.883</ele>
        <time>2019-11-01T08:35:21Z</time>
      </trkpt>
      <trkpt lat="44.1661" lon="6.04059">
        <ele>693.456</ele>
        <time>2019-11-01T08:35:26Z</time>
      </trkpt>
      <trkpt lat="44.16614" lon="6.04024">
        <ele>694.976</ele>
        <time>2019-11-01T08:35:32Z</time>
      </trkpt>
      <trkpt lat="44.16615" lon="6.0399">
        <ele>694.069</ele>
        <time>2019-11-01T08:35:38Z</time>
      </trkpt>
      <trkpt lat="44.1662" lon="6.03966">
        <ele>692.971</ele>
        <time>2019-11-01T08:35:43Z</time>
      </trkpt>
      <trkpt lat="44.16628" lon="6.03949">
        <ele>691.354</ele>
        <time>2019-11-01T08:35:49Z</time>
      </trkpt>
      <trkpt lat="44.16631" lon="6.03957">
        <ele>690.705</ele>
        <time>2019-11-01T08:35:54Z</time>
      </trkpt>
      <trkpt lat="44.16631" lon="6.03957">
        <ele>690.72</ele>
        <time>2019-11-01T08:36:00Z</time>
      </trkpt>
      <trkpt lat="44.16631" lon="6.03957">
        <ele>690.686</ele>
        <time>2019-11-01T08:36:05Z</time>
      </trkpt>
      <trkpt lat="44.16631" lon="6.03957">
        <ele>690.538</ele>
        <time>2019-11-01T08:36:11Z</time>
      </trkpt>
      <trkpt lat="44.16631" lon="6.03957">
        <ele>690.113</ele>
        <time>2019-11-01T08:36:16Z</time>
      </trkpt>
      <trkpt lat="44.16631" lon="6.03957">
        <ele>690.026</ele>
        <time>2019-11-01T08:36:21Z</time>
      </trkpt>
      <trkpt lat="44.16631" lon="6.03957">
        <ele>690.038</ele>
        <time>2019-11-01T08:36:27Z</time>
      </trkpt>
      <trkpt lat="44.16631" lon="6.03957">
        <ele>690.124</ele>
        <time>2019-11-01T08:36:33Z</time>
      </trkpt>
      <trkpt lat="44.16631" lon="6.03957">
        <ele>690.188</ele>
        <time>2019-11-01T08:36:39Z</time>
      </trkpt>
      <trkpt lat="44.16631" lon="6.03957">
        <ele>690.152</ele>
        <time>2019-11-01T08:36:44Z</time>
      </trkpt>
      <trkpt lat="44.16631" lon="6.03957">
        <ele>690.184</ele>
        <time>2019-11-01T08:36:50Z</time>
      </trkpt>
      <trkpt lat="44.16631" lon="6.03957">
        <ele>690.608</ele>
        <time>2019-11-01T08:36:56Z</time>
      </trkpt>
      <trkpt lat="44.16631" lon="6.03957">
        <ele>691.286</ele>
        <time>2019-11-01T08:37:01Z</time>
      </trkpt>
      <trkpt lat="44.16631" lon="6.03957">
        <ele>692.116</ele>
        <time>2019-11-01T08:37:06Z</time>
      </trkpt>
      <trkpt lat="44.16627" lon="6.03936">
        <ele>692.197</ele>
        <time>2019-11-01T08:37:11Z</time>
      </trkpt>
      <trkpt lat="44.16625" lon="6.03914">
        <ele>692.057</ele>
        <time>2019-11-01T08:37:17Z</time>
      </trkpt>
      <trkpt lat="44.16609" lon="6.03888">
        <ele>694.279</ele>
        <time>2019-11-01T08:37:23Z</time>
      </trkpt>
      <trkpt lat="44.16601" lon="6.0385">
        <ele>691.793</ele>
        <time>2019-11-01T08:37:28Z</time>
      </trkpt>
      <trkpt lat="44.16606" lon="6.03807">
        <ele>689.099</ele>
        <time>2019-11-01T08:37:33Z</time>
      </trkpt>
      <trkpt lat="44.16627" lon="6.03758">
        <ele>689.164</ele>
        <time>2019-11-01T08:37:38Z</time>
      </trkpt>
      <trkpt lat="44.16617" lon="6.03709">
        <ele>686.558</ele>
        <time>2019-11-01T08:37:44Z</time>
      </trkpt>
      <trkpt lat="44.16607" lon="6.03746">
        <ele>680.498</ele>
        <time>2019-11-01T08:37:50Z</time>
      </trkpt>
      <trkpt lat="44.16573" lon="6.03759">
        <ele>678.788</ele>
        <time>2019-11-01T08:37:55Z</time>
      </trkpt>
      <trkpt lat="44.16537" lon="6.03792">
        <ele>674.828</ele>
        <time>2019-11-01T08:38:00Z</time>
      </trkpt>
      <trkpt lat="44.1651" lon="6.0377">
        <ele>670.464</ele>
        <time>2019-11-01T08:38:06Z</time>
      </trkpt>
      <trkpt lat="44.16464" lon="6.03769">
        <ele>668.871</ele>
        <time>2019-11-01T08:38:12Z</time>
      </trkpt>
      <trkpt lat="44.1641" lon="6.0378">
        <ele>664.728</ele>
        <time>2019-11-01T08:38:17Z</time>
      </trkpt>
      <trkpt lat="44.16362" lon="6.03816">
        <ele>659.875</ele>
        <time>2019-11-01T08:38:23Z</time>
      </trkpt>
      <trkpt lat="44.1636" lon="6.03785">
        <ele>655.966</ele>
        <time>2019-11-01T08:38:29Z</time>
      </trkpt>
      <trkpt lat="44.16367" lon="6.03735">
        <ele>650.337</ele>
        <time>2019-11-01T08:38:34Z</time>
      </trkpt>
      <trkpt lat="44.16346" lon="6.03675">
        <ele>642.305</ele>
        <time>2019-11-01T08:38:40Z</time>
      </trkpt>
      <trkpt lat="44.16346" lon="6.03606">
        <ele>640.217</ele>
        <time>2019-11-01T08:38:46Z</time>
      </trkpt>
      <trkpt lat="44.16316" lon="6.03536">
        <ele>637.479</ele>
        <time>2019-11-01T08:38:52Z</time>
      </trkpt>
      <trkpt lat="44.16284" lon="6.03452">
        <ele>628.955</ele>
        <time>2019-11-01T08:38:58Z</time>
      </trkpt>
      <trkpt lat="44.16242" lon="6.03372">
        <ele>621.595</ele>
        <time>2019-11-01T08:39:04Z</time>
      </trkpt>
      <trkpt lat="44.16203" lon="6.03293">
        <ele>612.253</ele>
        <time>2019-11-01T08:39:10Z</time>
      </trkpt>
      <trkpt lat="44.16165" lon="6.0324">
        <ele>602.555</ele>
        <time>2019-11-01T08:39:15Z</time>
      </trkpt>
      <trkpt lat="44.16137" lon="6.03159">
        <ele>595.95</ele>
        <time>2019-11-01T08:39:21Z</time>
      </trkpt>
      <trkpt lat="44.16105" lon="6.03091">
        <ele>590.437</ele>
        <time>2019-11-01T08:39:27Z</time>
      </trkpt>
      <trkpt lat="44.16077" lon="6.03039">
        <ele>582.952</ele>
        <time>2019-11-01T08:39:32Z</time>
      </trkpt>
      <trkpt lat="44.16023" lon="6.03018">
        <ele>576.355</ele>
        <time>2019-11-01T08:39:38Z</time>
      </trkpt>
      <trkpt lat="44.1599" lon="6.0298">
        <ele>571.261</ele>
        <time>2019-11-01T08:39:44Z</time>
      </trkpt>
      <trkpt lat="44.15967" lon="6.02974">
        <ele>571.057</ele>
        <time>2019-11-01T08:39:50Z</time>
      </trkpt>
      <trkpt lat="44.1594" lon="6.0297">
        <ele>571.258</ele>
        <time>2019-11-01T08:39:56Z</time>
      </trkpt>
      <trkpt lat="44.15912" lon="6.02951">
        <ele>573.459</ele>
        <time>2019-11-01T08:40:02Z</time>
      </trkpt>
      <trkpt lat="44.15896" lon="6.02929">
        <ele>574.837</ele>
        <time>2019-11-01T08:40:08Z</time>
      </trkpt>
      <trkpt lat="44.15895" lon="6.02928">
        <ele>574.801</ele>
        <time>2019-11-01T08:40:13Z</time>
      </trkpt>
      <trkpt lat="44.15895" lon="6.02928">
        <ele>574.771</ele>
        <time>2019-11-01T08:40:19Z</time>
      </trkpt>
      <trkpt lat="44.15895" lon="6.02928">
        <ele>574.672</ele>
        <time>2019-11-01T08:40:25Z</time>
      </trkpt>
      <trkpt lat="44.1589" lon="6.02921">
        <ele>573.692</ele>
        <time>2019-11-01T08:40:31Z</time>
      </trkpt>
      <trkpt lat="44.15871" lon="6.02896">
        <ele>571.011</ele>
        <time>2019-11-01T08:40:37Z</time>
      </trkpt>
      <trkpt lat="44.15839" lon="6.02853">
        <ele>569.984</ele>
        <time>2019-11-01T08:40:43Z</time>
      </trkpt>
      <trkpt lat="44.15805" lon="6.0282">
        <ele>568.637</ele>
        <time>2019-11-01T08:40:48Z</time>
      </trkpt>
      <trkpt lat="44.15759" lon="6.02817">
        <ele>564.112</ele>
        <time>2019-11-01T08:40:54Z</time>
      </trkpt>
      <trkpt lat="44.1572" lon="6.02811">
        <ele>561.904</ele>
        <time>2019-11-01T08:41:00Z</time>
      </trkpt>
      <trkpt lat="44.15686" lon="6.02801">
        <ele>562.509</ele>
        <time>2019-11-01T08:41:05Z</time>
      </trkpt>
      <trkpt lat="44.15647" lon="6.02791">
        <ele>562.53</ele>
        <time>2019-11-01T08:41:11Z</time>
      </trkpt>
      <trkpt lat="44.15608" lon="6.02761">
        <ele>560.095</ele>
        <time>2019-11-01T08:41:17Z</time>
      </trkpt>
      <trkpt lat="44.15567" lon="6.02741">
        <ele>555.99</ele>
        <time>2019-11-01T08:41:23Z</time>
      </trkpt>
      <trkpt lat="44.15536" lon="6.02721">
        <ele>558.787</ele>
        <time>2019-11-01T08:41:29Z</time>
      </trkpt>
      <trkpt lat="44.15511" lon="6.02701">
        <ele>557.812</ele>
        <time>2019-11-01T08:41:34Z</time>
      </trkpt>
      <trkpt lat="44.15486" lon="6.02686">
        <ele>554.357</ele>
        <time>2019-11-01T08:41:39Z</time>
      </trkpt>
      <trkpt lat="44.15454" lon="6.0267">
        <ele>551.624</ele>
        <time>2019-11-01T08:41:45Z</time>
      </trkpt>
      <trkpt lat="44.15429" lon="6.0263">
        <ele>549.666</ele>
        <time>2019-11-01T08:41:51Z</time>
      </trkpt>
      <trkpt lat="44.15398" lon="6.02605">
        <ele>551.862</ele>
        <time>2019-11-01T08:41:57Z</time>
      </trkpt>
      <trkpt lat="44.15374" lon="6.02588">
        <ele>557.699</ele>
        <time>2019-11-01T08:42:02Z</time>
      </trkpt>
      <trkpt lat="44.15347" lon="6.02571">
        <ele>562.251</ele>
        <time>2019-11-01T08:42:08Z</time>
      </trkpt>
      <trkpt lat="44.15329" lon="6.02562">
        <ele>563.687</ele>
        <time>2019-11-01T08:42:13Z</time>
      </trkpt>
      <trkpt lat="44.15309" lon="6.02546">
        <ele>562.415</ele>
        <time>2019-11-01T08:42:19Z</time>
      </trkpt>
      <trkpt lat="44.15293" lon="6.02528">
        <ele>561.117</ele>
        <time>2019-11-01T08:42:24Z</time>
      </trkpt>
      <trkpt lat="44.15271" lon="6.02497">
        <ele>561.214</ele>
        <time>2019-11-01T08:42:30Z</time>
      </trkpt>
      <trkpt lat="44.15247" lon="6.02465">
        <ele>560.034</ele>
        <time>2019-11-01T08:42:36Z</time>
      </trkpt>
      <trkpt lat="44.15216" lon="6.02474">
        <ele>559.406</ele>
        <time>2019-11-01T08:42:42Z</time>
      </trkpt>
      <trkpt lat="44.15212" lon="6.02451">
        <ele>554.224</ele>
        <time>2019-11-01T08:42:47Z</time>
      </trkpt>
      <trkpt lat="44.15225" lon="6.02425">
        <ele>554.16</ele>
        <time>2019-11-01T08:42:53Z</time>
      </trkpt>
      <trkpt lat="44.15225" lon="6.02396">
        <ele>554.84</ele>
        <time>2019-11-01T08:42:59Z</time>
      </trkpt>
      <trkpt lat="44.15214" lon="6.02378">
        <ele>555.673</ele>
        <time>2019-11-01T08:43:05Z</time>
      </trkpt>
      <trkpt lat="44.15194" lon="6.02365">
        <ele>556.555</ele>
        <time>2019-11-01T08:43:11Z</time>
      </trkpt>
      <trkpt lat="44.15176" lon="6.02356">
        <ele>557.256</ele>
        <time>2019-11-01T08:43:16Z</time>
      </trkpt>
      <trkpt lat="44.15152" lon="6.02342">
        <ele>560.888</ele>
        <time>2019-11-01T08:43:22Z</time>
      </trkpt>
      <trkpt lat="44.15121" lon="6.02318">
        <ele>561.179</ele>
        <time>2019-11-01T08:43:28Z</time>
      </trkpt>
      <trkpt lat="44.1509" lon="6.02303">
        <ele>559.489</ele>
        <time>2019-11-01T08:43:34Z</time>
      </trkpt>
      <trkpt lat="44.15068" lon="6.02297">
        <ele>558.325</ele>
        <time>2019-11-01T08:43:40Z</time>
      </trkpt>
      <trkpt lat="44.15058" lon="6.02272">
        <ele>557.533</ele>
        <time>2019-11-01T08:43:45Z</time>
      </trkpt>
      <trkpt lat="44.15048" lon="6.02248">
        <ele>556.871</ele>
        <time>2019-11-01T08:43:51Z</time>
      </trkpt>
      <trkpt lat="44.15042" lon="6.02241">
        <ele>556.822</ele>
        <time>2019-11-01T08:43:56Z</time>
      </trkpt>
      <trkpt lat="44.15042" lon="6.02241">
        <ele>556.842</ele>
        <time>2019-11-01T08:44:01Z</time>
      </trkpt>
      <trkpt lat="44.15042" lon="6.02241">
        <ele>556.888</ele>
        <time>2019-11-01T08:44:06Z</time>
      </trkpt>
      <trkpt lat="44.15036" lon="6.02234">
        <ele>557.439</ele>
        <time>2019-11-01T08:44:12Z</time>
      </trkpt>
      <trkpt lat="44.15019" lon="6.02205">
        <ele>555.155</ele>
        <time>2019-11-01T08:44:18Z</time>
      </trkpt>
      <trkpt lat="44.15006" lon="6.02187">
        <ele>554.775</ele>
        <time>2019-11-01T08:44:24Z</time>
      </trkpt>
      <trkpt lat="44.1499" lon="6.02157">
        <ele>551.551</ele>
        <time>2019-11-01T08:44:29Z</time>
      </trkpt>
      <trkpt lat="44.14945" lon="6.02133">
        <ele>549.86</ele>
        <time>2019-11-01T08:44:35Z</time>
      </trkpt>
      <trkpt lat="44.14918" lon="6.02092">
        <ele>549.426</ele>
        <time>2019-11-01T08:44:40Z</time>
      </trkpt>
      <trkpt lat="44.14889" lon="6.02052">
        <ele>546.292</ele>
        <time>2019-11-01T08:44:46Z</time>
      </trkpt>
      <trkpt lat="44.1487" lon="6.02032">
        <ele>544.642</ele>
        <time>2019-11-01T08:44:52Z</time>
      </trkpt>
      <trkpt lat="44.14854" lon="6.02016">
        <ele>543.561</ele>
        <time>2019-11-01T08:44:57Z</time>
      </trkpt>
      <trkpt lat="44.14834" lon="6.01993">
        <ele>543.438</ele>
        <time>2019-11-01T08:45:03Z</time>
      </trkpt>
      <trkpt lat="44.14817" lon="6.01963">
        <ele>545.932</ele>
        <time>2019-11-01T08:45:09Z</time>
      </trkpt>
      <trkpt lat="44.14805" lon="6.01939">
        <ele>545.788</ele>
        <time>2019-11-01T08:45:14Z</time>
      </trkpt>
      <trkpt lat="44.14787" lon="6.0191">
        <ele>545.196</ele>
        <time>2019-11-01T08:45:19Z</time>
      </trkpt>
      <trkpt lat="44.14757" lon="6.01877">
        <ele>544.914</ele>
        <time>2019-11-01T08:45:24Z</time>
      </trkpt>
      <trkpt lat="44.14714" lon="6.01833">
        <ele>543.637</ele>
        <time>2019-11-01T08:45:30Z</time>
      </trkpt>
      <trkpt lat="44.14692" lon="6.01786">
        <ele>541.684</ele>
        <time>2019-11-01T08:45:35Z</time>
      </trkpt>
      <trkpt lat="44.14681" lon="6.01724">
        <ele>536.217</ele>
        <time>2019-11-01T08:45:41Z</time>
      </trkpt>
      <trkpt lat="44.14666" lon="6.01686">
        <ele>534.543</ele>
        <time>2019-11-01T08:45:46Z</time>
      </trkpt>
      <trkpt lat="44.14653" lon="6.01663">
        <ele>536.092</ele>
        <time>2019-11-01T08:45:52Z</time>
      </trkpt>
      <trkpt lat="44.14652" lon="6.01628">
        <ele>538.356</ele>
        <time>2019-11-01T08:45:58Z</time>
      </trkpt>
      <trkpt lat="44.14657" lon="6.01603">
        <ele>540.551</ele>
        <time>2019-11-01T08:46:03Z</time>
      </trkpt>
      <trkpt lat="44.14667" lon="6.0158">
        <ele>541.064</ele>
        <time>2019-11-01T08:46:08Z</time>
      </trkpt>
      <trkpt lat="44.14682" lon="6.01553">
        <ele>540.763</ele>
        <time>2019-11-01T08:46:14Z</time>
      </trkpt>
      <trkpt lat="44.14703" lon="6.01558">
        <ele>541.292</ele>
        <time>2019-11-01T08:46:20Z</time>
      </trkpt>
      <trkpt lat="44.14705" lon="6.01558">
        <ele>541.3</ele>
        <time>2019-11-01T08:46:25Z</time>
      </trkpt>
      <trkpt lat="44.14705" lon="6.01558">
        <ele>541.275</ele>
        <time>2019-11-01T08:46:31Z</time>
      </trkpt>
      <trkpt lat="44.14705" lon="6.01558">
        <ele>541.268</ele>
        <time>2019-11-01T08:46:36Z</time>
      </trkpt>
      <trkpt lat="44.14705" lon="6.01558">
        <ele>540.962</ele>
        <time>2019-11-01T08:46:46Z</time>
      </trkpt>
      <trkpt lat="44.14705" lon="6.01558">
        <ele>539.978</ele>
        <time>2019-11-01T08:46:51Z</time>
      </trkpt>
      <trkpt lat="44.14721" lon="6.0155">
        <ele>539.082</ele>
        <time>2019-11-01T08:46:56Z</time>
      </trkpt>
      <trkpt lat="44.14737" lon="6.01548">
        <ele>538.557</ele>
        <time>2019-11-01T08:47:01Z</time>
      </trkpt>
      <trkpt lat="44.14759" lon="6.01545">
        <ele>538.094</ele>
        <time>2019-11-01T08:47:07Z</time>
      </trkpt>
      <trkpt lat="44.14775" lon="6.01538">
        <ele>537.701</ele>
        <time>2019-11-01T08:47:12Z</time>
      </trkpt>
      <trkpt lat="44.14779" lon="6.01507">
        <ele>536.438</ele>
        <time>2019-11-01T08:47:18Z</time>
      </trkpt>
      <trkpt lat="44.14781" lon="6.01459">
        <ele>533.572</ele>
        <time>2019-11-01T08:47:24Z</time>
      </trkpt>
      <trkpt lat="44.14787" lon="6.01422">
        <ele>530.511</ele>
        <time>2019-11-01T08:47:30Z</time>
      </trkpt>
      <trkpt lat="44.14792" lon="6.01394">
        <ele>529.1</ele>
        <time>2019-11-01T08:47:36Z</time>
      </trkpt>
      <trkpt lat="44.14796" lon="6.01364">
        <ele>528.954</ele>
        <time>2019-11-01T08:47:42Z</time>
      </trkpt>
      <trkpt lat="44.14794" lon="6.01337">
        <ele>532.992</ele>
        <time>2019-11-01T08:47:47Z</time>
      </trkpt>
      <trkpt lat="44.14787" lon="6.0131">
        <ele>534.83</ele>
        <time>2019-11-01T08:47:52Z</time>
      </trkpt>
      <trkpt lat="44.14762" lon="6.013">
        <ele>533.266</ele>
        <time>2019-11-01T08:47:58Z</time>
      </trkpt>
      <trkpt lat="44.14749" lon="6.01282">
        <ele>532.974</ele>
        <time>2019-11-01T08:48:03Z</time>
      </trkpt>
      <trkpt lat="44.14738" lon="6.01256">
        <ele>536.332</ele>
        <time>2019-11-01T08:48:08Z</time>
      </trkpt>
      <trkpt lat="44.14712" lon="6.01235">
        <ele>541.681</ele>
        <time>2019-11-01T08:48:14Z</time>
      </trkpt>
      <trkpt lat="44.14686" lon="6.01204">
        <ele>542.575</ele>
        <time>2019-11-01T08:48:20Z</time>
      </trkpt>
      <trkpt lat="44.14673" lon="6.01182">
        <ele>540.575</ele>
        <time>2019-11-01T08:48:25Z</time>
      </trkpt>
      <trkpt lat="44.14668" lon="6.01143">
        <ele>538.582</ele>
        <time>2019-11-01T08:48:31Z</time>
      </trkpt>
      <trkpt lat="44.14686" lon="6.01111">
        <ele>538.929</ele>
        <time>2019-11-01T08:48:37Z</time>
      </trkpt>
      <trkpt lat="44.1469" lon="6.01091">
        <ele>538.952</ele>
        <time>2019-11-01T08:48:43Z</time>
      </trkpt>
      <trkpt lat="44.14681" lon="6.01081">
        <ele>538.346</ele>
        <time>2019-11-01T08:48:49Z</time>
      </trkpt>
      <trkpt lat="44.14668" lon="6.01073">
        <ele>538.206</ele>
        <time>2019-11-01T08:48:54Z</time>
      </trkpt>
      <trkpt lat="44.14655" lon="6.01064">
        <ele>538.697</ele>
        <time>2019-11-01T08:49:00Z</time>
      </trkpt>
      <trkpt lat="44.14646" lon="6.01047">
        <ele>539.532</ele>
        <time>2019-11-01T08:49:06Z</time>
      </trkpt>
      <trkpt lat="44.14638" lon="6.01033">
        <ele>540.21</ele>
        <time>2019-11-01T08:49:11Z</time>
      </trkpt>
      <trkpt lat="44.14628" lon="6.01013">
        <ele>540.912</ele>
        <time>2019-11-01T08:49:17Z</time>
      </trkpt>
      <trkpt lat="44.14618" lon="6.00996">
        <ele>541.365</ele>
        <time>2019-11-01T08:49:22Z</time>
      </trkpt>
      <trkpt lat="44.14613" lon="6.00981">
        <ele>541.66</ele>
        <time>2019-11-01T08:49:27Z</time>
      </trkpt>
      <trkpt lat="44.14612" lon="6.0097">
        <ele>541.585</ele>
        <time>2019-11-01T08:49:32Z</time>
      </trkpt>
      <trkpt lat="44.14619" lon="6.00957">
        <ele>541.464</ele>
        <time>2019-11-01T08:49:38Z</time>
      </trkpt>
      <trkpt lat="44.14626" lon="6.00947">
        <ele>541.122</ele>
        <time>2019-11-01T08:49:43Z</time>
      </trkpt>
      <trkpt lat="44.14631" lon="6.00939">
        <ele>540.975</ele>
        <time>2019-11-01T08:49:48Z</time>
      </trkpt>
      <trkpt lat="44.14635" lon="6.00932">
        <ele>541.428</ele>
        <time>2019-11-01T08:49:53Z</time>
      </trkpt>
      <trkpt lat="44.14638" lon="6.00929">
        <ele>542.016</ele>
        <time>2019-11-01T08:49:58Z</time>
      </trkpt>
      <trkpt lat="44.1464" lon="6.00929">
        <ele>543.179</ele>
        <time>2019-11-01T08:50:04Z</time>
      </trkpt>
      <trkpt lat="44.14648" lon="6.0092">
        <ele>544.079</ele>
        <time>2019-11-01T08:50:09Z</time>
      </trkpt>
      <trkpt lat="44.14653" lon="6.00913">
        <ele>545.359</ele>
        <time>2019-11-01T08:50:14Z</time>
      </trkpt>
      <trkpt lat="44.14659" lon="6.00904">
        <ele>546.809</ele>
        <time>2019-11-01T08:50:20Z</time>
      </trkpt>
      <trkpt lat="44.14662" lon="6.00893">
        <ele>547.976</ele>
        <time>2019-11-01T08:50:26Z</time>
      </trkpt>
      <trkpt lat="44.14664" lon="6.00889">
        <ele>548.594</ele>
        <time>2019-11-01T08:50:32Z</time>
      </trkpt>
      <trkpt lat="44.14664" lon="6.00889">
        <ele>549.953</ele>
        <time>2019-11-01T08:50:38Z</time>
      </trkpt>
      <trkpt lat="44.14664" lon="6.00889">
        <ele>550.955</ele>
        <time>2019-11-01T08:50:43Z</time>
      </trkpt>
      <trkpt lat="44.1466" lon="6.00876">
        <ele>552.414</ele>
        <time>2019-11-01T08:50:49Z</time>
      </trkpt>
      <trkpt lat="44.14657" lon="6.00863">
        <ele>553.452</ele>
        <time>2019-11-01T08:50:55Z</time>
      </trkpt>
      <trkpt lat="44.14656" lon="6.00853">
        <ele>553.686</ele>
        <time>2019-11-01T08:51:01Z</time>
      </trkpt>
      <trkpt lat="44.14659" lon="6.00841">
        <ele>553.811</ele>
        <time>2019-11-01T08:51:07Z</time>
      </trkpt>
      <trkpt lat="44.14659" lon="6.00831">
        <ele>554.13</ele>
        <time>2019-11-01T08:51:12Z</time>
      </trkpt>
      <trkpt lat="44.1466" lon="6.00818">
        <ele>554.472</ele>
        <time>2019-11-01T08:51:18Z</time>
      </trkpt>
      <trkpt lat="44.1466" lon="6.00809">
        <ele>554.818</ele>
        <time>2019-11-01T08:51:23Z</time>
      </trkpt>
      <trkpt lat="44.1466" lon="6.008">
        <ele>555.23</ele>
        <time>2019-11-01T08:51:28Z</time>
      </trkpt>
      <trkpt lat="44.14658" lon="6.0079">
        <ele>555.668</ele>
        <time>2019-11-01T08:51:34Z</time>
      </trkpt>
      <trkpt lat="44.14655" lon="6.00783">
        <ele>556.057</ele>
        <time>2019-11-01T08:51:39Z</time>
      </trkpt>
      <trkpt lat="44.14652" lon="6.00773">
        <ele>556.615</ele>
        <time>2019-11-01T08:51:45Z</time>
      </trkpt>
      <trkpt lat="44.14652" lon="6.00765">
        <ele>557.249</ele>
        <time>2019-11-01T08:51:50Z</time>
      </trkpt>
      <trkpt lat="44.14651" lon="6.00758">
        <ele>558.056</ele>
        <time>2019-11-01T08:51:55Z</time>
      </trkpt>
      <trkpt lat="44.14648" lon="6.00749">
        <ele>559.08</ele>
        <time>2019-11-01T08:52:01Z</time>
      </trkpt>
      <trkpt lat="44.14646" lon="6.00741">
        <ele>560.025</ele>
        <time>2019-11-01T08:52:06Z</time>
      </trkpt>
      <trkpt lat="44.14644" lon="6.00731">
        <ele>560.839</ele>
        <time>2019-11-01T08:52:11Z</time>
      </trkpt>
      <trkpt lat="44.14644" lon="6.00718">
        <ele>561.47</ele>
        <time>2019-11-01T08:52:17Z</time>
      </trkpt>
      <trkpt lat="44.14647" lon="6.00711">
        <ele>562.175</ele>
        <time>2019-11-01T08:52:22Z</time>
      </trkpt>
      <trkpt lat="44.14647" lon="6.00705">
        <ele>562.978</ele>
        <time>2019-11-01T08:52:28Z</time>
      </trkpt>
      <trkpt lat="44.14647" lon="6.00694">
        <ele>564.226</ele>
        <time>2019-11-01T08:52:34Z</time>
      </trkpt>
      <trkpt lat="44.14647" lon="6.00692">
        <ele>565.036</ele>
        <time>2019-11-01T08:52:39Z</time>
      </trkpt>
      <trkpt lat="44.14649" lon="6.00688">
        <ele>565.7</ele>
        <time>2019-11-01T08:52:45Z</time>
      </trkpt>
      <trkpt lat="44.1465" lon="6.00684">
        <ele>566.346</ele>
        <time>2019-11-01T08:52:50Z</time>
      </trkpt>
      <trkpt lat="44.14651" lon="6.00681">
        <ele>567.333</ele>
        <time>2019-11-01T08:52:56Z</time>
      </trkpt>
      <trkpt lat="44.14652" lon="6.00678">
        <ele>568.31</ele>
        <time>2019-11-01T08:53:01Z</time>
      </trkpt>
      <trkpt lat="44.14655" lon="6.00672">
        <ele>569.246</ele>
        <time>2019-11-01T08:53:07Z</time>
      </trkpt>
      <trkpt lat="44.14659" lon="6.00666">
        <ele>569.998</ele>
        <time>2019-11-01T08:53:13Z</time>
      </trkpt>
      <trkpt lat="44.14662" lon="6.00663">
        <ele>570.98</ele>
        <time>2019-11-01T08:53:18Z</time>
      </trkpt>
      <trkpt lat="44.14665" lon="6.00658">
        <ele>571.94</ele>
        <time>2019-11-01T08:53:24Z</time>
      </trkpt>
      <trkpt lat="44.1467" lon="6.00653">
        <ele>572.941</ele>
        <time>2019-11-01T08:53:30Z</time>
      </trkpt>
      <trkpt lat="44.14673" lon="6.0065">
        <ele>574.113</ele>
        <time>2019-11-01T08:53:36Z</time>
      </trkpt>
      <trkpt lat="44.14674" lon="6.00651">
        <ele>575.463</ele>
        <time>2019-11-01T08:53:42Z</time>
      </trkpt>
      <trkpt lat="44.14675" lon="6.0065">
        <ele>575.902</ele>
        <time>2019-11-01T08:53:47Z</time>
      </trkpt>
      <trkpt lat="44.14675" lon="6.00648">
        <ele>576.383</ele>
        <time>2019-11-01T08:53:53Z</time>
      </trkpt>
      <trkpt lat="44.14678" lon="6.00648">
        <ele>577.133</ele>
        <time>2019-11-01T08:53:59Z</time>
      </trkpt>
      <trkpt lat="44.14689" lon="6.00653">
        <ele>577.871</ele>
        <time>2019-11-01T08:54:05Z</time>
      </trkpt>
      <trkpt lat="44.147" lon="6.00655">
        <ele>578.33</ele>
        <time>2019-11-01T08:54:10Z</time>
      </trkpt>
      <trkpt lat="44.1471" lon="6.00661">
        <ele>578.878</ele>
        <time>2019-11-01T08:54:16Z</time>
      </trkpt>
      <trkpt lat="44.14717" lon="6.00668">
        <ele>579.497</ele>
        <time>2019-11-01T08:54:22Z</time>
      </trkpt>
      <trkpt lat="44.14721" lon="6.00674">
        <ele>579.993</ele>
        <time>2019-11-01T08:54:27Z</time>
      </trkpt>
      <trkpt lat="44.14724" lon="6.00682">
        <ele>580.301</ele>
        <time>2019-11-01T08:54:32Z</time>
      </trkpt>
      <trkpt lat="44.1473" lon="6.00691">
        <ele>581.069</ele>
        <time>2019-11-01T08:54:38Z</time>
      </trkpt>
      <trkpt lat="44.14735" lon="6.00698">
        <ele>581.64</ele>
        <time>2019-11-01T08:54:43Z</time>
      </trkpt>
      <trkpt lat="44.14741" lon="6.00707">
        <ele>582.353</ele>
        <time>2019-11-01T08:54:49Z</time>
      </trkpt>
      <trkpt lat="44.14747" lon="6.00714">
        <ele>582.629</ele>
        <time>2019-11-01T08:54:55Z</time>
      </trkpt>
      <trkpt lat="44.14755" lon="6.00722">
        <ele>582.96</ele>
        <time>2019-11-01T08:55:01Z</time>
      </trkpt>
      <trkpt lat="44.1476" lon="6.0073">
        <ele>583.436</ele>
        <time>2019-11-01T08:55:07Z</time>
      </trkpt>
      <trkpt lat="44.14761" lon="6.00735">
        <ele>583.895</ele>
        <time>2019-11-01T08:55:13Z</time>
      </trkpt>
      <trkpt lat="44.14757" lon="6.00735">
        <ele>584.077</ele>
        <time>2019-11-01T08:55:18Z</time>
      </trkpt>
      <trkpt lat="44.14757" lon="6.00736">
        <ele>584.56</ele>
        <time>2019-11-01T08:55:23Z</time>
      </trkpt>
      <trkpt lat="44.14759" lon="6.00741">
        <ele>585.329</ele>
        <time>2019-11-01T08:55:28Z</time>
      </trkpt>
      <trkpt lat="44.14765" lon="6.0075">
        <ele>586.184</ele>
        <time>2019-11-01T08:55:34Z</time>
      </trkpt>
      <trkpt lat="44.14773" lon="6.00755">
        <ele>587.013</ele>
        <time>2019-11-01T08:55:40Z</time>
      </trkpt>
      <trkpt lat="44.1478" lon="6.00765">
        <ele>587.963</ele>
        <time>2019-11-01T08:55:46Z</time>
      </trkpt>
      <trkpt lat="44.14784" lon="6.00775">
        <ele>589.022</ele>
        <time>2019-11-01T08:55:51Z</time>
      </trkpt>
      <trkpt lat="44.1479" lon="6.00783">
        <ele>590.309</ele>
        <time>2019-11-01T08:55:57Z</time>
      </trkpt>
      <trkpt lat="44.14795" lon="6.0079">
        <ele>591.023</ele>
        <time>2019-11-01T08:56:02Z</time>
      </trkpt>
      <trkpt lat="44.14798" lon="6.00797">
        <ele>591.665</ele>
        <time>2019-11-01T08:56:07Z</time>
      </trkpt>
      <trkpt lat="44.14802" lon="6.00803">
        <ele>592.459</ele>
        <time>2019-11-01T08:56:12Z</time>
      </trkpt>
      <trkpt lat="44.1481" lon="6.00814">
        <ele>593.583</ele>
        <time>2019-11-01T08:56:18Z</time>
      </trkpt>
      <trkpt lat="44.14815" lon="6.00823">
        <ele>594.603</ele>
        <time>2019-11-01T08:56:24Z</time>
      </trkpt>
      <trkpt lat="44.1482" lon="6.00828">
        <ele>595.369</ele>
        <time>2019-11-01T08:56:29Z</time>
      </trkpt>
      <trkpt lat="44.14825" lon="6.00834">
        <ele>596.379</ele>
        <time>2019-11-01T08:56:34Z</time>
      </trkpt>
      <trkpt lat="44.14831" lon="6.00839">
        <ele>597.369</ele>
        <time>2019-11-01T08:56:40Z</time>
      </trkpt>
      <trkpt lat="44.14837" lon="6.00842">
        <ele>598.267</ele>
        <time>2019-11-01T08:56:45Z</time>
      </trkpt>
      <trkpt lat="44.14843" lon="6.00842">
        <ele>599.664</ele>
        <time>2019-11-01T08:56:51Z</time>
      </trkpt>
      <trkpt lat="44.1485" lon="6.00837">
        <ele>601.152</ele>
        <time>2019-11-01T08:56:57Z</time>
      </trkpt>
      <trkpt lat="44.14855" lon="6.00829">
        <ele>602.493</ele>
        <time>2019-11-01T08:57:03Z</time>
      </trkpt>
      <trkpt lat="44.14858" lon="6.00821">
        <ele>603.381</ele>
        <time>2019-11-01T08:57:08Z</time>
      </trkpt>
      <trkpt lat="44.14866" lon="6.00812">
        <ele>604.23</ele>
        <time>2019-11-01T08:57:14Z</time>
      </trkpt>
      <trkpt lat="44.14873" lon="6.00806">
        <ele>604.894</ele>
        <time>2019-11-01T08:57:19Z</time>
      </trkpt>
      <trkpt lat="44.14881" lon="6.00799">
        <ele>605.854</ele>
        <time>2019-11-01T08:57:25Z</time>
      </trkpt>
      <trkpt lat="44.14887" lon="6.00797">
        <ele>606.782</ele>
        <time>2019-11-01T08:57:30Z</time>
      </trkpt>
      <trkpt lat="44.14894" lon="6.00795">
        <ele>607.734</ele>
        <time>2019-11-01T08:57:35Z</time>
      </trkpt>
      <trkpt lat="44.14905" lon="6.00793">
        <ele>608.527</ele>
        <time>2019-11-01T08:57:41Z</time>
      </trkpt>
      <trkpt lat="44.14913" lon="6.00792">
        <ele>608.944</ele>
        <time>2019-11-01T08:57:46Z</time>
      </trkpt>
      <trkpt lat="44.14919" lon="6.00792">
        <ele>609.632</ele>
        <time>2019-11-01T08:57:51Z</time>
      </trkpt>
      <trkpt lat="44.1492" lon="6.00791">
        <ele>610.03</ele>
        <time>2019-11-01T08:57:56Z</time>
      </trkpt>
      <trkpt lat="44.14919" lon="6.00788">
        <ele>610.513</ele>
        <time>2019-11-01T08:58:02Z</time>
      </trkpt>
      <trkpt lat="44.14919" lon="6.0079">
        <ele>611.049</ele>
        <time>2019-11-01T08:58:07Z</time>
      </trkpt>
      <trkpt lat="44.14921" lon="6.00791">
        <ele>611.116</ele>
        <time>2019-11-01T08:58:12Z</time>
      </trkpt>
      <trkpt lat="44.14926" lon="6.00793">
        <ele>610.856</ele>
        <time>2019-11-01T08:58:17Z</time>
      </trkpt>
      <trkpt lat="44.14927" lon="6.00793">
        <ele>609.801</ele>
        <time>2019-11-01T08:58:23Z</time>
      </trkpt>
      <trkpt lat="44.14927" lon="6.00793">
        <ele>609.689</ele>
        <time>2019-11-01T08:58:29Z</time>
      </trkpt>
      <trkpt lat="44.14927" lon="6.00793">
        <ele>610.538</ele>
        <time>2019-11-01T08:58:34Z</time>
      </trkpt>
      <trkpt lat="44.1493" lon="6.00795">
        <ele>611.866</ele>
        <time>2019-11-01T08:58:40Z</time>
      </trkpt>
      <trkpt lat="44.14933" lon="6.00795">
        <ele>613.242</ele>
        <time>2019-11-01T08:58:45Z</time>
      </trkpt>
      <trkpt lat="44.14933" lon="6.00795">
        <ele>614.079</ele>
        <time>2019-11-01T08:58:50Z</time>
      </trkpt>
      <trkpt lat="44.14936" lon="6.00795">
        <ele>615.671</ele>
        <time>2019-11-01T08:58:56Z</time>
      </trkpt>
      <trkpt lat="44.14939" lon="6.00795">
        <ele>616.903</ele>
        <time>2019-11-01T08:59:01Z</time>
      </trkpt>
      <trkpt lat="44.14945" lon="6.00797">
        <ele>618.414</ele>
        <time>2019-11-01T08:59:07Z</time>
      </trkpt>
      <trkpt lat="44.1495" lon="6.00798">
        <ele>619.656</ele>
        <time>2019-11-01T08:59:13Z</time>
      </trkpt>
      <trkpt lat="44.14954" lon="6.00799">
        <ele>620.853</ele>
        <time>2019-11-01T08:59:19Z</time>
      </trkpt>
      <trkpt lat="44.14958" lon="6.00797">
        <ele>621.982</ele>
        <time>2019-11-01T08:59:24Z</time>
      </trkpt>
      <trkpt lat="44.14958" lon="6.00797">
        <ele>623.013</ele>
        <time>2019-11-01T08:59:30Z</time>
      </trkpt>
      <trkpt lat="44.14962" lon="6.00796">
        <ele>624.729</ele>
        <time>2019-11-01T08:59:36Z</time>
      </trkpt>
      <trkpt lat="44.14968" lon="6.00798">
        <ele>626.012</ele>
        <time>2019-11-01T08:59:42Z</time>
      </trkpt>
      <trkpt lat="44.14973" lon="6.00799">
        <ele>626.935</ele>
        <time>2019-11-01T08:59:48Z</time>
      </trkpt>
      <trkpt lat="44.14977" lon="6.00803">
        <ele>627.518</ele>
        <time>2019-11-01T08:59:53Z</time>
      </trkpt>
      <trkpt lat="44.1498" lon="6.00807">
        <ele>628.288</ele>
        <time>2019-11-01T08:59:59Z</time>
      </trkpt>
      <trkpt lat="44.1498" lon="6.0081">
        <ele>629.059</ele>
        <time>2019-11-01T09:00:04Z</time>
      </trkpt>
      <trkpt lat="44.14981" lon="6.00813">
        <ele>630.285</ele>
        <time>2019-11-01T09:00:10Z</time>
      </trkpt>
      <trkpt lat="44.14983" lon="6.00823">
        <ele>631.569</ele>
        <time>2019-11-01T09:00:16Z</time>
      </trkpt>
      <trkpt lat="44.14986" lon="6.00833">
        <ele>632.412</ele>
        <time>2019-11-01T09:00:21Z</time>
      </trkpt>
      <trkpt lat="44.1499" lon="6.00842">
        <ele>633.09</ele>
        <time>2019-11-01T09:00:26Z</time>
      </trkpt>
      <trkpt lat="44.14994" lon="6.0085">
        <ele>633.341</ele>
        <time>2019-11-01T09:00:32Z</time>
      </trkpt>
      <trkpt lat="44.14997" lon="6.00851">
        <ele>633.575</ele>
        <time>2019-11-01T09:00:37Z</time>
      </trkpt>
      <trkpt lat="44.14998" lon="6.00853">
        <ele>634.238</ele>
        <time>2019-11-01T09:00:43Z</time>
      </trkpt>
      <trkpt lat="44.15003" lon="6.00856">
        <ele>634.97</ele>
        <time>2019-11-01T09:00:49Z</time>
      </trkpt>
      <trkpt lat="44.15008" lon="6.0086">
        <ele>635.684</ele>
        <time>2019-11-01T09:00:55Z</time>
      </trkpt>
      <trkpt lat="44.15012" lon="6.00864">
        <ele>636.285</ele>
        <time>2019-11-01T09:01:01Z</time>
      </trkpt>
      <trkpt lat="44.15015" lon="6.00868">
        <ele>636.994</ele>
        <time>2019-11-01T09:01:06Z</time>
      </trkpt>
      <trkpt lat="44.15015" lon="6.00871">
        <ele>638.051</ele>
        <time>2019-11-01T09:01:12Z</time>
      </trkpt>
      <trkpt lat="44.15017" lon="6.00877">
        <ele>638.77</ele>
        <time>2019-11-01T09:01:17Z</time>
      </trkpt>
      <trkpt lat="44.15021" lon="6.00888">
        <ele>639.602</ele>
        <time>2019-11-01T09:01:23Z</time>
      </trkpt>
      <trkpt lat="44.15024" lon="6.00895">
        <ele>640.487</ele>
        <time>2019-11-01T09:01:28Z</time>
      </trkpt>
      <trkpt lat="44.15027" lon="6.00909">
        <ele>641.719</ele>
        <time>2019-11-01T09:01:34Z</time>
      </trkpt>
      <trkpt lat="44.15029" lon="6.00918">
        <ele>642.53</ele>
        <time>2019-11-01T09:01:39Z</time>
      </trkpt>
      <trkpt lat="44.1503" lon="6.00923">
        <ele>643.6</ele>
        <time>2019-11-01T09:01:46Z</time>
      </trkpt>
      <trkpt lat="44.15031" lon="6.00929">
        <ele>644.188</ele>
        <time>2019-11-01T09:01:51Z</time>
      </trkpt>
      <trkpt lat="44.15033" lon="6.00934">
        <ele>644.708</ele>
        <time>2019-11-01T09:01:56Z</time>
      </trkpt>
      <trkpt lat="44.15033" lon="6.00934">
        <ele>645.387</ele>
        <time>2019-11-01T09:02:01Z</time>
      </trkpt>
      <trkpt lat="44.15034" lon="6.00937">
        <ele>645.813</ele>
        <time>2019-11-01T09:02:07Z</time>
      </trkpt>
      <trkpt lat="44.15036" lon="6.0094">
        <ele>646.294</ele>
        <time>2019-11-01T09:02:13Z</time>
      </trkpt>
      <trkpt lat="44.1504" lon="6.00943">
        <ele>647.085</ele>
        <time>2019-11-01T09:02:19Z</time>
      </trkpt>
      <trkpt lat="44.15043" lon="6.00944">
        <ele>647.976</ele>
        <time>2019-11-01T09:02:25Z</time>
      </trkpt>
      <trkpt lat="44.15047" lon="6.00945">
        <ele>649.279</ele>
        <time>2019-11-01T09:02:31Z</time>
      </trkpt>
      <trkpt lat="44.15052" lon="6.00948">
        <ele>650.322</ele>
        <time>2019-11-01T09:02:37Z</time>
      </trkpt>
      <trkpt lat="44.15055" lon="6.00949">
        <ele>651.222</ele>
        <time>2019-11-01T09:02:42Z</time>
      </trkpt>
      <trkpt lat="44.1506" lon="6.00948">
        <ele>651.963</ele>
        <time>2019-11-01T09:02:48Z</time>
      </trkpt>
      <trkpt lat="44.15061" lon="6.00943">
        <ele>652.725</ele>
        <time>2019-11-01T09:02:53Z</time>
      </trkpt>
      <trkpt lat="44.15062" lon="6.00941">
        <ele>653.627</ele>
        <time>2019-11-01T09:02:58Z</time>
      </trkpt>
      <trkpt lat="44.15063" lon="6.00934">
        <ele>654.677</ele>
        <time>2019-11-01T09:03:04Z</time>
      </trkpt>
      <trkpt lat="44.15064" lon="6.00937">
        <ele>655.08</ele>
        <time>2019-11-01T09:03:10Z</time>
      </trkpt>
      <trkpt lat="44.15064" lon="6.00939">
        <ele>655.452</ele>
        <time>2019-11-01T09:03:16Z</time>
      </trkpt>
      <trkpt lat="44.15063" lon="6.00941">
        <ele>655.488</ele>
        <time>2019-11-01T09:03:22Z</time>
      </trkpt>
      <trkpt lat="44.15062" lon="6.00943">
        <ele>655.993</ele>
        <time>2019-11-01T09:03:27Z</time>
      </trkpt>
      <trkpt lat="44.15062" lon="6.00939">
        <ele>657.058</ele>
        <time>2019-11-01T09:03:33Z</time>
      </trkpt>
      <trkpt lat="44.15064" lon="6.00926">
        <ele>658.166</ele>
        <time>2019-11-01T09:03:39Z</time>
      </trkpt>
      <trkpt lat="44.15066" lon="6.00914">
        <ele>658.971</ele>
        <time>2019-11-01T09:03:44Z</time>
      </trkpt>
      <trkpt lat="44.15069" lon="6.00903">
        <ele>659.516</ele>
        <time>2019-11-01T09:03:50Z</time>
      </trkpt>
      <trkpt lat="44.15071" lon="6.0089">
        <ele>659.987</ele>
        <time>2019-11-01T09:03:56Z</time>
      </trkpt>
      <trkpt lat="44.15071" lon="6.00879">
        <ele>660.348</ele>
        <time>2019-11-01T09:04:02Z</time>
      </trkpt>
      <trkpt lat="44.15071" lon="6.00866">
        <ele>660.91</ele>
        <time>2019-11-01T09:04:08Z</time>
      </trkpt>
      <trkpt lat="44.15071" lon="6.00849">
        <ele>661.412</ele>
        <time>2019-11-01T09:04:14Z</time>
      </trkpt>
      <trkpt lat="44.15071" lon="6.00837">
        <ele>661.755</ele>
        <time>2019-11-01T09:04:19Z</time>
      </trkpt>
      <trkpt lat="44.1507" lon="6.00822">
        <ele>662.285</ele>
        <time>2019-11-01T09:04:25Z</time>
      </trkpt>
      <trkpt lat="44.15069" lon="6.00808">
        <ele>661.831</ele>
        <time>2019-11-01T09:04:30Z</time>
      </trkpt>
      <trkpt lat="44.1507" lon="6.00797">
        <ele>661.397</ele>
        <time>2019-11-01T09:04:36Z</time>
      </trkpt>
      <trkpt lat="44.1507" lon="6.00785">
        <ele>661.326</ele>
        <time>2019-11-01T09:04:41Z</time>
      </trkpt>
      <trkpt lat="44.1507" lon="6.00775">
        <ele>661.899</ele>
        <time>2019-11-01T09:04:47Z</time>
      </trkpt>
      <trkpt lat="44.1507" lon="6.00764">
        <ele>662.398</ele>
        <time>2019-11-01T09:04:52Z</time>
      </trkpt>
      <trkpt lat="44.1507" lon="6.00754">
        <ele>663.111</ele>
        <time>2019-11-01T09:04:57Z</time>
      </trkpt>
      <trkpt lat="44.1507" lon="6.00742">
        <ele>663.631</ele>
        <time>2019-11-01T09:05:03Z</time>
      </trkpt>
      <trkpt lat="44.15069" lon="6.00728">
        <ele>664.075</ele>
        <time>2019-11-01T09:05:09Z</time>
      </trkpt>
      <trkpt lat="44.15071" lon="6.00718">
        <ele>664.597</ele>
        <time>2019-11-01T09:05:14Z</time>
      </trkpt>
      <trkpt lat="44.1507" lon="6.00709">
        <ele>665.549</ele>
        <time>2019-11-01T09:05:19Z</time>
      </trkpt>
      <trkpt lat="44.15072" lon="6.00699">
        <ele>666.57</ele>
        <time>2019-11-01T09:05:24Z</time>
      </trkpt>
      <trkpt lat="44.15072" lon="6.00689">
        <ele>667.704</ele>
        <time>2019-11-01T09:05:30Z</time>
      </trkpt>
      <trkpt lat="44.15073" lon="6.00684">
        <ele>668.914</ele>
        <time>2019-11-01T09:05:36Z</time>
      </trkpt>
      <trkpt lat="44.15074" lon="6.00678">
        <ele>670.18</ele>
        <time>2019-11-01T09:05:42Z</time>
      </trkpt>
      <trkpt lat="44.15075" lon="6.00676">
        <ele>671.319</ele>
        <time>2019-11-01T09:05:47Z</time>
      </trkpt>
      <trkpt lat="44.15076" lon="6.00673">
        <ele>672.14</ele>
        <time>2019-11-01T09:05:52Z</time>
      </trkpt>
      <trkpt lat="44.1508" lon="6.00671">
        <ele>673.34</ele>
        <time>2019-11-01T09:05:58Z</time>
      </trkpt>
      <trkpt lat="44.15081" lon="6.00668">
        <ele>674.332</ele>
        <time>2019-11-01T09:06:03Z</time>
      </trkpt>
      <trkpt lat="44.15082" lon="6.00667">
        <ele>675.241</ele>
        <time>2019-11-01T09:06:08Z</time>
      </trkpt>
      <trkpt lat="44.15083" lon="6.00665">
        <ele>676.497</ele>
        <time>2019-11-01T09:06:14Z</time>
      </trkpt>
      <trkpt lat="44.15084" lon="6.00662">
        <ele>677.496</ele>
        <time>2019-11-01T09:06:19Z</time>
      </trkpt>
      <trkpt lat="44.15085" lon="6.00662">
        <ele>678.392</ele>
        <time>2019-11-01T09:06:25Z</time>
      </trkpt>
      <trkpt lat="44.15084" lon="6.00666">
        <ele>679.012</ele>
        <time>2019-11-01T09:06:31Z</time>
      </trkpt>
      <trkpt lat="44.15086" lon="6.00666">
        <ele>680.135</ele>
        <time>2019-11-01T09:06:36Z</time>
      </trkpt>
      <trkpt lat="44.15087" lon="6.00664">
        <ele>681.243</ele>
        <time>2019-11-01T09:06:41Z</time>
      </trkpt>
      <trkpt lat="44.15088" lon="6.0066">
        <ele>682.254</ele>
        <time>2019-11-01T09:06:46Z</time>
      </trkpt>
      <trkpt lat="44.1509" lon="6.00655">
        <ele>683.188</ele>
        <time>2019-11-01T09:06:52Z</time>
      </trkpt>
      <trkpt lat="44.1509" lon="6.00649">
        <ele>684.021</ele>
        <time>2019-11-01T09:06:57Z</time>
      </trkpt>
      <trkpt lat="44.15091" lon="6.00643">
        <ele>685.25</ele>
        <time>2019-11-01T09:07:03Z</time>
      </trkpt>
      <trkpt lat="44.15093" lon="6.00637">
        <ele>686.353</ele>
        <time>2019-11-01T09:07:08Z</time>
      </trkpt>
      <trkpt lat="44.15094" lon="6.00631">
        <ele>687.718</ele>
        <time>2019-11-01T09:07:14Z</time>
      </trkpt>
      <trkpt lat="44.15097" lon="6.00624">
        <ele>688.999</ele>
        <time>2019-11-01T09:07:20Z</time>
      </trkpt>
      <trkpt lat="44.15098" lon="6.00621">
        <ele>689.805</ele>
        <time>2019-11-01T09:07:26Z</time>
      </trkpt>
      <trkpt lat="44.15099" lon="6.00619">
        <ele>690.818</ele>
        <time>2019-11-01T09:07:32Z</time>
      </trkpt>
      <trkpt lat="44.15103" lon="6.00613">
        <ele>691.734</ele>
        <time>2019-11-01T09:07:37Z</time>
      </trkpt>
      <trkpt lat="44.15106" lon="6.00608">
        <ele>692.574</ele>
        <time>2019-11-01T09:07:43Z</time>
      </trkpt>
      <trkpt lat="44.15108" lon="6.00604">
        <ele>693.522</ele>
        <time>2019-11-01T09:07:49Z</time>
      </trkpt>
      <trkpt lat="44.1511" lon="6.00601">
        <ele>694.177</ele>
        <time>2019-11-01T09:07:54Z</time>
      </trkpt>
      <trkpt lat="44.15113" lon="6.00596">
        <ele>694.869</ele>
        <time>2019-11-01T09:08:00Z</time>
      </trkpt>
      <trkpt lat="44.15116" lon="6.00592">
        <ele>695.628</ele>
        <time>2019-11-01T09:08:06Z</time>
      </trkpt>
      <trkpt lat="44.15118" lon="6.00589">
        <ele>696.459</ele>
        <time>2019-11-01T09:08:11Z</time>
      </trkpt>
      <trkpt lat="44.15117" lon="6.00585">
        <ele>697.065</ele>
        <time>2019-11-01T09:08:16Z</time>
      </trkpt>
      <trkpt lat="44.15119" lon="6.00584">
        <ele>697.476</ele>
        <time>2019-11-01T09:08:22Z</time>
      </trkpt>
      <trkpt lat="44.15119" lon="6.0058">
        <ele>697.613</ele>
        <time>2019-11-01T09:08:28Z</time>
      </trkpt>
      <trkpt lat="44.1512" lon="6.0058">
        <ele>697.741</ele>
        <time>2019-11-01T09:08:34Z</time>
      </trkpt>
      <trkpt lat="44.1512" lon="6.00583">
        <ele>697.687</ele>
        <time>2019-11-01T09:08:40Z</time>
      </trkpt>
      <trkpt lat="44.15121" lon="6.00585">
        <ele>697.437</ele>
        <time>2019-11-01T09:08:45Z</time>
      </trkpt>
      <trkpt lat="44.15121" lon="6.00585">
        <ele>697.132</ele>
        <time>2019-11-01T09:08:50Z</time>
      </trkpt>
      <trkpt lat="44.15121" lon="6.00583">
        <ele>697.373</ele>
        <time>2019-11-01T09:08:55Z</time>
      </trkpt>
      <trkpt lat="44.1512" lon="6.00583">
        <ele>697.398</ele>
        <time>2019-11-01T09:09:01Z</time>
      </trkpt>
      <trkpt lat="44.1512" lon="6.00583">
        <ele>697.867</ele>
        <time>2019-11-01T09:09:06Z</time>
      </trkpt>
      <trkpt lat="44.1512" lon="6.00582">
        <ele>698.243</ele>
        <time>2019-11-01T09:09:12Z</time>
      </trkpt>
      <trkpt lat="44.15121" lon="6.00583">
        <ele>698.35</ele>
        <time>2019-11-01T09:09:17Z</time>
      </trkpt>
      <trkpt lat="44.15122" lon="6.00584">
        <ele>698.782</ele>
        <time>2019-11-01T09:09:22Z</time>
      </trkpt>
      <trkpt lat="44.15121" lon="6.00583">
        <ele>698.856</ele>
        <time>2019-11-01T09:09:27Z</time>
      </trkpt>
      <trkpt lat="44.1512" lon="6.00582">
        <ele>699.085</ele>
        <time>2019-11-01T09:09:33Z</time>
      </trkpt>
      <trkpt lat="44.1512" lon="6.00581">
        <ele>699.235</ele>
        <time>2019-11-01T09:09:38Z</time>
      </trkpt>
      <trkpt lat="44.1512" lon="6.00582">
        <ele>699.288</ele>
        <time>2019-11-01T09:09:43Z</time>
      </trkpt>
      <trkpt lat="44.1512" lon="6.00582">
        <ele>699.316</ele>
        <time>2019-11-01T09:09:49Z</time>
      </trkpt>
      <trkpt lat="44.1512" lon="6.00582">
        <ele>699.28</ele>
        <time>2019-11-01T09:09:54Z</time>
      </trkpt>
      <trkpt lat="44.1512" lon="6.00582">
        <ele>699.141</ele>
        <time>2019-11-01T09:10:00Z</time>
      </trkpt>
      <trkpt lat="44.15119" lon="6.00582">
        <ele>699.185</ele>
        <time>2019-11-01T09:10:05Z</time>
      </trkpt>
      <trkpt lat="44.15119" lon="6.00582">
        <ele>699.172</ele>
        <time>2019-11-01T09:10:10Z</time>
      </trkpt>
      <trkpt lat="44.15119" lon="6.00583">
        <ele>699.026</ele>
        <time>2019-11-01T09:10:16Z</time>
      </trkpt>
      <trkpt lat="44.15119" lon="6.00584">
        <ele>698.767</ele>
        <time>2019-11-01T09:10:22Z</time>
      </trkpt>
      <trkpt lat="44.15119" lon="6.00585">
        <ele>698.605</ele>
        <time>2019-11-01T09:10:27Z</time>
      </trkpt>
      <trkpt lat="44.15118" lon="6.00585">
        <ele>698.569</ele>
        <time>2019-11-01T09:10:32Z</time>
      </trkpt>
      <trkpt lat="44.15118" lon="6.00585">
        <ele>698.456</ele>
        <time>2019-11-01T09:10:38Z</time>
      </trkpt>
      <trkpt lat="44.15118" lon="6.00585">
        <ele>698.622</ele>
        <time>2019-11-01T09:10:44Z</time>
      </trkpt>
      <trkpt lat="44.15119" lon="6.00583">
        <ele>698.926</ele>
        <time>2019-11-01T09:10:50Z</time>
      </trkpt>
      <trkpt lat="44.15119" lon="6.00583">
        <ele>699.056</ele>
        <time>2019-11-01T09:10:55Z</time>
      </trkpt>
      <trkpt lat="44.1512" lon="6.00582">
        <ele>699.248</ele>
        <time>2019-11-01T09:11:00Z</time>
      </trkpt>
      <trkpt lat="44.15121" lon="6.00582">
        <ele>699.431</ele>
        <time>2019-11-01T09:11:05Z</time>
      </trkpt>
      <trkpt lat="44.15121" lon="6.00584">
        <ele>699.706</ele>
        <time>2019-11-01T09:11:11Z</time>
      </trkpt>
      <trkpt lat="44.15122" lon="6.00585">
        <ele>699.802</ele>
        <time>2019-11-01T09:11:17Z</time>
      </trkpt>
      <trkpt lat="44.15123" lon="6.00585">
        <ele>699.801</ele>
        <time>2019-11-01T09:11:22Z</time>
      </trkpt>
      <trkpt lat="44.15123" lon="6.00587">
        <ele>699.786</ele>
        <time>2019-11-01T09:11:28Z</time>
      </trkpt>
      <trkpt lat="44.15122" lon="6.00586">
        <ele>699.673</ele>
        <time>2019-11-01T09:11:33Z</time>
      </trkpt>
      <trkpt lat="44.15121" lon="6.00587">
        <ele>699.617</ele>
        <time>2019-11-01T09:11:39Z</time>
      </trkpt>
      <trkpt lat="44.15121" lon="6.00588">
        <ele>699.512</ele>
        <time>2019-11-01T09:11:44Z</time>
      </trkpt>
      <trkpt lat="44.15122" lon="6.00588">
        <ele>699.211</ele>
        <time>2019-11-01T09:11:50Z</time>
      </trkpt>
      <trkpt lat="44.15122" lon="6.00588">
        <ele>699.185</ele>
        <time>2019-11-01T09:11:55Z</time>
      </trkpt>
      <trkpt lat="44.15122" lon="6.00588">
        <ele>698.968</ele>
        <time>2019-11-01T09:12:01Z</time>
      </trkpt>
      <trkpt lat="44.15121" lon="6.00588">
        <ele>698.931</ele>
        <time>2019-11-01T09:12:06Z</time>
      </trkpt>
      <trkpt lat="44.15118" lon="6.00587">
        <ele>698.476</ele>
        <time>2019-11-01T09:12:12Z</time>
      </trkpt>
      <trkpt lat="44.15118" lon="6.00586">
        <ele>698.405</ele>
        <time>2019-11-01T09:12:17Z</time>
      </trkpt>
      <trkpt lat="44.15118" lon="6.00585">
        <ele>698.579</ele>
        <time>2019-11-01T09:12:23Z</time>
      </trkpt>
      <trkpt lat="44.15118" lon="6.00585">
        <ele>698.757</ele>
        <time>2019-11-01T09:12:28Z</time>
      </trkpt>
      <trkpt lat="44.15118" lon="6.00584">
        <ele>699.169</ele>
        <time>2019-11-01T09:12:34Z</time>
      </trkpt>
      <trkpt lat="44.15119" lon="6.00586">
        <ele>700.011</ele>
        <time>2019-11-01T09:12:40Z</time>
      </trkpt>
      <trkpt lat="44.15123" lon="6.00582">
        <ele>700.829</ele>
        <time>2019-11-01T09:12:45Z</time>
      </trkpt>
      <trkpt lat="44.15128" lon="6.00575">
        <ele>701.237</ele>
        <time>2019-11-01T09:12:50Z</time>
      </trkpt>
      <trkpt lat="44.15142" lon="6.0056">
        <ele>701.04</ele>
        <time>2019-11-01T09:12:56Z</time>
      </trkpt>
      <trkpt lat="44.15141" lon="6.00541">
        <ele>700.646</ele>
        <time>2019-11-01T09:13:01Z</time>
      </trkpt>
      <trkpt lat="44.15153" lon="6.00533">
        <ele>699.992</ele>
        <time>2019-11-01T09:13:06Z</time>
      </trkpt>
      <trkpt lat="44.15181" lon="6.00552">
        <ele>692.258</ele>
        <time>2019-11-01T09:13:12Z</time>
      </trkpt>
      <trkpt lat="44.15204" lon="6.00564">
        <ele>686.531</ele>
        <time>2019-11-01T09:13:17Z</time>
      </trkpt>
      <trkpt lat="44.15217" lon="6.00575">
        <ele>683.271</ele>
        <time>2019-11-01T09:13:22Z</time>
      </trkpt>
      <trkpt lat="44.15239" lon="6.00577">
        <ele>682.023</ele>
        <time>2019-11-01T09:13:28Z</time>
      </trkpt>
      <trkpt lat="44.15263" lon="6.00589">
        <ele>671.809</ele>
        <time>2019-11-01T09:13:34Z</time>
      </trkpt>
      <trkpt lat="44.15267" lon="6.00591">
        <ele>671.467</ele>
        <time>2019-11-01T09:13:39Z</time>
      </trkpt>
      <trkpt lat="44.15268" lon="6.00592">
        <ele>670.634</ele>
        <time>2019-11-01T09:13:45Z</time>
      </trkpt>
      <trkpt lat="44.15287" lon="6.00603">
        <ele>666.381</ele>
        <time>2019-11-01T09:13:51Z</time>
      </trkpt>
      <trkpt lat="44.15309" lon="6.00621">
        <ele>655.702</ele>
        <time>2019-11-01T09:13:57Z</time>
      </trkpt>
      <trkpt lat="44.15332" lon="6.00636">
        <ele>650.561</ele>
        <time>2019-11-01T09:14:02Z</time>
      </trkpt>
      <trkpt lat="44.15357" lon="6.00654">
        <ele>647.124</ele>
        <time>2019-11-01T09:14:08Z</time>
      </trkpt>
      <trkpt lat="44.15385" lon="6.00633">
        <ele>642.196</ele>
        <time>2019-11-01T09:14:14Z</time>
      </trkpt>
      <trkpt lat="44.15404" lon="6.00622">
        <ele>640.863</ele>
        <time>2019-11-01T09:14:19Z</time>
      </trkpt>
      <trkpt lat="44.15429" lon="6.00625">
        <ele>637.443</ele>
        <time>2019-11-01T09:14:25Z</time>
      </trkpt>
      <trkpt lat="44.15461" lon="6.00625">
        <ele>630.658</ele>
        <time>2019-11-01T09:14:31Z</time>
      </trkpt>
      <trkpt lat="44.1548" lon="6.00604">
        <ele>626.229</ele>
        <time>2019-11-01T09:14:37Z</time>
      </trkpt>
      <trkpt lat="44.15501" lon="6.00625">
        <ele>620.368</ele>
        <time>2019-11-01T09:14:43Z</time>
      </trkpt>
      <trkpt lat="44.15525" lon="6.0064">
        <ele>613.215</ele>
        <time>2019-11-01T09:14:48Z</time>
      </trkpt>
      <trkpt lat="44.15567" lon="6.00626">
        <ele>606.97</ele>
        <time>2019-11-01T09:14:54Z</time>
      </trkpt>
      <trkpt lat="44.15592" lon="6.00613">
        <ele>601.328</ele>
        <time>2019-11-01T09:14:59Z</time>
      </trkpt>
      <trkpt lat="44.15631" lon="6.0059">
        <ele>595.429</ele>
        <time>2019-11-01T09:15:05Z</time>
      </trkpt>
      <trkpt lat="44.15681" lon="6.00552">
        <ele>589.377</ele>
        <time>2019-11-01T09:15:11Z</time>
      </trkpt>
      <trkpt lat="44.1571" lon="6.00514">
        <ele>586.573</ele>
        <time>2019-11-01T09:15:16Z</time>
      </trkpt>
      <trkpt lat="44.15732" lon="6.00528">
        <ele>585.985</ele>
        <time>2019-11-01T09:15:22Z</time>
      </trkpt>
      <trkpt lat="44.15737" lon="6.00539">
        <ele>585.177</ele>
        <time>2019-11-01T09:15:27Z</time>
      </trkpt>
      <trkpt lat="44.15741" lon="6.00544">
        <ele>584.803</ele>
        <time>2019-11-01T09:15:32Z</time>
      </trkpt>
      <trkpt lat="44.15742" lon="6.00545">
        <ele>584.126</ele>
        <time>2019-11-01T09:15:38Z</time>
      </trkpt>
      <trkpt lat="44.15742" lon="6.00545">
        <ele>583.603</ele>
        <time>2019-11-01T09:15:43Z</time>
      </trkpt>
      <trkpt lat="44.15742" lon="6.00545">
        <ele>583.029</ele>
        <time>2019-11-01T09:15:49Z</time>
      </trkpt>
      <trkpt lat="44.15742" lon="6.00545">
        <ele>582.711</ele>
        <time>2019-11-01T09:15:54Z</time>
      </trkpt>
      <trkpt lat="44.15742" lon="6.00545">
        <ele>582.125</ele>
        <time>2019-11-01T09:16:00Z</time>
      </trkpt>
      <trkpt lat="44.15742" lon="6.00545">
        <ele>581.634</ele>
        <time>2019-11-01T09:16:05Z</time>
      </trkpt>
      <trkpt lat="44.15742" lon="6.00545">
        <ele>581.532</ele>
        <time>2019-11-01T09:16:11Z</time>
      </trkpt>
      <trkpt lat="44.15742" lon="6.00545">
        <ele>581.518</ele>
        <time>2019-11-01T09:16:16Z</time>
      </trkpt>
      <trkpt lat="44.15743" lon="6.00551">
        <ele>581.485</ele>
        <time>2019-11-01T09:16:22Z</time>
      </trkpt>
      <trkpt lat="44.15743" lon="6.00551">
        <ele>581.418</ele>
        <time>2019-11-01T09:16:27Z</time>
      </trkpt>
      <trkpt lat="44.15743" lon="6.00551">
        <ele>581.411</ele>
        <time>2019-11-01T09:16:33Z</time>
      </trkpt>
      <trkpt lat="44.15754" lon="6.00566">
        <ele>581.42</ele>
        <time>2019-11-01T09:16:39Z</time>
      </trkpt>
      <trkpt lat="44.15761" lon="6.00582">
        <ele>581.594</ele>
        <time>2019-11-01T09:16:45Z</time>
      </trkpt>
      <trkpt lat="44.15767" lon="6.00597">
        <ele>581.723</ele>
        <time>2019-11-01T09:16:50Z</time>
      </trkpt>
      <trkpt lat="44.15776" lon="6.00611">
        <ele>581.972</ele>
        <time>2019-11-01T09:16:55Z</time>
      </trkpt>
      <trkpt lat="44.15785" lon="6.00629">
        <ele>582.334</ele>
        <time>2019-11-01T09:17:01Z</time>
      </trkpt>
      <trkpt lat="44.15797" lon="6.00649">
        <ele>582.865</ele>
        <time>2019-11-01T09:17:07Z</time>
      </trkpt>
      <trkpt lat="44.15805" lon="6.00662">
        <ele>583.348</ele>
        <time>2019-11-01T09:17:12Z</time>
      </trkpt>
      <trkpt lat="44.15812" lon="6.00677">
        <ele>583.904</ele>
        <time>2019-11-01T09:17:17Z</time>
      </trkpt>
      <trkpt lat="44.15821" lon="6.00694">
        <ele>584.712</ele>
        <time>2019-11-01T09:17:23Z</time>
      </trkpt>
      <trkpt lat="44.1583" lon="6.00711">
        <ele>585.62</ele>
        <time>2019-11-01T09:17:29Z</time>
      </trkpt>
      <trkpt lat="44.1584" lon="6.00727">
        <ele>586.561</ele>
        <time>2019-11-01T09:17:35Z</time>
      </trkpt>
      <trkpt lat="44.15846" lon="6.00741">
        <ele>587.335</ele>
        <time>2019-11-01T09:17:40Z</time>
      </trkpt>
      <trkpt lat="44.15853" lon="6.00754">
        <ele>587.978</ele>
        <time>2019-11-01T09:17:45Z</time>
      </trkpt>
      <trkpt lat="44.15863" lon="6.00754">
        <ele>588.677</ele>
        <time>2019-11-01T09:17:51Z</time>
      </trkpt>
      <trkpt lat="44.15868" lon="6.00715">
        <ele>590.917</ele>
        <time>2019-11-01T09:17:57Z</time>
      </trkpt>
      <trkpt lat="44.15874" lon="6.00655">
        <ele>587.438</ele>
        <time>2019-11-01T09:18:03Z</time>
      </trkpt>
      <trkpt lat="44.15885" lon="6.00594">
        <ele>582.306</ele>
        <time>2019-11-01T09:18:08Z</time>
      </trkpt>
      <trkpt lat="44.15908" lon="6.00582">
        <ele>579.967</ele>
        <time>2019-11-01T09:18:14Z</time>
      </trkpt>
      <trkpt lat="44.15907" lon="6.00548">
        <ele>575.818</ele>
        <time>2019-11-01T09:18:19Z</time>
      </trkpt>
      <trkpt lat="44.15895" lon="6.0049">
        <ele>571.076</ele>
        <time>2019-11-01T09:18:24Z</time>
      </trkpt>
      <trkpt lat="44.15904" lon="6.00454">
        <ele>566.392</ele>
        <time>2019-11-01T09:18:30Z</time>
      </trkpt>
      <trkpt lat="44.15917" lon="6.0044">
        <ele>566.014</ele>
        <time>2019-11-01T09:18:35Z</time>
      </trkpt>
      <trkpt lat="44.15934" lon="6.00418">
        <ele>563.583</ele>
        <time>2019-11-01T09:18:41Z</time>
      </trkpt>
      <trkpt lat="44.15945" lon="6.004">
        <ele>563.391</ele>
        <time>2019-11-01T09:18:46Z</time>
      </trkpt>
      <trkpt lat="44.15955" lon="6.00385">
        <ele>563.468</ele>
        <time>2019-11-01T09:18:52Z</time>
      </trkpt>
      <trkpt lat="44.15968" lon="6.00365">
        <ele>563.578</ele>
        <time>2019-11-01T09:18:58Z</time>
      </trkpt>
      <trkpt lat="44.1598" lon="6.00346">
        <ele>563.583</ele>
        <time>2019-11-01T09:19:03Z</time>
      </trkpt>
      <trkpt lat="44.15993" lon="6.00316">
        <ele>563.751</ele>
        <time>2019-11-01T09:19:09Z</time>
      </trkpt>
      <trkpt lat="44.16006" lon="6.00281">
        <ele>562.947</ele>
        <time>2019-11-01T09:19:15Z</time>
      </trkpt>
      <trkpt lat="44.16029" lon="6.00244">
        <ele>562.247</ele>
        <time>2019-11-01T09:19:21Z</time>
      </trkpt>
      <trkpt lat="44.1605" lon="6.00199">
        <ele>560.903</ele>
        <time>2019-11-01T09:19:27Z</time>
      </trkpt>
      <trkpt lat="44.16064" lon="6.00163">
        <ele>560.927</ele>
        <time>2019-11-01T09:19:32Z</time>
      </trkpt>
      <trkpt lat="44.16035" lon="6.00155">
        <ele>556.92</ele>
        <time>2019-11-01T09:19:37Z</time>
      </trkpt>
      <trkpt lat="44.15979" lon="6.00155">
        <ele>552.67</ele>
        <time>2019-11-01T09:19:43Z</time>
      </trkpt>
      <trkpt lat="44.15933" lon="6.0015">
        <ele>549.134</ele>
        <time>2019-11-01T09:19:49Z</time>
      </trkpt>
      <trkpt lat="44.15899" lon="6.0016">
        <ele>548.186</ele>
        <time>2019-11-01T09:19:54Z</time>
      </trkpt>
      <trkpt lat="44.15863" lon="6.00157">
        <ele>548.545</ele>
        <time>2019-11-01T09:20:00Z</time>
      </trkpt>
      <trkpt lat="44.15849" lon="6.00105">
        <ele>546.736</ele>
        <time>2019-11-01T09:20:05Z</time>
      </trkpt>
      <trkpt lat="44.15821" lon="6.00039">
        <ele>540.973</ele>
        <time>2019-11-01T09:20:11Z</time>
      </trkpt>
      <trkpt lat="44.15813" lon="5.99969">
        <ele>535.894</ele>
        <time>2019-11-01T09:20:17Z</time>
      </trkpt>
      <trkpt lat="44.15811" lon="5.99914">
        <ele>534.251</ele>
        <time>2019-11-01T09:20:23Z</time>
      </trkpt>
      <trkpt lat="44.15806" lon="5.99888">
        <ele>534.703</ele>
        <time>2019-11-01T09:20:28Z</time>
      </trkpt>
      <trkpt lat="44.15801" lon="5.99871">
        <ele>535.231</ele>
        <time>2019-11-01T09:20:33Z</time>
      </trkpt>
      <trkpt lat="44.1579" lon="5.99848">
        <ele>536.128</ele>
        <time>2019-11-01T09:20:39Z</time>
      </trkpt>
      <trkpt lat="44.15776" lon="5.99831">
        <ele>537.084</ele>
        <time>2019-11-01T09:20:45Z</time>
      </trkpt>
      <trkpt lat="44.15759" lon="5.99808">
        <ele>541.442</ele>
        <time>2019-11-01T09:20:51Z</time>
      </trkpt>
      <trkpt lat="44.15745" lon="5.99777">
        <ele>543.429</ele>
        <time>2019-11-01T09:20:57Z</time>
      </trkpt>
      <trkpt lat="44.15749" lon="5.99746">
        <ele>544.344</ele>
        <time>2019-11-01T09:21:02Z</time>
      </trkpt>
      <trkpt lat="44.15761" lon="5.99716">
        <ele>547.008</ele>
        <time>2019-11-01T09:21:08Z</time>
      </trkpt>
      <trkpt lat="44.15776" lon="5.997">
        <ele>547.485</ele>
        <time>2019-11-01T09:21:14Z</time>
      </trkpt>
      <trkpt lat="44.1578" lon="5.99671">
        <ele>548.269</ele>
        <time>2019-11-01T09:21:20Z</time>
      </trkpt>
      <trkpt lat="44.15778" lon="5.99632">
        <ele>548.416</ele>
        <time>2019-11-01T09:21:26Z</time>
      </trkpt>
      <trkpt lat="44.15784" lon="5.99606">
        <ele>548.94</ele>
        <time>2019-11-01T09:21:31Z</time>
      </trkpt>
      <trkpt lat="44.15794" lon="5.99579">
        <ele>549.588</ele>
        <time>2019-11-01T09:21:37Z</time>
      </trkpt>
      <trkpt lat="44.15799" lon="5.99551">
        <ele>549.565</ele>
        <time>2019-11-01T09:21:43Z</time>
      </trkpt>
      <trkpt lat="44.15802" lon="5.99528">
        <ele>549.589</ele>
        <time>2019-11-01T09:21:48Z</time>
      </trkpt>
      <trkpt lat="44.15802" lon="5.99504">
        <ele>549.598</ele>
        <time>2019-11-01T09:21:53Z</time>
      </trkpt>
      <trkpt lat="44.15804" lon="5.99478">
        <ele>549.682</ele>
        <time>2019-11-01T09:21:59Z</time>
      </trkpt>
      <trkpt lat="44.15811" lon="5.99457">
        <ele>549.958</ele>
        <time>2019-11-01T09:22:05Z</time>
      </trkpt>
      <trkpt lat="44.15817" lon="5.99443">
        <ele>550.387</ele>
        <time>2019-11-01T09:22:10Z</time>
      </trkpt>
      <trkpt lat="44.15828" lon="5.99426">
        <ele>551.175</ele>
        <time>2019-11-01T09:22:16Z</time>
      </trkpt>
      <trkpt lat="44.15838" lon="5.99411">
        <ele>551.884</ele>
        <time>2019-11-01T09:22:22Z</time>
      </trkpt>
      <trkpt lat="44.15845" lon="5.99398">
        <ele>552.876</ele>
        <time>2019-11-01T09:22:27Z</time>
      </trkpt>
      <trkpt lat="44.15852" lon="5.99383">
        <ele>554.119</ele>
        <time>2019-11-01T09:22:32Z</time>
      </trkpt>
      <trkpt lat="44.15861" lon="5.99365">
        <ele>555.719</ele>
        <time>2019-11-01T09:22:38Z</time>
      </trkpt>
      <trkpt lat="44.15872" lon="5.99347">
        <ele>557.228</ele>
        <time>2019-11-01T09:22:44Z</time>
      </trkpt>
      <trkpt lat="44.15884" lon="5.99332">
        <ele>558.671</ele>
        <time>2019-11-01T09:22:50Z</time>
      </trkpt>
      <trkpt lat="44.15892" lon="5.99317">
        <ele>559.575</ele>
        <time>2019-11-01T09:22:55Z</time>
      </trkpt>
      <trkpt lat="44.15898" lon="5.99298">
        <ele>560.568</ele>
        <time>2019-11-01T09:23:01Z</time>
      </trkpt>
      <trkpt lat="44.15904" lon="5.9928">
        <ele>561.265</ele>
        <time>2019-11-01T09:23:06Z</time>
      </trkpt>
      <trkpt lat="44.15913" lon="5.99265">
        <ele>562.342</ele>
        <time>2019-11-01T09:23:12Z</time>
      </trkpt>
      <trkpt lat="44.15922" lon="5.9925">
        <ele>563.506</ele>
        <time>2019-11-01T09:23:18Z</time>
      </trkpt>
      <trkpt lat="44.15932" lon="5.99236">
        <ele>564.425</ele>
        <time>2019-11-01T09:23:24Z</time>
      </trkpt>
      <trkpt lat="44.15941" lon="5.99224">
        <ele>565.082</ele>
        <time>2019-11-01T09:23:29Z</time>
      </trkpt>
      <trkpt lat="44.15951" lon="5.9921">
        <ele>565.787</ele>
        <time>2019-11-01T09:23:35Z</time>
      </trkpt>
      <trkpt lat="44.1596" lon="5.99198">
        <ele>566.372</ele>
        <time>2019-11-01T09:23:40Z</time>
      </trkpt>
      <trkpt lat="44.15967" lon="5.9918">
        <ele>567.047</ele>
        <time>2019-11-01T09:23:46Z</time>
      </trkpt>
      <trkpt lat="44.15971" lon="5.99163">
        <ele>567.627</ele>
        <time>2019-11-01T09:23:51Z</time>
      </trkpt>
      <trkpt lat="44.1597" lon="5.99146">
        <ele>568.259</ele>
        <time>2019-11-01T09:23:56Z</time>
      </trkpt>
      <trkpt lat="44.15969" lon="5.99129">
        <ele>568.885</ele>
        <time>2019-11-01T09:24:01Z</time>
      </trkpt>
      <trkpt lat="44.15964" lon="5.99113">
        <ele>569.649</ele>
        <time>2019-11-01T09:24:07Z</time>
      </trkpt>
      <trkpt lat="44.15962" lon="5.99098">
        <ele>570.284</ele>
        <time>2019-11-01T09:24:12Z</time>
      </trkpt>
      <trkpt lat="44.15961" lon="5.9908">
        <ele>571.133</ele>
        <time>2019-11-01T09:24:18Z</time>
      </trkpt>
      <trkpt lat="44.15962" lon="5.99066">
        <ele>572.054</ele>
        <time>2019-11-01T09:24:23Z</time>
      </trkpt>
      <trkpt lat="44.15965" lon="5.99053">
        <ele>573.124</ele>
        <time>2019-11-01T09:24:28Z</time>
      </trkpt>
      <trkpt lat="44.15967" lon="5.99037">
        <ele>574.372</ele>
        <time>2019-11-01T09:24:34Z</time>
      </trkpt>
      <trkpt lat="44.15971" lon="5.9902">
        <ele>575.569</ele>
        <time>2019-11-01T09:24:40Z</time>
      </trkpt>
      <trkpt lat="44.15975" lon="5.99005">
        <ele>576.59</ele>
        <time>2019-11-01T09:24:45Z</time>
      </trkpt>
      <trkpt lat="44.15979" lon="5.98989">
        <ele>577.567</ele>
        <time>2019-11-01T09:24:50Z</time>
      </trkpt>
      <trkpt lat="44.15981" lon="5.98974">
        <ele>578.425</ele>
        <time>2019-11-01T09:24:55Z</time>
      </trkpt>
      <trkpt lat="44.15982" lon="5.98958">
        <ele>579.151</ele>
        <time>2019-11-01T09:25:00Z</time>
      </trkpt>
      <trkpt lat="44.15981" lon="5.98941">
        <ele>579.999</ele>
        <time>2019-11-01T09:25:06Z</time>
      </trkpt>
      <trkpt lat="44.1598" lon="5.98927">
        <ele>580.778</ele>
        <time>2019-11-01T09:25:11Z</time>
      </trkpt>
      <trkpt lat="44.15978" lon="5.98909">
        <ele>581.781</ele>
        <time>2019-11-01T09:25:17Z</time>
      </trkpt>
      <trkpt lat="44.15975" lon="5.98892">
        <ele>582.738</ele>
        <time>2019-11-01T09:25:23Z</time>
      </trkpt>
      <trkpt lat="44.15973" lon="5.98879">
        <ele>583.604</ele>
        <time>2019-11-01T09:25:28Z</time>
      </trkpt>
      <trkpt lat="44.15971" lon="5.98866">
        <ele>584.421</ele>
        <time>2019-11-01T09:25:33Z</time>
      </trkpt>
      <trkpt lat="44.15968" lon="5.98847">
        <ele>585.37</ele>
        <time>2019-11-01T09:25:39Z</time>
      </trkpt>
      <trkpt lat="44.15962" lon="5.98807">
        <ele>590.326</ele>
        <time>2019-11-01T09:25:45Z</time>
      </trkpt>
      <trkpt lat="44.15942" lon="5.98744">
        <ele>589.101</ele>
        <time>2019-11-01T09:25:51Z</time>
      </trkpt>
      <trkpt lat="44.15918" lon="5.98665">
        <ele>584.936</ele>
        <time>2019-11-01T09:25:57Z</time>
      </trkpt>
      <trkpt lat="44.15884" lon="5.98578">
        <ele>580.478</ele>
        <time>2019-11-01T09:26:03Z</time>
      </trkpt>
      <trkpt lat="44.15851" lon="5.98517">
        <ele>578.043</ele>
        <time>2019-11-01T09:26:08Z</time>
      </trkpt>
      <trkpt lat="44.15796" lon="5.98479">
        <ele>573.698</ele>
        <time>2019-11-01T09:26:14Z</time>
      </trkpt>
      <trkpt lat="44.15758" lon="5.98446">
        <ele>571.697</ele>
        <time>2019-11-01T09:26:19Z</time>
      </trkpt>
      <trkpt lat="44.15745" lon="5.98389">
        <ele>569.712</ele>
        <time>2019-11-01T09:26:25Z</time>
      </trkpt>
      <trkpt lat="44.15748" lon="5.98359">
        <ele>570.623</ele>
        <time>2019-11-01T09:26:30Z</time>
      </trkpt>
      <trkpt lat="44.15757" lon="5.98333">
        <ele>570.994</ele>
        <time>2019-11-01T09:26:36Z</time>
      </trkpt>
      <trkpt lat="44.15766" lon="5.98312">
        <ele>572.491</ele>
        <time>2019-11-01T09:26:41Z</time>
      </trkpt>
      <trkpt lat="44.15778" lon="5.98287">
        <ele>574.45</ele>
        <time>2019-11-01T09:26:47Z</time>
      </trkpt>
      <trkpt lat="44.15791" lon="5.9826">
        <ele>577.397</ele>
        <time>2019-11-01T09:26:53Z</time>
      </trkpt>
      <trkpt lat="44.15804" lon="5.98238">
        <ele>578.171</ele>
        <time>2019-11-01T09:26:58Z</time>
      </trkpt>
      <trkpt lat="44.15819" lon="5.9821">
        <ele>579.074</ele>
        <time>2019-11-01T09:27:04Z</time>
      </trkpt>
      <trkpt lat="44.15837" lon="5.98183">
        <ele>579.102</ele>
        <time>2019-11-01T09:27:10Z</time>
      </trkpt>
      <trkpt lat="44.15857" lon="5.98155">
        <ele>579.046</ele>
        <time>2019-11-01T09:27:16Z</time>
      </trkpt>
      <trkpt lat="44.15875" lon="5.98118">
        <ele>578.214</ele>
        <time>2019-11-01T09:27:22Z</time>
      </trkpt>
      <trkpt lat="44.15887" lon="5.98077">
        <ele>576.186</ele>
        <time>2019-11-01T09:27:27Z</time>
      </trkpt>
      <trkpt lat="44.15897" lon="5.98023">
        <ele>574.633</ele>
        <time>2019-11-01T09:27:33Z</time>
      </trkpt>
      <trkpt lat="44.15905" lon="5.97968">
        <ele>572.325</ele>
        <time>2019-11-01T09:27:38Z</time>
      </trkpt>
      <trkpt lat="44.15921" lon="5.97896">
        <ele>570.735</ele>
        <time>2019-11-01T09:27:44Z</time>
      </trkpt>
      <trkpt lat="44.15927" lon="5.97837">
        <ele>568.705</ele>
        <time>2019-11-01T09:27:49Z</time>
      </trkpt>
      <trkpt lat="44.15923" lon="5.9778">
        <ele>566.979</ele>
        <time>2019-11-01T09:27:55Z</time>
      </trkpt>
      <trkpt lat="44.15914" lon="5.97745">
        <ele>567.246</ele>
        <time>2019-11-01T09:28:01Z</time>
      </trkpt>
      <trkpt lat="44.15907" lon="5.97724">
        <ele>567.536</ele>
        <time>2019-11-01T09:28:06Z</time>
      </trkpt>
      <trkpt lat="44.15897" lon="5.97698">
        <ele>569.219</ele>
        <time>2019-11-01T09:28:12Z</time>
      </trkpt>
      <trkpt lat="44.15886" lon="5.9767">
        <ele>571.532</ele>
        <time>2019-11-01T09:28:18Z</time>
      </trkpt>
      <trkpt lat="44.15877" lon="5.97639">
        <ele>573.089</ele>
        <time>2019-11-01T09:28:24Z</time>
      </trkpt>
      <trkpt lat="44.15868" lon="5.97605">
        <ele>573.415</ele>
        <time>2019-11-01T09:28:30Z</time>
      </trkpt>
      <trkpt lat="44.15859" lon="5.97567">
        <ele>572.166</ele>
        <time>2019-11-01T09:28:36Z</time>
      </trkpt>
      <trkpt lat="44.15852" lon="5.97536">
        <ele>573.109</ele>
        <time>2019-11-01T09:28:41Z</time>
      </trkpt>
      <trkpt lat="44.15842" lon="5.97497">
        <ele>573.851</ele>
        <time>2019-11-01T09:28:47Z</time>
      </trkpt>
      <trkpt lat="44.15832" lon="5.97456">
        <ele>573.767</ele>
        <time>2019-11-01T09:28:53Z</time>
      </trkpt>
      <trkpt lat="44.15823" lon="5.97418">
        <ele>573.383</ele>
        <time>2019-11-01T09:28:58Z</time>
      </trkpt>
      <trkpt lat="44.1581" lon="5.97366">
        <ele>572.603</ele>
        <time>2019-11-01T09:29:04Z</time>
      </trkpt>
      <trkpt lat="44.15797" lon="5.97315">
        <ele>572.141</ele>
        <time>2019-11-01T09:29:10Z</time>
      </trkpt>
      <trkpt lat="44.15787" lon="5.97276">
        <ele>572.084</ele>
        <time>2019-11-01T09:29:15Z</time>
      </trkpt>
      <trkpt lat="44.15774" lon="5.97235">
        <ele>572.783</ele>
        <time>2019-11-01T09:29:21Z</time>
      </trkpt>
      <trkpt lat="44.1576" lon="5.97197">
        <ele>573.962</ele>
        <time>2019-11-01T09:29:27Z</time>
      </trkpt>
      <trkpt lat="44.15747" lon="5.97166">
        <ele>573.376</ele>
        <time>2019-11-01T09:29:32Z</time>
      </trkpt>
      <trkpt lat="44.15732" lon="5.97131">
        <ele>575.595</ele>
        <time>2019-11-01T09:29:38Z</time>
      </trkpt>
      <trkpt lat="44.1572" lon="5.97099">
        <ele>575.755</ele>
        <time>2019-11-01T09:29:44Z</time>
      </trkpt>
      <trkpt lat="44.15716" lon="5.97077">
        <ele>575.592</ele>
        <time>2019-11-01T09:29:49Z</time>
      </trkpt>
      <trkpt lat="44.15715" lon="5.97068">
        <ele>575.613</ele>
        <time>2019-11-01T09:29:54Z</time>
      </trkpt>
      <trkpt lat="44.15703" lon="5.9705">
        <ele>575.433</ele>
        <time>2019-11-01T09:30:00Z</time>
      </trkpt>
      <trkpt lat="44.15689" lon="5.97026">
        <ele>574.69</ele>
        <time>2019-11-01T09:30:06Z</time>
      </trkpt>
      <trkpt lat="44.15677" lon="5.96998">
        <ele>574.77</ele>
        <time>2019-11-01T09:30:12Z</time>
      </trkpt>
      <trkpt lat="44.15665" lon="5.96964">
        <ele>576.099</ele>
        <time>2019-11-01T09:30:18Z</time>
      </trkpt>
      <trkpt lat="44.15656" lon="5.96923">
        <ele>575.12</ele>
        <time>2019-11-01T09:30:24Z</time>
      </trkpt>
      <trkpt lat="44.15643" lon="5.96897">
        <ele>574.936</ele>
        <time>2019-11-01T09:30:29Z</time>
      </trkpt>
      <trkpt lat="44.15619" lon="5.96904">
        <ele>574.407</ele>
        <time>2019-11-01T09:30:35Z</time>
      </trkpt>
      <trkpt lat="44.15595" lon="5.96912">
        <ele>573.699</ele>
        <time>2019-11-01T09:30:40Z</time>
      </trkpt>
      <trkpt lat="44.15562" lon="5.96925">
        <ele>572.395</ele>
        <time>2019-11-01T09:30:46Z</time>
      </trkpt>
      <trkpt lat="44.15537" lon="5.96939">
        <ele>572.701</ele>
        <time>2019-11-01T09:30:51Z</time>
      </trkpt>
      <trkpt lat="44.15507" lon="5.96961">
        <ele>572.87</ele>
        <time>2019-11-01T09:30:57Z</time>
      </trkpt>
      <trkpt lat="44.15482" lon="5.96981">
        <ele>572.209</ele>
        <time>2019-11-01T09:31:02Z</time>
      </trkpt>
      <trkpt lat="44.15459" lon="5.97005">
        <ele>572.272</ele>
        <time>2019-11-01T09:31:07Z</time>
      </trkpt>
      <trkpt lat="44.15429" lon="5.97037">
        <ele>572.466</ele>
        <time>2019-11-01T09:31:13Z</time>
      </trkpt>
      <trkpt lat="44.15399" lon="5.97071">
        <ele>572.621</ele>
        <time>2019-11-01T09:31:19Z</time>
      </trkpt>
      <trkpt lat="44.15367" lon="5.971">
        <ele>571.719</ele>
        <time>2019-11-01T09:31:25Z</time>
      </trkpt>
      <trkpt lat="44.15334" lon="5.97126">
        <ele>570.592</ele>
        <time>2019-11-01T09:31:31Z</time>
      </trkpt>
      <trkpt lat="44.15305" lon="5.97146">
        <ele>570.371</ele>
        <time>2019-11-01T09:31:37Z</time>
      </trkpt>
      <trkpt lat="44.15277" lon="5.97164">
        <ele>570.214</ele>
        <time>2019-11-01T09:31:43Z</time>
      </trkpt>
      <trkpt lat="44.15265" lon="5.97184">
        <ele>570.132</ele>
        <time>2019-11-01T09:31:48Z</time>
      </trkpt>
      <trkpt lat="44.15272" lon="5.97207">
        <ele>570.76</ele>
        <time>2019-11-01T09:31:53Z</time>
      </trkpt>
      <trkpt lat="44.15283" lon="5.97235">
        <ele>571.993</ele>
        <time>2019-11-01T09:31:59Z</time>
      </trkpt>
      <trkpt lat="44.15287" lon="5.97246">
        <ele>572.044</ele>
        <time>2019-11-01T09:32:04Z</time>
      </trkpt>
      <trkpt lat="44.15287" lon="5.97246">
        <ele>572.029</ele>
        <time>2019-11-01T09:32:09Z</time>
      </trkpt>
      <trkpt lat="44.15287" lon="5.97246">
        <ele>571.96</ele>
        <time>2019-11-01T09:32:15Z</time>
      </trkpt>
      <trkpt lat="44.15287" lon="5.97246">
        <ele>572.007</ele>
        <time>2019-11-01T09:32:21Z</time>
      </trkpt>
      <trkpt lat="44.15287" lon="5.97246">
        <ele>571.975</ele>
        <time>2019-11-01T09:32:27Z</time>
      </trkpt>
      <trkpt lat="44.15287" lon="5.97246">
        <ele>572.104</ele>
        <time>2019-11-01T09:32:33Z</time>
      </trkpt>
      <trkpt lat="44.15287" lon="5.97246">
        <ele>572.035</ele>
        <time>2019-11-01T09:32:39Z</time>
      </trkpt>
      <trkpt lat="44.15287" lon="5.97246">
        <ele>571.997</ele>
        <time>2019-11-01T09:32:44Z</time>
      </trkpt>
      <trkpt lat="44.15287" lon="5.97246">
        <ele>571.938</ele>
        <time>2019-11-01T09:32:50Z</time>
      </trkpt>
      <trkpt lat="44.15287" lon="5.97246">
        <ele>571.816</ele>
        <time>2019-11-01T09:32:56Z</time>
      </trkpt>
      <trkpt lat="44.15287" lon="5.97246">
        <ele>571.651</ele>
        <time>2019-11-01T09:33:02Z</time>
      </trkpt>
    </trkseg>
  </trk>
</gpx>